<?xml version="1.0" encoding="UTF-8" standalone="no" ?>
<gpx xmlns="http://www.topografix.com/GPX/1/1" xmlns:xsi="http://www.w3.org/2001/XMLSchema-instance" xsi:schemaLocation="http://www.topografix.com/GPX/1/1 http://www.topografix.com/GPX/1/1/gpx.xsd" version="1.1" creator="VisuGPX - https://www.visugpx.com">
  <metadata>
    <name>Etape Ecrins Refuge Xavier BlancLes Souffles</name>
    <desc><![CDATA[Dans cette étape nous suivons la vallée de la Severaisse sur 10 km environ en légère descente pour passer à la Chapelle en Valgaudemar et se retrouver à Villar Loubière(1030m),pour  l'ascension en direction du refuge des Souffles(1965m). 
Possibilité de prendre un chemin à droite en cours de montée aux Souffles et ensuite prendre à gauche dans la forêt en laissant le chemin du lac Lautier à droite.
Beau panorama au magnifique refuge des Souffles où vous serez très bien accueilli.]]></desc>
  </metadata>
  <trk>
    <name><![CDATA[2015-08-19 14:14:42]]></name>
    <trkseg>
      <trkpt lat="44.8292" lon="6.27538">
        <ele>1414.72</ele>
        <time>2015-08-19T06:15:33Z</time>
      </trkpt>
      <trkpt lat="44.8292" lon="6.27539">
        <ele>1414.72</ele>
        <time>2015-08-19T06:15:34Z</time>
      </trkpt>
      <trkpt lat="44.82921" lon="6.27538">
        <ele>1315.22</ele>
        <time>2015-08-19T06:15:37Z</time>
      </trkpt>
      <trkpt lat="44.82922" lon="6.27538">
        <ele>1315.22</ele>
        <time>2015-08-19T06:15:38Z</time>
      </trkpt>
      <trkpt lat="44.82916" lon="6.27539">
        <ele>1316.66</ele>
        <time>2015-08-19T06:15:58Z</time>
      </trkpt>
      <trkpt lat="44.829" lon="6.27537">
        <ele>1318.1</ele>
        <time>2015-08-19T06:16:22Z</time>
      </trkpt>
      <trkpt lat="44.82906" lon="6.27529">
        <ele>1319.07</ele>
        <time>2015-08-19T06:16:36Z</time>
      </trkpt>
      <trkpt lat="44.82908" lon="6.27526">
        <ele>1319.07</ele>
        <time>2015-08-19T06:16:38Z</time>
      </trkpt>
      <trkpt lat="44.82907" lon="6.27518">
        <ele>1319.07</ele>
        <time>2015-08-19T06:16:46Z</time>
      </trkpt>
      <trkpt lat="44.82908" lon="6.27503">
        <ele>1319.07</ele>
        <time>2015-08-19T06:16:57Z</time>
      </trkpt>
      <trkpt lat="44.82911" lon="6.27485">
        <ele>1319.07</ele>
        <time>2015-08-19T06:17:12Z</time>
      </trkpt>
      <trkpt lat="44.82913" lon="6.27469">
        <ele>1319.55</ele>
        <time>2015-08-19T06:17:23Z</time>
      </trkpt>
      <trkpt lat="44.82915" lon="6.27449">
        <ele>1322.43</ele>
        <time>2015-08-19T06:17:38Z</time>
      </trkpt>
      <trkpt lat="44.82916" lon="6.27435">
        <ele>1323.87</ele>
        <time>2015-08-19T06:17:49Z</time>
      </trkpt>
      <trkpt lat="44.82917" lon="6.27429">
        <ele>1324.83</ele>
        <time>2015-08-19T06:17:53Z</time>
      </trkpt>
      <trkpt lat="44.82917" lon="6.27409">
        <ele>1327.24</ele>
        <time>2015-08-19T06:18:08Z</time>
      </trkpt>
      <trkpt lat="44.82916" lon="6.27397">
        <ele>1326.28</ele>
        <time>2015-08-19T06:18:20Z</time>
      </trkpt>
      <trkpt lat="44.82914" lon="6.27392">
        <ele>1325.8</ele>
        <time>2015-08-19T06:18:27Z</time>
      </trkpt>
      <trkpt lat="44.82909" lon="6.27373">
        <ele>1325.31</ele>
        <time>2015-08-19T06:18:40Z</time>
      </trkpt>
      <trkpt lat="44.82908" lon="6.27365">
        <ele>1326.28</ele>
        <time>2015-08-19T06:18:45Z</time>
      </trkpt>
      <trkpt lat="44.8291" lon="6.27356">
        <ele>1326.76</ele>
        <time>2015-08-19T06:18:50Z</time>
      </trkpt>
      <trkpt lat="44.82912" lon="6.27336">
        <ele>1327.24</ele>
        <time>2015-08-19T06:19:03Z</time>
      </trkpt>
      <trkpt lat="44.82912" lon="6.27328">
        <ele>1327.24</ele>
        <time>2015-08-19T06:19:08Z</time>
      </trkpt>
      <trkpt lat="44.82907" lon="6.27308">
        <ele>1328.68</ele>
        <time>2015-08-19T06:19:23Z</time>
      </trkpt>
      <trkpt lat="44.82914" lon="6.27291">
        <ele>1331.56</ele>
        <time>2015-08-19T06:19:35Z</time>
      </trkpt>
      <trkpt lat="44.82915" lon="6.27278">
        <ele>1332.04</ele>
        <time>2015-08-19T06:19:46Z</time>
      </trkpt>
      <trkpt lat="44.82914" lon="6.27259">
        <ele>1333.49</ele>
        <time>2015-08-19T06:20:00Z</time>
      </trkpt>
      <trkpt lat="44.82915" lon="6.27254">
        <ele>1333.97</ele>
        <time>2015-08-19T06:20:04Z</time>
      </trkpt>
      <trkpt lat="44.82923" lon="6.27238">
        <ele>1336.37</ele>
        <time>2015-08-19T06:20:18Z</time>
      </trkpt>
      <trkpt lat="44.82929" lon="6.27226">
        <ele>1338.29</ele>
        <time>2015-08-19T06:20:30Z</time>
      </trkpt>
      <trkpt lat="44.8293" lon="6.27214">
        <ele>1340.22</ele>
        <time>2015-08-19T06:20:43Z</time>
      </trkpt>
      <trkpt lat="44.82928" lon="6.27207">
        <ele>1341.66</ele>
        <time>2015-08-19T06:20:56Z</time>
      </trkpt>
      <trkpt lat="44.82929" lon="6.27197">
        <ele>1343.58</ele>
        <time>2015-08-19T06:21:07Z</time>
      </trkpt>
      <trkpt lat="44.82933" lon="6.27188">
        <ele>1345.98</ele>
        <time>2015-08-19T06:21:21Z</time>
      </trkpt>
      <trkpt lat="44.82931" lon="6.27175">
        <ele>1348.39</ele>
        <time>2015-08-19T06:21:36Z</time>
      </trkpt>
      <trkpt lat="44.82933" lon="6.27164">
        <ele>1349.83</ele>
        <time>2015-08-19T06:21:47Z</time>
      </trkpt>
      <trkpt lat="44.82936" lon="6.27149">
        <ele>1350.79</ele>
        <time>2015-08-19T06:21:59Z</time>
      </trkpt>
      <trkpt lat="44.82935" lon="6.27135">
        <ele>1352.23</ele>
        <time>2015-08-19T06:22:13Z</time>
      </trkpt>
      <trkpt lat="44.82936" lon="6.27128">
        <ele>1354.15</ele>
        <time>2015-08-19T06:22:23Z</time>
      </trkpt>
      <trkpt lat="44.82939" lon="6.27112">
        <ele>1355.6</ele>
        <time>2015-08-19T06:22:36Z</time>
      </trkpt>
      <trkpt lat="44.82942" lon="6.27099">
        <ele>1357.04</ele>
        <time>2015-08-19T06:22:50Z</time>
      </trkpt>
      <trkpt lat="44.82944" lon="6.27096">
        <ele>1357.04</ele>
        <time>2015-08-19T06:22:53Z</time>
      </trkpt>
      <trkpt lat="44.82946" lon="6.27088">
        <ele>1358</ele>
        <time>2015-08-19T06:23:05Z</time>
      </trkpt>
      <trkpt lat="44.82944" lon="6.27086">
        <ele>1358.48</ele>
        <time>2015-08-19T06:23:22Z</time>
      </trkpt>
      <trkpt lat="44.82941" lon="6.27083">
        <ele>1358</ele>
        <time>2015-08-19T06:23:29Z</time>
      </trkpt>
      <trkpt lat="44.82924" lon="6.27077">
        <ele>1358.48</ele>
        <time>2015-08-19T06:23:46Z</time>
      </trkpt>
      <trkpt lat="44.8292" lon="6.27072">
        <ele>1358.48</ele>
        <time>2015-08-19T06:23:52Z</time>
      </trkpt>
      <trkpt lat="44.82918" lon="6.27055">
        <ele>1359.44</ele>
        <time>2015-08-19T06:24:05Z</time>
      </trkpt>
      <trkpt lat="44.82917" lon="6.27046">
        <ele>1359.92</ele>
        <time>2015-08-19T06:24:11Z</time>
      </trkpt>
      <trkpt lat="44.82916" lon="6.27033">
        <ele>1359.92</ele>
        <time>2015-08-19T06:24:25Z</time>
      </trkpt>
      <trkpt lat="44.8291" lon="6.27018">
        <ele>1358.48</ele>
        <time>2015-08-19T06:24:39Z</time>
      </trkpt>
      <trkpt lat="44.82903" lon="6.27009">
        <ele>1358.96</ele>
        <time>2015-08-19T06:24:48Z</time>
      </trkpt>
      <trkpt lat="44.82888" lon="6.26989">
        <ele>1358.48</ele>
        <time>2015-08-19T06:25:03Z</time>
      </trkpt>
      <trkpt lat="44.82886" lon="6.26971">
        <ele>1358.48</ele>
        <time>2015-08-19T06:25:14Z</time>
      </trkpt>
      <trkpt lat="44.82883" lon="6.26952">
        <ele>1359.44</ele>
        <time>2015-08-19T06:25:27Z</time>
      </trkpt>
      <trkpt lat="44.82885" lon="6.26941">
        <ele>1360.4</ele>
        <time>2015-08-19T06:25:34Z</time>
      </trkpt>
      <trkpt lat="44.82879" lon="6.26922">
        <ele>1361.84</ele>
        <time>2015-08-19T06:25:48Z</time>
      </trkpt>
      <trkpt lat="44.82878" lon="6.26914">
        <ele>1361.36</ele>
        <time>2015-08-19T06:25:53Z</time>
      </trkpt>
      <trkpt lat="44.8288" lon="6.26893">
        <ele>1359.44</ele>
        <time>2015-08-19T06:26:08Z</time>
      </trkpt>
      <trkpt lat="44.82874" lon="6.26886">
        <ele>1359.44</ele>
        <time>2015-08-19T06:26:17Z</time>
      </trkpt>
      <trkpt lat="44.82873" lon="6.26885">
        <ele>1358.96</ele>
        <time>2015-08-19T06:26:18Z</time>
      </trkpt>
      <trkpt lat="44.82858" lon="6.26877">
        <ele>1358.96</ele>
        <time>2015-08-19T06:26:30Z</time>
      </trkpt>
      <trkpt lat="44.82846" lon="6.2686">
        <ele>1358</ele>
        <time>2015-08-19T06:26:44Z</time>
      </trkpt>
      <trkpt lat="44.8284" lon="6.26834">
        <ele>1357.04</ele>
        <time>2015-08-19T06:27:00Z</time>
      </trkpt>
      <trkpt lat="44.82814" lon="6.26825">
        <ele>1356.56</ele>
        <time>2015-08-19T06:27:15Z</time>
      </trkpt>
      <trkpt lat="44.82815" lon="6.26824">
        <ele>1357.52</ele>
        <time>2015-08-19T06:27:39Z</time>
      </trkpt>
      <trkpt lat="44.82815" lon="6.26823">
        <ele>1358.48</ele>
        <time>2015-08-19T06:27:56Z</time>
      </trkpt>
      <trkpt lat="44.82815" lon="6.26823">
        <ele>1358.96</ele>
        <time>2015-08-19T06:28:10Z</time>
      </trkpt>
      <trkpt lat="44.82813" lon="6.26813">
        <ele>1358.96</ele>
        <time>2015-08-19T06:28:27Z</time>
      </trkpt>
      <trkpt lat="44.82813" lon="6.26807">
        <ele>1358.96</ele>
        <time>2015-08-19T06:28:31Z</time>
      </trkpt>
      <trkpt lat="44.82826" lon="6.26788">
        <ele>1357.52</ele>
        <time>2015-08-19T06:28:48Z</time>
      </trkpt>
      <trkpt lat="44.82826" lon="6.26784">
        <ele>1358</ele>
        <time>2015-08-19T06:28:52Z</time>
      </trkpt>
      <trkpt lat="44.82825" lon="6.26782">
        <ele>1357.52</ele>
        <time>2015-08-19T06:28:54Z</time>
      </trkpt>
      <trkpt lat="44.82817" lon="6.26773">
        <ele>1358</ele>
        <time>2015-08-19T06:29:06Z</time>
      </trkpt>
      <trkpt lat="44.82804" lon="6.26763">
        <ele>1356.08</ele>
        <time>2015-08-19T06:29:22Z</time>
      </trkpt>
      <trkpt lat="44.82803" lon="6.2676">
        <ele>1355.6</ele>
        <time>2015-08-19T06:29:25Z</time>
      </trkpt>
      <trkpt lat="44.82798" lon="6.26746">
        <ele>1354.15</ele>
        <time>2015-08-19T06:29:39Z</time>
      </trkpt>
      <trkpt lat="44.82795" lon="6.26742">
        <ele>1353.67</ele>
        <time>2015-08-19T06:29:43Z</time>
      </trkpt>
      <trkpt lat="44.82787" lon="6.26721">
        <ele>1351.75</ele>
        <time>2015-08-19T06:29:59Z</time>
      </trkpt>
      <trkpt lat="44.82782" lon="6.26705">
        <ele>1349.83</ele>
        <time>2015-08-19T06:30:11Z</time>
      </trkpt>
      <trkpt lat="44.82777" lon="6.26689">
        <ele>1347.91</ele>
        <time>2015-08-19T06:30:26Z</time>
      </trkpt>
      <trkpt lat="44.82777" lon="6.26687">
        <ele>1347.91</ele>
        <time>2015-08-19T06:30:28Z</time>
      </trkpt>
      <trkpt lat="44.82773" lon="6.26676">
        <ele>1346.46</ele>
        <time>2015-08-19T06:30:38Z</time>
      </trkpt>
      <trkpt lat="44.82767" lon="6.26655">
        <ele>1345.02</ele>
        <time>2015-08-19T06:30:53Z</time>
      </trkpt>
      <trkpt lat="44.82765" lon="6.26647">
        <ele>1345.02</ele>
        <time>2015-08-19T06:30:59Z</time>
      </trkpt>
      <trkpt lat="44.82765" lon="6.26642">
        <ele>1344.54</ele>
        <time>2015-08-19T06:31:02Z</time>
      </trkpt>
      <trkpt lat="44.82767" lon="6.26628">
        <ele>1343.58</ele>
        <time>2015-08-19T06:31:11Z</time>
      </trkpt>
      <trkpt lat="44.82766" lon="6.26612">
        <ele>1343.58</ele>
        <time>2015-08-19T06:31:22Z</time>
      </trkpt>
      <trkpt lat="44.8276" lon="6.266">
        <ele>1342.14</ele>
        <time>2015-08-19T06:31:33Z</time>
      </trkpt>
      <trkpt lat="44.82757" lon="6.26593">
        <ele>1342.14</ele>
        <time>2015-08-19T06:31:40Z</time>
      </trkpt>
      <trkpt lat="44.8275" lon="6.26566">
        <ele>1342.14</ele>
        <time>2015-08-19T06:32:01Z</time>
      </trkpt>
      <trkpt lat="44.82745" lon="6.26547">
        <ele>1342.14</ele>
        <time>2015-08-19T06:32:14Z</time>
      </trkpt>
      <trkpt lat="44.82741" lon="6.26527">
        <ele>1342.62</ele>
        <time>2015-08-19T06:32:28Z</time>
      </trkpt>
      <trkpt lat="44.82734" lon="6.26509">
        <ele>1342.14</ele>
        <time>2015-08-19T06:32:41Z</time>
      </trkpt>
      <trkpt lat="44.82736" lon="6.26484">
        <ele>1342.14</ele>
        <time>2015-08-19T06:32:56Z</time>
      </trkpt>
      <trkpt lat="44.82738" lon="6.26464">
        <ele>1344.54</ele>
        <time>2015-08-19T06:33:12Z</time>
      </trkpt>
      <trkpt lat="44.82737" lon="6.26452">
        <ele>1346.46</ele>
        <time>2015-08-19T06:33:26Z</time>
      </trkpt>
      <trkpt lat="44.82736" lon="6.26432">
        <ele>1347.43</ele>
        <time>2015-08-19T06:33:40Z</time>
      </trkpt>
      <trkpt lat="44.82737" lon="6.26421">
        <ele>1349.35</ele>
        <time>2015-08-19T06:33:54Z</time>
      </trkpt>
      <trkpt lat="44.82734" lon="6.26404">
        <ele>1351.75</ele>
        <time>2015-08-19T06:34:10Z</time>
      </trkpt>
      <trkpt lat="44.82733" lon="6.264">
        <ele>1351.75</ele>
        <time>2015-08-19T06:34:14Z</time>
      </trkpt>
      <trkpt lat="44.82728" lon="6.26391">
        <ele>1351.75</ele>
        <time>2015-08-19T06:34:21Z</time>
      </trkpt>
      <trkpt lat="44.82718" lon="6.26379">
        <ele>1352.23</ele>
        <time>2015-08-19T06:34:34Z</time>
      </trkpt>
      <trkpt lat="44.8271" lon="6.26365">
        <ele>1354.15</ele>
        <time>2015-08-19T06:34:48Z</time>
      </trkpt>
      <trkpt lat="44.82709" lon="6.26364">
        <ele>1354.15</ele>
        <time>2015-08-19T06:34:50Z</time>
      </trkpt>
      <trkpt lat="44.82702" lon="6.26352">
        <ele>1355.6</ele>
        <time>2015-08-19T06:35:01Z</time>
      </trkpt>
      <trkpt lat="44.82701" lon="6.26336">
        <ele>1355.12</ele>
        <time>2015-08-19T06:35:11Z</time>
      </trkpt>
      <trkpt lat="44.82698" lon="6.26321">
        <ele>1357.04</ele>
        <time>2015-08-19T06:35:25Z</time>
      </trkpt>
      <trkpt lat="44.82698" lon="6.2632">
        <ele>1357.04</ele>
        <time>2015-08-19T06:35:26Z</time>
      </trkpt>
      <trkpt lat="44.82696" lon="6.26314">
        <ele>1357.52</ele>
        <time>2015-08-19T06:35:30Z</time>
      </trkpt>
      <trkpt lat="44.82691" lon="6.26291">
        <ele>1357.04</ele>
        <time>2015-08-19T06:35:46Z</time>
      </trkpt>
      <trkpt lat="44.82688" lon="6.26276">
        <ele>1358.48</ele>
        <time>2015-08-19T06:36:00Z</time>
      </trkpt>
      <trkpt lat="44.82688" lon="6.2626">
        <ele>1359.44</ele>
        <time>2015-08-19T06:36:13Z</time>
      </trkpt>
      <trkpt lat="44.82687" lon="6.26252">
        <ele>1359.44</ele>
        <time>2015-08-19T06:36:19Z</time>
      </trkpt>
      <trkpt lat="44.82691" lon="6.26232">
        <ele>1360.4</ele>
        <time>2015-08-19T06:36:34Z</time>
      </trkpt>
      <trkpt lat="44.82691" lon="6.26231">
        <ele>1360.4</ele>
        <time>2015-08-19T06:36:35Z</time>
      </trkpt>
      <trkpt lat="44.82687" lon="6.26219">
        <ele>1361.36</ele>
        <time>2015-08-19T06:36:46Z</time>
      </trkpt>
      <trkpt lat="44.82684" lon="6.26204">
        <ele>1362.33</ele>
        <time>2015-08-19T06:37:01Z</time>
      </trkpt>
      <trkpt lat="44.8268" lon="6.26192">
        <ele>1362.81</ele>
        <time>2015-08-19T06:37:12Z</time>
      </trkpt>
      <trkpt lat="44.82672" lon="6.26178">
        <ele>1362.33</ele>
        <time>2015-08-19T06:37:26Z</time>
      </trkpt>
      <trkpt lat="44.82667" lon="6.26166">
        <ele>1360.4</ele>
        <time>2015-08-19T06:37:38Z</time>
      </trkpt>
      <trkpt lat="44.82665" lon="6.26159">
        <ele>1358.96</ele>
        <time>2015-08-19T06:37:45Z</time>
      </trkpt>
      <trkpt lat="44.82663" lon="6.26147">
        <ele>1357.52</ele>
        <time>2015-08-19T06:37:54Z</time>
      </trkpt>
      <trkpt lat="44.8266" lon="6.26127">
        <ele>1357.52</ele>
        <time>2015-08-19T06:38:08Z</time>
      </trkpt>
      <trkpt lat="44.82658" lon="6.2611">
        <ele>1356.56</ele>
        <time>2015-08-19T06:38:21Z</time>
      </trkpt>
      <trkpt lat="44.82661" lon="6.26102">
        <ele>1357.04</ele>
        <time>2015-08-19T06:38:35Z</time>
      </trkpt>
      <trkpt lat="44.8266" lon="6.261">
        <ele>1357.52</ele>
        <time>2015-08-19T06:38:50Z</time>
      </trkpt>
      <trkpt lat="44.82661" lon="6.26092">
        <ele>1357.52</ele>
        <time>2015-08-19T06:39:01Z</time>
      </trkpt>
      <trkpt lat="44.8266" lon="6.26085">
        <ele>1357.52</ele>
        <time>2015-08-19T06:39:06Z</time>
      </trkpt>
      <trkpt lat="44.82656" lon="6.26075">
        <ele>1356.08</ele>
        <time>2015-08-19T06:39:20Z</time>
      </trkpt>
      <trkpt lat="44.82656" lon="6.26069">
        <ele>1355.6</ele>
        <time>2015-08-19T06:39:31Z</time>
      </trkpt>
      <trkpt lat="44.82655" lon="6.26054">
        <ele>1354.15</ele>
        <time>2015-08-19T06:39:43Z</time>
      </trkpt>
      <trkpt lat="44.82652" lon="6.26039">
        <ele>1352.23</ele>
        <time>2015-08-19T06:39:57Z</time>
      </trkpt>
      <trkpt lat="44.82659" lon="6.26027">
        <ele>1349.35</ele>
        <time>2015-08-19T06:40:11Z</time>
      </trkpt>
      <trkpt lat="44.82668" lon="6.2602">
        <ele>1346.94</ele>
        <time>2015-08-19T06:40:26Z</time>
      </trkpt>
      <trkpt lat="44.82679" lon="6.26013">
        <ele>1345.02</ele>
        <time>2015-08-19T06:40:41Z</time>
      </trkpt>
      <trkpt lat="44.82687" lon="6.26011">
        <ele>1346.94</ele>
        <time>2015-08-19T06:40:55Z</time>
      </trkpt>
      <trkpt lat="44.82687" lon="6.26">
        <ele>1347.91</ele>
        <time>2015-08-19T06:41:10Z</time>
      </trkpt>
      <trkpt lat="44.82682" lon="6.25994">
        <ele>1346.46</ele>
        <time>2015-08-19T06:41:22Z</time>
      </trkpt>
      <trkpt lat="44.82678" lon="6.25989">
        <ele>1344.54</ele>
        <time>2015-08-19T06:41:36Z</time>
      </trkpt>
      <trkpt lat="44.82671" lon="6.25986">
        <ele>1342.62</ele>
        <time>2015-08-19T06:41:48Z</time>
      </trkpt>
      <trkpt lat="44.82665" lon="6.25983">
        <ele>1339.73</ele>
        <time>2015-08-19T06:42:05Z</time>
      </trkpt>
      <trkpt lat="44.82656" lon="6.25975">
        <ele>1337.81</ele>
        <time>2015-08-19T06:42:21Z</time>
      </trkpt>
      <trkpt lat="44.82646" lon="6.25964">
        <ele>1335.41</ele>
        <time>2015-08-19T06:42:38Z</time>
      </trkpt>
      <trkpt lat="44.82638" lon="6.25956">
        <ele>1333.49</ele>
        <time>2015-08-19T06:42:51Z</time>
      </trkpt>
      <trkpt lat="44.82635" lon="6.2595">
        <ele>1332.52</ele>
        <time>2015-08-19T06:42:57Z</time>
      </trkpt>
      <trkpt lat="44.82624" lon="6.25934">
        <ele>1331.08</ele>
        <time>2015-08-19T06:43:10Z</time>
      </trkpt>
      <trkpt lat="44.82614" lon="6.25916">
        <ele>1329.64</ele>
        <time>2015-08-19T06:43:24Z</time>
      </trkpt>
      <trkpt lat="44.8261" lon="6.25906">
        <ele>1328.68</ele>
        <time>2015-08-19T06:43:31Z</time>
      </trkpt>
      <trkpt lat="44.82599" lon="6.25891">
        <ele>1326.76</ele>
        <time>2015-08-19T06:43:46Z</time>
      </trkpt>
      <trkpt lat="44.82599" lon="6.2588">
        <ele>1325.31</ele>
        <time>2015-08-19T06:43:58Z</time>
      </trkpt>
      <trkpt lat="44.82597" lon="6.25887">
        <ele>1323.39</ele>
        <time>2015-08-19T06:44:11Z</time>
      </trkpt>
      <trkpt lat="44.82585" lon="6.25882">
        <ele>1320.51</ele>
        <time>2015-08-19T06:44:25Z</time>
      </trkpt>
      <trkpt lat="44.82584" lon="6.2586">
        <ele>1318.1</ele>
        <time>2015-08-19T06:44:40Z</time>
      </trkpt>
      <trkpt lat="44.8258" lon="6.25861">
        <ele>1315.7</ele>
        <time>2015-08-19T06:44:51Z</time>
      </trkpt>
      <trkpt lat="44.82567" lon="6.25867">
        <ele>1313.3</ele>
        <time>2015-08-19T06:45:06Z</time>
      </trkpt>
      <trkpt lat="44.82559" lon="6.25876">
        <ele>1310.41</ele>
        <time>2015-08-19T06:45:21Z</time>
      </trkpt>
      <trkpt lat="44.82556" lon="6.25872">
        <ele>1308.01</ele>
        <time>2015-08-19T06:45:35Z</time>
      </trkpt>
      <trkpt lat="44.82555" lon="6.25872">
        <ele>1308.01</ele>
        <time>2015-08-19T06:45:36Z</time>
      </trkpt>
      <trkpt lat="44.82554" lon="6.2587">
        <ele>1307.53</ele>
        <time>2015-08-19T06:45:38Z</time>
      </trkpt>
      <trkpt lat="44.82551" lon="6.25856">
        <ele>1306.09</ele>
        <time>2015-08-19T06:45:46Z</time>
      </trkpt>
      <trkpt lat="44.82548" lon="6.25846">
        <ele>1304.65</ele>
        <time>2015-08-19T06:45:58Z</time>
      </trkpt>
      <trkpt lat="44.82545" lon="6.25831">
        <ele>1301.76</ele>
        <time>2015-08-19T06:46:10Z</time>
      </trkpt>
      <trkpt lat="44.82542" lon="6.2581">
        <ele>1299.84</ele>
        <time>2015-08-19T06:46:24Z</time>
      </trkpt>
      <trkpt lat="44.82545" lon="6.25786">
        <ele>1298.4</ele>
        <time>2015-08-19T06:46:39Z</time>
      </trkpt>
      <trkpt lat="44.82545" lon="6.25764">
        <ele>1296.48</ele>
        <time>2015-08-19T06:46:55Z</time>
      </trkpt>
      <trkpt lat="44.82542" lon="6.25753">
        <ele>1294.55</ele>
        <time>2015-08-19T06:47:04Z</time>
      </trkpt>
      <trkpt lat="44.82541" lon="6.25749">
        <ele>1294.07</ele>
        <time>2015-08-19T06:47:08Z</time>
      </trkpt>
      <trkpt lat="44.82536" lon="6.25728">
        <ele>1291.67</ele>
        <time>2015-08-19T06:47:24Z</time>
      </trkpt>
      <trkpt lat="44.82535" lon="6.25708">
        <ele>1289.27</ele>
        <time>2015-08-19T06:47:40Z</time>
      </trkpt>
      <trkpt lat="44.8254" lon="6.25699">
        <ele>1288.3</ele>
        <time>2015-08-19T06:47:57Z</time>
      </trkpt>
      <trkpt lat="44.82543" lon="6.25693">
        <ele>1287.34</ele>
        <time>2015-08-19T06:48:09Z</time>
      </trkpt>
      <trkpt lat="44.82541" lon="6.25688">
        <ele>1284.46</ele>
        <time>2015-08-19T06:48:25Z</time>
      </trkpt>
      <trkpt lat="44.82541" lon="6.25687">
        <ele>1283.98</ele>
        <time>2015-08-19T06:48:26Z</time>
      </trkpt>
      <trkpt lat="44.82544" lon="6.25678">
        <ele>1282.54</ele>
        <time>2015-08-19T06:48:36Z</time>
      </trkpt>
      <trkpt lat="44.82555" lon="6.25663">
        <ele>1280.13</ele>
        <time>2015-08-19T06:48:52Z</time>
      </trkpt>
      <trkpt lat="44.82563" lon="6.25647">
        <ele>1279.65</ele>
        <time>2015-08-19T06:49:06Z</time>
      </trkpt>
      <trkpt lat="44.82566" lon="6.25633">
        <ele>1278.69</ele>
        <time>2015-08-19T06:49:18Z</time>
      </trkpt>
      <trkpt lat="44.82569" lon="6.25616">
        <ele>1276.77</ele>
        <time>2015-08-19T06:49:33Z</time>
      </trkpt>
      <trkpt lat="44.82575" lon="6.25601">
        <ele>1273.4</ele>
        <time>2015-08-19T06:49:50Z</time>
      </trkpt>
      <trkpt lat="44.82579" lon="6.25595">
        <ele>1272.44</ele>
        <time>2015-08-19T06:50:04Z</time>
      </trkpt>
      <trkpt lat="44.82584" lon="6.25595">
        <ele>1272.92</ele>
        <time>2015-08-19T06:50:21Z</time>
      </trkpt>
      <trkpt lat="44.82585" lon="6.25593">
        <ele>1272.92</ele>
        <time>2015-08-19T06:50:35Z</time>
      </trkpt>
      <trkpt lat="44.82585" lon="6.25591">
        <ele>1272.92</ele>
        <time>2015-08-19T06:50:38Z</time>
      </trkpt>
      <trkpt lat="44.82578" lon="6.25579">
        <ele>1272.92</ele>
        <time>2015-08-19T06:50:49Z</time>
      </trkpt>
      <trkpt lat="44.82576" lon="6.25572">
        <ele>1272.44</ele>
        <time>2015-08-19T06:50:55Z</time>
      </trkpt>
      <trkpt lat="44.82566" lon="6.25551">
        <ele>1269.08</ele>
        <time>2015-08-19T06:51:11Z</time>
      </trkpt>
      <trkpt lat="44.82561" lon="6.25531">
        <ele>1267.16</ele>
        <time>2015-08-19T06:51:24Z</time>
      </trkpt>
      <trkpt lat="44.82561" lon="6.25526">
        <ele>1266.67</ele>
        <time>2015-08-19T06:51:27Z</time>
      </trkpt>
      <trkpt lat="44.8256" lon="6.25521">
        <ele>1266.19</ele>
        <time>2015-08-19T06:51:30Z</time>
      </trkpt>
      <trkpt lat="44.82557" lon="6.25498">
        <ele>1262.83</ele>
        <time>2015-08-19T06:51:47Z</time>
      </trkpt>
      <trkpt lat="44.82552" lon="6.25481">
        <ele>1261.39</ele>
        <time>2015-08-19T06:51:58Z</time>
      </trkpt>
      <trkpt lat="44.82546" lon="6.25461">
        <ele>1258.5</ele>
        <time>2015-08-19T06:52:13Z</time>
      </trkpt>
      <trkpt lat="44.82547" lon="6.25458">
        <ele>1258.02</ele>
        <time>2015-08-19T06:52:15Z</time>
      </trkpt>
      <trkpt lat="44.82545" lon="6.2545">
        <ele>1257.06</ele>
        <time>2015-08-19T06:52:20Z</time>
      </trkpt>
      <trkpt lat="44.82547" lon="6.25427">
        <ele>1258.5</ele>
        <time>2015-08-19T06:52:34Z</time>
      </trkpt>
      <trkpt lat="44.82548" lon="6.2542">
        <ele>1257.54</ele>
        <time>2015-08-19T06:52:42Z</time>
      </trkpt>
      <trkpt lat="44.82552" lon="6.25394">
        <ele>1255.14</ele>
        <time>2015-08-19T06:52:58Z</time>
      </trkpt>
      <trkpt lat="44.82554" lon="6.25376">
        <ele>1252.25</ele>
        <time>2015-08-19T06:53:11Z</time>
      </trkpt>
      <trkpt lat="44.82559" lon="6.25369">
        <ele>1252.25</ele>
        <time>2015-08-19T06:53:23Z</time>
      </trkpt>
      <trkpt lat="44.82565" lon="6.25357">
        <ele>1252.25</ele>
        <time>2015-08-19T06:53:35Z</time>
      </trkpt>
      <trkpt lat="44.82568" lon="6.25342">
        <ele>1252.74</ele>
        <time>2015-08-19T06:53:48Z</time>
      </trkpt>
      <trkpt lat="44.8257" lon="6.25342">
        <ele>1253.22</ele>
        <time>2015-08-19T06:54:00Z</time>
      </trkpt>
      <trkpt lat="44.82571" lon="6.25338">
        <ele>1253.7</ele>
        <time>2015-08-19T06:54:32Z</time>
      </trkpt>
      <trkpt lat="44.82569" lon="6.2534">
        <ele>1254.18</ele>
        <time>2015-08-19T06:54:50Z</time>
      </trkpt>
      <trkpt lat="44.82566" lon="6.25346">
        <ele>1253.7</ele>
        <time>2015-08-19T06:55:03Z</time>
      </trkpt>
      <trkpt lat="44.82566" lon="6.25346">
        <ele>1254.18</ele>
        <time>2015-08-19T06:55:16Z</time>
      </trkpt>
      <trkpt lat="44.82565" lon="6.25349">
        <ele>1253.7</ele>
        <time>2015-08-19T06:55:32Z</time>
      </trkpt>
      <trkpt lat="44.82563" lon="6.25356">
        <ele>1253.7</ele>
        <time>2015-08-19T06:56:03Z</time>
      </trkpt>
      <trkpt lat="44.8256" lon="6.25351">
        <ele>1254.18</ele>
        <time>2015-08-19T06:56:32Z</time>
      </trkpt>
      <trkpt lat="44.82565" lon="6.25355">
        <ele>1254.66</ele>
        <time>2015-08-19T06:56:50Z</time>
      </trkpt>
      <trkpt lat="44.82566" lon="6.2535">
        <ele>1256.1</ele>
        <time>2015-08-19T06:57:06Z</time>
      </trkpt>
      <trkpt lat="44.82568" lon="6.25348">
        <ele>1256.1</ele>
        <time>2015-08-19T06:57:19Z</time>
      </trkpt>
      <trkpt lat="44.82569" lon="6.25345">
        <ele>1257.06</ele>
        <time>2015-08-19T06:57:39Z</time>
      </trkpt>
      <trkpt lat="44.8257" lon="6.25344">
        <ele>1257.06</ele>
        <time>2015-08-19T06:57:56Z</time>
      </trkpt>
      <trkpt lat="44.82568" lon="6.25345">
        <ele>1257.06</ele>
        <time>2015-08-19T06:58:13Z</time>
      </trkpt>
      <trkpt lat="44.8257" lon="6.25346">
        <ele>1258.02</ele>
        <time>2015-08-19T06:58:34Z</time>
      </trkpt>
      <trkpt lat="44.82568" lon="6.25347">
        <ele>1258.98</ele>
        <time>2015-08-19T06:58:51Z</time>
      </trkpt>
      <trkpt lat="44.8257" lon="6.25345">
        <ele>1259.46</ele>
        <time>2015-08-19T06:59:09Z</time>
      </trkpt>
      <trkpt lat="44.8257" lon="6.25335">
        <ele>1259.94</ele>
        <time>2015-08-19T06:59:25Z</time>
      </trkpt>
      <trkpt lat="44.82571" lon="6.25326">
        <ele>1258.98</ele>
        <time>2015-08-19T06:59:39Z</time>
      </trkpt>
      <trkpt lat="44.82572" lon="6.25315">
        <ele>1257.06</ele>
        <time>2015-08-19T06:59:51Z</time>
      </trkpt>
      <trkpt lat="44.82572" lon="6.25305">
        <ele>1256.1</ele>
        <time>2015-08-19T07:00:05Z</time>
      </trkpt>
      <trkpt lat="44.82578" lon="6.25285">
        <ele>1252.74</ele>
        <time>2015-08-19T07:00:21Z</time>
      </trkpt>
      <trkpt lat="44.8258" lon="6.25272">
        <ele>1250.81</ele>
        <time>2015-08-19T07:00:36Z</time>
      </trkpt>
      <trkpt lat="44.82581" lon="6.25269">
        <ele>1250.81</ele>
        <time>2015-08-19T07:00:38Z</time>
      </trkpt>
      <trkpt lat="44.82588" lon="6.25257">
        <ele>1249.85</ele>
        <time>2015-08-19T07:00:51Z</time>
      </trkpt>
      <trkpt lat="44.8259" lon="6.25245">
        <ele>1247.45</ele>
        <time>2015-08-19T07:01:04Z</time>
      </trkpt>
      <trkpt lat="44.8259" lon="6.25236">
        <ele>1245.53</ele>
        <time>2015-08-19T07:01:16Z</time>
      </trkpt>
      <trkpt lat="44.8259" lon="6.25233">
        <ele>1245.04</ele>
        <time>2015-08-19T07:01:22Z</time>
      </trkpt>
      <trkpt lat="44.82591" lon="6.25215">
        <ele>1243.6</ele>
        <time>2015-08-19T07:01:36Z</time>
      </trkpt>
      <trkpt lat="44.82588" lon="6.25202">
        <ele>1242.16</ele>
        <time>2015-08-19T07:01:50Z</time>
      </trkpt>
      <trkpt lat="44.82586" lon="6.25198">
        <ele>1241.68</ele>
        <time>2015-08-19T07:01:57Z</time>
      </trkpt>
      <trkpt lat="44.82585" lon="6.25184">
        <ele>1239.76</ele>
        <time>2015-08-19T07:02:11Z</time>
      </trkpt>
      <trkpt lat="44.82584" lon="6.25183">
        <ele>1239.76</ele>
        <time>2015-08-19T07:02:12Z</time>
      </trkpt>
      <trkpt lat="44.82584" lon="6.25165">
        <ele>1237.35</ele>
        <time>2015-08-19T07:02:29Z</time>
      </trkpt>
      <trkpt lat="44.82584" lon="6.2515">
        <ele>1235.91</ele>
        <time>2015-08-19T07:02:41Z</time>
      </trkpt>
      <trkpt lat="44.82586" lon="6.2513">
        <ele>1233.99</ele>
        <time>2015-08-19T07:02:56Z</time>
      </trkpt>
      <trkpt lat="44.82588" lon="6.25113">
        <ele>1231.59</ele>
        <time>2015-08-19T07:03:11Z</time>
      </trkpt>
      <trkpt lat="44.82588" lon="6.25095">
        <ele>1230.62</ele>
        <time>2015-08-19T07:03:28Z</time>
      </trkpt>
      <trkpt lat="44.82587" lon="6.25077">
        <ele>1228.22</ele>
        <time>2015-08-19T07:03:43Z</time>
      </trkpt>
      <trkpt lat="44.82588" lon="6.25067">
        <ele>1226.78</ele>
        <time>2015-08-19T07:03:54Z</time>
      </trkpt>
      <trkpt lat="44.82588" lon="6.25064">
        <ele>1226.78</ele>
        <time>2015-08-19T07:03:56Z</time>
      </trkpt>
      <trkpt lat="44.82587" lon="6.25047">
        <ele>1224.86</ele>
        <time>2015-08-19T07:04:10Z</time>
      </trkpt>
      <trkpt lat="44.82589" lon="6.25034">
        <ele>1223.42</ele>
        <time>2015-08-19T07:04:22Z</time>
      </trkpt>
      <trkpt lat="44.82591" lon="6.25017">
        <ele>1222.93</ele>
        <time>2015-08-19T07:04:34Z</time>
      </trkpt>
      <trkpt lat="44.82589" lon="6.24994">
        <ele>1222.45</ele>
        <time>2015-08-19T07:04:50Z</time>
      </trkpt>
      <trkpt lat="44.8259" lon="6.24974">
        <ele>1220.53</ele>
        <time>2015-08-19T07:05:05Z</time>
      </trkpt>
      <trkpt lat="44.8259" lon="6.24973">
        <ele>1220.53</ele>
        <time>2015-08-19T07:05:06Z</time>
      </trkpt>
      <trkpt lat="44.82589" lon="6.24957">
        <ele>1217.65</ele>
        <time>2015-08-19T07:05:19Z</time>
      </trkpt>
      <trkpt lat="44.8259" lon="6.24939">
        <ele>1215.24</ele>
        <time>2015-08-19T07:05:33Z</time>
      </trkpt>
      <trkpt lat="44.82589" lon="6.24928">
        <ele>1213.32</ele>
        <time>2015-08-19T07:05:44Z</time>
      </trkpt>
      <trkpt lat="44.82588" lon="6.24906">
        <ele>1211.88</ele>
        <time>2015-08-19T07:06:04Z</time>
      </trkpt>
      <trkpt lat="44.82586" lon="6.2489">
        <ele>1212.36</ele>
        <time>2015-08-19T07:06:17Z</time>
      </trkpt>
      <trkpt lat="44.82584" lon="6.24883">
        <ele>1211.88</ele>
        <time>2015-08-19T07:06:22Z</time>
      </trkpt>
      <trkpt lat="44.8258" lon="6.24864">
        <ele>1211.88</ele>
        <time>2015-08-19T07:06:36Z</time>
      </trkpt>
      <trkpt lat="44.82577" lon="6.24844">
        <ele>1210.44</ele>
        <time>2015-08-19T07:06:49Z</time>
      </trkpt>
      <trkpt lat="44.82573" lon="6.24825">
        <ele>1208.03</ele>
        <time>2015-08-19T07:07:04Z</time>
      </trkpt>
      <trkpt lat="44.82573" lon="6.24824">
        <ele>1207.55</ele>
        <time>2015-08-19T07:07:05Z</time>
      </trkpt>
      <trkpt lat="44.82575" lon="6.24806">
        <ele>1206.11</ele>
        <time>2015-08-19T07:07:19Z</time>
      </trkpt>
      <trkpt lat="44.82574" lon="6.24787">
        <ele>1203.71</ele>
        <time>2015-08-19T07:07:32Z</time>
      </trkpt>
      <trkpt lat="44.82573" lon="6.24772">
        <ele>1202.75</ele>
        <time>2015-08-19T07:07:41Z</time>
      </trkpt>
      <trkpt lat="44.82576" lon="6.24753">
        <ele>1200.82</ele>
        <time>2015-08-19T07:07:56Z</time>
      </trkpt>
      <trkpt lat="44.82575" lon="6.24735">
        <ele>1198.42</ele>
        <time>2015-08-19T07:08:10Z</time>
      </trkpt>
      <trkpt lat="44.82573" lon="6.24716">
        <ele>1196.02</ele>
        <time>2015-08-19T07:08:25Z</time>
      </trkpt>
      <trkpt lat="44.82576" lon="6.24704">
        <ele>1193.61</ele>
        <time>2015-08-19T07:08:39Z</time>
      </trkpt>
      <trkpt lat="44.8256" lon="6.24683">
        <ele>1191.69</ele>
        <time>2015-08-19T07:08:52Z</time>
      </trkpt>
      <trkpt lat="44.82546" lon="6.2465">
        <ele>1190.25</ele>
        <time>2015-08-19T07:09:07Z</time>
      </trkpt>
      <trkpt lat="44.82544" lon="6.24643">
        <ele>1189.77</ele>
        <time>2015-08-19T07:09:10Z</time>
      </trkpt>
      <trkpt lat="44.8254" lon="6.24629">
        <ele>1189.77</ele>
        <time>2015-08-19T07:09:19Z</time>
      </trkpt>
      <trkpt lat="44.82537" lon="6.24602">
        <ele>1189.29</ele>
        <time>2015-08-19T07:09:35Z</time>
      </trkpt>
      <trkpt lat="44.82537" lon="6.246">
        <ele>1188.81</ele>
        <time>2015-08-19T07:09:37Z</time>
      </trkpt>
      <trkpt lat="44.82533" lon="6.24574">
        <ele>1188.33</ele>
        <time>2015-08-19T07:09:54Z</time>
      </trkpt>
      <trkpt lat="44.82531" lon="6.24558">
        <ele>1186.88</ele>
        <time>2015-08-19T07:10:06Z</time>
      </trkpt>
      <trkpt lat="44.82526" lon="6.24537">
        <ele>1185.44</ele>
        <time>2015-08-19T07:10:21Z</time>
      </trkpt>
      <trkpt lat="44.82527" lon="6.24518">
        <ele>1183.04</ele>
        <time>2015-08-19T07:10:36Z</time>
      </trkpt>
      <trkpt lat="44.82522" lon="6.24501">
        <ele>1180.64</ele>
        <time>2015-08-19T07:10:50Z</time>
      </trkpt>
      <trkpt lat="44.8252" lon="6.24483">
        <ele>1178.71</ele>
        <time>2015-08-19T07:11:02Z</time>
      </trkpt>
      <trkpt lat="44.8252" lon="6.2446">
        <ele>1176.79</ele>
        <time>2015-08-19T07:11:17Z</time>
      </trkpt>
      <trkpt lat="44.82519" lon="6.24453">
        <ele>1176.79</ele>
        <time>2015-08-19T07:11:22Z</time>
      </trkpt>
      <trkpt lat="44.82516" lon="6.24445">
        <ele>1177.27</ele>
        <time>2015-08-19T07:11:28Z</time>
      </trkpt>
      <trkpt lat="44.82513" lon="6.24421">
        <ele>1176.79</ele>
        <time>2015-08-19T07:11:43Z</time>
      </trkpt>
      <trkpt lat="44.82513" lon="6.2442">
        <ele>1176.31</ele>
        <time>2015-08-19T07:11:44Z</time>
      </trkpt>
      <trkpt lat="44.82509" lon="6.244">
        <ele>1176.79</ele>
        <time>2015-08-19T07:11:56Z</time>
      </trkpt>
      <trkpt lat="44.82507" lon="6.24394">
        <ele>1176.79</ele>
        <time>2015-08-19T07:11:59Z</time>
      </trkpt>
      <trkpt lat="44.82513" lon="6.24364">
        <ele>1175.35</ele>
        <time>2015-08-19T07:12:16Z</time>
      </trkpt>
      <trkpt lat="44.82511" lon="6.24336">
        <ele>1173.91</ele>
        <time>2015-08-19T07:12:31Z</time>
      </trkpt>
      <trkpt lat="44.82512" lon="6.24304">
        <ele>1171.5</ele>
        <time>2015-08-19T07:12:48Z</time>
      </trkpt>
      <trkpt lat="44.82512" lon="6.24288">
        <ele>1170.54</ele>
        <time>2015-08-19T07:12:57Z</time>
      </trkpt>
      <trkpt lat="44.825" lon="6.24257">
        <ele>1169.1</ele>
        <time>2015-08-19T07:13:17Z</time>
      </trkpt>
      <trkpt lat="44.82498" lon="6.24231">
        <ele>1167.66</ele>
        <time>2015-08-19T07:13:32Z</time>
      </trkpt>
      <trkpt lat="44.82491" lon="6.24205">
        <ele>1166.22</ele>
        <time>2015-08-19T07:13:47Z</time>
      </trkpt>
      <trkpt lat="44.8249" lon="6.2418">
        <ele>1165.26</ele>
        <time>2015-08-19T07:14:01Z</time>
      </trkpt>
      <trkpt lat="44.82489" lon="6.24179">
        <ele>1165.74</ele>
        <time>2015-08-19T07:14:02Z</time>
      </trkpt>
      <trkpt lat="44.82489" lon="6.24178">
        <ele>1165.26</ele>
        <time>2015-08-19T07:14:03Z</time>
      </trkpt>
      <trkpt lat="44.82483" lon="6.24147">
        <ele>1164.77</ele>
        <time>2015-08-19T07:14:20Z</time>
      </trkpt>
      <trkpt lat="44.82482" lon="6.24124">
        <ele>1165.26</ele>
        <time>2015-08-19T07:14:33Z</time>
      </trkpt>
      <trkpt lat="44.82483" lon="6.24119">
        <ele>1165.26</ele>
        <time>2015-08-19T07:14:37Z</time>
      </trkpt>
      <trkpt lat="44.82484" lon="6.24106">
        <ele>1165.74</ele>
        <time>2015-08-19T07:14:46Z</time>
      </trkpt>
      <trkpt lat="44.82484" lon="6.241">
        <ele>1165.74</ele>
        <time>2015-08-19T07:14:50Z</time>
      </trkpt>
      <trkpt lat="44.82483" lon="6.24096">
        <ele>1165.26</ele>
        <time>2015-08-19T07:14:52Z</time>
      </trkpt>
      <trkpt lat="44.82473" lon="6.24073">
        <ele>1163.81</ele>
        <time>2015-08-19T07:15:09Z</time>
      </trkpt>
      <trkpt lat="44.82473" lon="6.24066">
        <ele>1163.33</ele>
        <time>2015-08-19T07:15:13Z</time>
      </trkpt>
      <trkpt lat="44.82473" lon="6.24064">
        <ele>1163.33</ele>
        <time>2015-08-19T07:15:14Z</time>
      </trkpt>
      <trkpt lat="44.82474" lon="6.24059">
        <ele>1163.33</ele>
        <time>2015-08-19T07:15:16Z</time>
      </trkpt>
      <trkpt lat="44.82474" lon="6.24049">
        <ele>1162.85</ele>
        <time>2015-08-19T07:15:23Z</time>
      </trkpt>
      <trkpt lat="44.82478" lon="6.24019">
        <ele>1161.89</ele>
        <time>2015-08-19T07:15:40Z</time>
      </trkpt>
      <trkpt lat="44.82477" lon="6.24017">
        <ele>1161.89</ele>
        <time>2015-08-19T07:15:41Z</time>
      </trkpt>
      <trkpt lat="44.82477" lon="6.23991">
        <ele>1161.41</ele>
        <time>2015-08-19T07:15:55Z</time>
      </trkpt>
      <trkpt lat="44.82477" lon="6.23984">
        <ele>1160.93</ele>
        <time>2015-08-19T07:15:59Z</time>
      </trkpt>
      <trkpt lat="44.82478" lon="6.23982">
        <ele>1160.93</ele>
        <time>2015-08-19T07:16:00Z</time>
      </trkpt>
      <trkpt lat="44.82481" lon="6.23964">
        <ele>1160.45</ele>
        <time>2015-08-19T07:16:15Z</time>
      </trkpt>
      <trkpt lat="44.82481" lon="6.23961">
        <ele>1160.45</ele>
        <time>2015-08-19T07:16:16Z</time>
      </trkpt>
      <trkpt lat="44.82481" lon="6.23935">
        <ele>1159.49</ele>
        <time>2015-08-19T07:16:31Z</time>
      </trkpt>
      <trkpt lat="44.82479" lon="6.23929">
        <ele>1159.49</ele>
        <time>2015-08-19T07:16:34Z</time>
      </trkpt>
      <trkpt lat="44.8248" lon="6.23921">
        <ele>1159.49</ele>
        <time>2015-08-19T07:16:39Z</time>
      </trkpt>
      <trkpt lat="44.82481" lon="6.239">
        <ele>1159.01</ele>
        <time>2015-08-19T07:16:50Z</time>
      </trkpt>
      <trkpt lat="44.8248" lon="6.23875">
        <ele>1159.01</ele>
        <time>2015-08-19T07:17:03Z</time>
      </trkpt>
      <trkpt lat="44.8248" lon="6.23871">
        <ele>1159.01</ele>
        <time>2015-08-19T07:17:05Z</time>
      </trkpt>
      <trkpt lat="44.8248" lon="6.23862">
        <ele>1159.01</ele>
        <time>2015-08-19T07:17:10Z</time>
      </trkpt>
      <trkpt lat="44.82481" lon="6.23829">
        <ele>1158.53</ele>
        <time>2015-08-19T07:17:28Z</time>
      </trkpt>
      <trkpt lat="44.82481" lon="6.23817">
        <ele>1158.53</ele>
        <time>2015-08-19T07:17:34Z</time>
      </trkpt>
      <trkpt lat="44.82483" lon="6.23791">
        <ele>1157.56</ele>
        <time>2015-08-19T07:17:48Z</time>
      </trkpt>
      <trkpt lat="44.82485" lon="6.2378">
        <ele>1157.56</ele>
        <time>2015-08-19T07:17:54Z</time>
      </trkpt>
      <trkpt lat="44.82486" lon="6.23763">
        <ele>1157.08</ele>
        <time>2015-08-19T07:18:03Z</time>
      </trkpt>
      <trkpt lat="44.82489" lon="6.23751">
        <ele>1156.6</ele>
        <time>2015-08-19T07:18:10Z</time>
      </trkpt>
      <trkpt lat="44.82491" lon="6.23746">
        <ele>1157.08</ele>
        <time>2015-08-19T07:18:13Z</time>
      </trkpt>
      <trkpt lat="44.82491" lon="6.23728">
        <ele>1156.6</ele>
        <time>2015-08-19T07:18:23Z</time>
      </trkpt>
      <trkpt lat="44.8249" lon="6.23715">
        <ele>1157.56</ele>
        <time>2015-08-19T07:18:31Z</time>
      </trkpt>
      <trkpt lat="44.82492" lon="6.23694">
        <ele>1158.05</ele>
        <time>2015-08-19T07:18:43Z</time>
      </trkpt>
      <trkpt lat="44.82491" lon="6.23689">
        <ele>1158.05</ele>
        <time>2015-08-19T07:18:46Z</time>
      </trkpt>
      <trkpt lat="44.82492" lon="6.23687">
        <ele>1158.05</ele>
        <time>2015-08-19T07:18:47Z</time>
      </trkpt>
      <trkpt lat="44.82491" lon="6.23676">
        <ele>1157.56</ele>
        <time>2015-08-19T07:18:53Z</time>
      </trkpt>
      <trkpt lat="44.82488" lon="6.23646">
        <ele>1158.53</ele>
        <time>2015-08-19T07:19:10Z</time>
      </trkpt>
      <trkpt lat="44.82487" lon="6.23641">
        <ele>1158.53</ele>
        <time>2015-08-19T07:19:13Z</time>
      </trkpt>
      <trkpt lat="44.82486" lon="6.23627">
        <ele>1157.56</ele>
        <time>2015-08-19T07:19:20Z</time>
      </trkpt>
      <trkpt lat="44.82487" lon="6.23617">
        <ele>1157.08</ele>
        <time>2015-08-19T07:19:25Z</time>
      </trkpt>
      <trkpt lat="44.82487" lon="6.23613">
        <ele>1157.08</ele>
        <time>2015-08-19T07:19:27Z</time>
      </trkpt>
      <trkpt lat="44.82486" lon="6.23601">
        <ele>1156.6</ele>
        <time>2015-08-19T07:19:33Z</time>
      </trkpt>
      <trkpt lat="44.82481" lon="6.23576">
        <ele>1155.64</ele>
        <time>2015-08-19T07:19:48Z</time>
      </trkpt>
      <trkpt lat="44.82476" lon="6.23552">
        <ele>1154.2</ele>
        <time>2015-08-19T07:20:02Z</time>
      </trkpt>
      <trkpt lat="44.82472" lon="6.23528">
        <ele>1154.2</ele>
        <time>2015-08-19T07:20:14Z</time>
      </trkpt>
      <trkpt lat="44.82472" lon="6.2352">
        <ele>1153.72</ele>
        <time>2015-08-19T07:20:18Z</time>
      </trkpt>
      <trkpt lat="44.82474" lon="6.23508">
        <ele>1154.2</ele>
        <time>2015-08-19T07:20:24Z</time>
      </trkpt>
      <trkpt lat="44.82484" lon="6.23488">
        <ele>1153.24</ele>
        <time>2015-08-19T07:20:35Z</time>
      </trkpt>
      <trkpt lat="44.82485" lon="6.23479">
        <ele>1153.24</ele>
        <time>2015-08-19T07:20:40Z</time>
      </trkpt>
      <trkpt lat="44.82486" lon="6.23474">
        <ele>1153.24</ele>
        <time>2015-08-19T07:20:43Z</time>
      </trkpt>
      <trkpt lat="44.82487" lon="6.23467">
        <ele>1153.24</ele>
        <time>2015-08-19T07:20:47Z</time>
      </trkpt>
      <trkpt lat="44.82486" lon="6.2346">
        <ele>1153.24</ele>
        <time>2015-08-19T07:20:51Z</time>
      </trkpt>
      <trkpt lat="44.82487" lon="6.2345">
        <ele>1153.24</ele>
        <time>2015-08-19T07:20:56Z</time>
      </trkpt>
      <trkpt lat="44.82486" lon="6.23425">
        <ele>1152.76</ele>
        <time>2015-08-19T07:21:10Z</time>
      </trkpt>
      <trkpt lat="44.82484" lon="6.2341">
        <ele>1153.24</ele>
        <time>2015-08-19T07:21:18Z</time>
      </trkpt>
      <trkpt lat="44.82485" lon="6.23384">
        <ele>1152.76</ele>
        <time>2015-08-19T07:21:32Z</time>
      </trkpt>
      <trkpt lat="44.82486" lon="6.23377">
        <ele>1152.76</ele>
        <time>2015-08-19T07:21:36Z</time>
      </trkpt>
      <trkpt lat="44.82484" lon="6.23365">
        <ele>1153.24</ele>
        <time>2015-08-19T07:21:44Z</time>
      </trkpt>
      <trkpt lat="44.82479" lon="6.23345">
        <ele>1152.76</ele>
        <time>2015-08-19T07:21:58Z</time>
      </trkpt>
      <trkpt lat="44.82478" lon="6.23335">
        <ele>1152.76</ele>
        <time>2015-08-19T07:22:04Z</time>
      </trkpt>
      <trkpt lat="44.82475" lon="6.23326">
        <ele>1152.76</ele>
        <time>2015-08-19T07:22:09Z</time>
      </trkpt>
      <trkpt lat="44.82471" lon="6.23314">
        <ele>1152.76</ele>
        <time>2015-08-19T07:22:17Z</time>
      </trkpt>
      <trkpt lat="44.82465" lon="6.2331">
        <ele>1152.28</ele>
        <time>2015-08-19T07:22:23Z</time>
      </trkpt>
      <trkpt lat="44.82459" lon="6.2331">
        <ele>1152.28</ele>
        <time>2015-08-19T07:22:27Z</time>
      </trkpt>
      <trkpt lat="44.82466" lon="6.23295">
        <ele>1152.28</ele>
        <time>2015-08-19T07:22:39Z</time>
      </trkpt>
      <trkpt lat="44.82467" lon="6.23297">
        <ele>1152.76</ele>
        <time>2015-08-19T07:22:56Z</time>
      </trkpt>
      <trkpt lat="44.82466" lon="6.23295">
        <ele>1152.76</ele>
        <time>2015-08-19T07:23:06Z</time>
      </trkpt>
      <trkpt lat="44.82463" lon="6.23299">
        <ele>1153.24</ele>
        <time>2015-08-19T07:23:15Z</time>
      </trkpt>
      <trkpt lat="44.82458" lon="6.23307">
        <ele>1152.76</ele>
        <time>2015-08-19T07:23:21Z</time>
      </trkpt>
      <trkpt lat="44.82456" lon="6.23313">
        <ele>1152.76</ele>
        <time>2015-08-19T07:23:28Z</time>
      </trkpt>
      <trkpt lat="44.82451" lon="6.23312">
        <ele>1153.24</ele>
        <time>2015-08-19T07:23:33Z</time>
      </trkpt>
      <trkpt lat="44.82441" lon="6.23313">
        <ele>1152.76</ele>
        <time>2015-08-19T07:23:42Z</time>
      </trkpt>
      <trkpt lat="44.8244" lon="6.23311">
        <ele>1152.76</ele>
        <time>2015-08-19T07:23:50Z</time>
      </trkpt>
      <trkpt lat="44.82439" lon="6.23312">
        <ele>1153.72</ele>
        <time>2015-08-19T07:24:00Z</time>
      </trkpt>
      <trkpt lat="44.82425" lon="6.23318">
        <ele>1153.72</ele>
        <time>2015-08-19T07:24:14Z</time>
      </trkpt>
      <trkpt lat="44.82418" lon="6.23319">
        <ele>1153.24</ele>
        <time>2015-08-19T07:24:25Z</time>
      </trkpt>
      <trkpt lat="44.8241" lon="6.2332">
        <ele>1152.76</ele>
        <time>2015-08-19T07:24:46Z</time>
      </trkpt>
      <trkpt lat="44.82392" lon="6.23325">
        <ele>1154.2</ele>
        <time>2015-08-19T07:25:00Z</time>
      </trkpt>
      <trkpt lat="44.82372" lon="6.23322">
        <ele>1154.68</ele>
        <time>2015-08-19T07:25:18Z</time>
      </trkpt>
      <trkpt lat="44.82369" lon="6.23315">
        <ele>1155.64</ele>
        <time>2015-08-19T07:25:22Z</time>
      </trkpt>
      <trkpt lat="44.82366" lon="6.23295">
        <ele>1158.05</ele>
        <time>2015-08-19T07:25:37Z</time>
      </trkpt>
      <trkpt lat="44.82358" lon="6.23299">
        <ele>1159.97</ele>
        <time>2015-08-19T07:25:45Z</time>
      </trkpt>
      <trkpt lat="44.82353" lon="6.23294">
        <ele>1162.37</ele>
        <time>2015-08-19T07:25:55Z</time>
      </trkpt>
      <trkpt lat="44.82351" lon="6.23292">
        <ele>1163.33</ele>
        <time>2015-08-19T07:26:05Z</time>
      </trkpt>
      <trkpt lat="44.82352" lon="6.23277">
        <ele>1162.37</ele>
        <time>2015-08-19T07:26:17Z</time>
      </trkpt>
      <trkpt lat="44.82353" lon="6.23253">
        <ele>1161.41</ele>
        <time>2015-08-19T07:26:31Z</time>
      </trkpt>
      <trkpt lat="44.82351" lon="6.23251">
        <ele>1160.93</ele>
        <time>2015-08-19T07:26:32Z</time>
      </trkpt>
      <trkpt lat="44.8235" lon="6.23244">
        <ele>1161.89</ele>
        <time>2015-08-19T07:26:38Z</time>
      </trkpt>
      <trkpt lat="44.8235" lon="6.23227">
        <ele>1160.45</ele>
        <time>2015-08-19T07:26:48Z</time>
      </trkpt>
      <trkpt lat="44.82348" lon="6.23212">
        <ele>1159.01</ele>
        <time>2015-08-19T07:27:02Z</time>
      </trkpt>
      <trkpt lat="44.82346" lon="6.23194">
        <ele>1158.05</ele>
        <time>2015-08-19T07:27:16Z</time>
      </trkpt>
      <trkpt lat="44.82347" lon="6.2318">
        <ele>1157.56</ele>
        <time>2015-08-19T07:27:30Z</time>
      </trkpt>
      <trkpt lat="44.82342" lon="6.23165">
        <ele>1157.08</ele>
        <time>2015-08-19T07:27:42Z</time>
      </trkpt>
      <trkpt lat="44.82335" lon="6.23146">
        <ele>1157.08</ele>
        <time>2015-08-19T07:27:58Z</time>
      </trkpt>
      <trkpt lat="44.82328" lon="6.23133">
        <ele>1157.08</ele>
        <time>2015-08-19T07:28:11Z</time>
      </trkpt>
      <trkpt lat="44.82323" lon="6.23119">
        <ele>1156.12</ele>
        <time>2015-08-19T07:28:24Z</time>
      </trkpt>
      <trkpt lat="44.82316" lon="6.23107">
        <ele>1156.12</ele>
        <time>2015-08-19T07:28:37Z</time>
      </trkpt>
      <trkpt lat="44.82311" lon="6.23092">
        <ele>1156.6</ele>
        <time>2015-08-19T07:28:51Z</time>
      </trkpt>
      <trkpt lat="44.82309" lon="6.23081">
        <ele>1155.64</ele>
        <time>2015-08-19T07:29:05Z</time>
      </trkpt>
      <trkpt lat="44.82301" lon="6.23067">
        <ele>1154.68</ele>
        <time>2015-08-19T07:29:18Z</time>
      </trkpt>
      <trkpt lat="44.82295" lon="6.23049">
        <ele>1154.68</ele>
        <time>2015-08-19T07:29:32Z</time>
      </trkpt>
      <trkpt lat="44.82289" lon="6.23034">
        <ele>1152.76</ele>
        <time>2015-08-19T07:29:47Z</time>
      </trkpt>
      <trkpt lat="44.82286" lon="6.23017">
        <ele>1150.35</ele>
        <time>2015-08-19T07:30:02Z</time>
      </trkpt>
      <trkpt lat="44.82284" lon="6.23009">
        <ele>1151.32</ele>
        <time>2015-08-19T07:30:10Z</time>
      </trkpt>
      <trkpt lat="44.82276" lon="6.22995">
        <ele>1150.35</ele>
        <time>2015-08-19T07:30:26Z</time>
      </trkpt>
      <trkpt lat="44.82272" lon="6.22986">
        <ele>1149.39</ele>
        <time>2015-08-19T07:30:38Z</time>
      </trkpt>
      <trkpt lat="44.82265" lon="6.22976">
        <ele>1149.39</ele>
        <time>2015-08-19T07:30:50Z</time>
      </trkpt>
      <trkpt lat="44.82253" lon="6.22968">
        <ele>1149.39</ele>
        <time>2015-08-19T07:31:04Z</time>
      </trkpt>
      <trkpt lat="44.82248" lon="6.22951">
        <ele>1149.39</ele>
        <time>2015-08-19T07:31:17Z</time>
      </trkpt>
      <trkpt lat="44.82246" lon="6.22944">
        <ele>1149.87</ele>
        <time>2015-08-19T07:31:22Z</time>
      </trkpt>
      <trkpt lat="44.82238" lon="6.22932">
        <ele>1149.87</ele>
        <time>2015-08-19T07:31:36Z</time>
      </trkpt>
      <trkpt lat="44.82236" lon="6.22927">
        <ele>1148.91</ele>
        <time>2015-08-19T07:31:49Z</time>
      </trkpt>
      <trkpt lat="44.8223" lon="6.22913">
        <ele>1149.39</ele>
        <time>2015-08-19T07:32:02Z</time>
      </trkpt>
      <trkpt lat="44.82228" lon="6.22913">
        <ele>1148.91</ele>
        <time>2015-08-19T07:32:13Z</time>
      </trkpt>
      <trkpt lat="44.82229" lon="6.2291">
        <ele>1148.91</ele>
        <time>2015-08-19T07:32:27Z</time>
      </trkpt>
      <trkpt lat="44.82229" lon="6.22911">
        <ele>1148.91</ele>
        <time>2015-08-19T07:32:47Z</time>
      </trkpt>
      <trkpt lat="44.8223" lon="6.22914">
        <ele>1148.91</ele>
        <time>2015-08-19T07:32:59Z</time>
      </trkpt>
      <trkpt lat="44.82231" lon="6.22917">
        <ele>1149.39</ele>
        <time>2015-08-19T07:33:22Z</time>
      </trkpt>
      <trkpt lat="44.82232" lon="6.22913">
        <ele>1149.87</ele>
        <time>2015-08-19T07:33:44Z</time>
      </trkpt>
      <trkpt lat="44.82226" lon="6.22895">
        <ele>1149.87</ele>
        <time>2015-08-19T07:33:56Z</time>
      </trkpt>
      <trkpt lat="44.82225" lon="6.22888">
        <ele>1150.84</ele>
        <time>2015-08-19T07:34:01Z</time>
      </trkpt>
      <trkpt lat="44.82223" lon="6.22874">
        <ele>1151.8</ele>
        <time>2015-08-19T07:34:12Z</time>
      </trkpt>
      <trkpt lat="44.82213" lon="6.22854">
        <ele>1153.72</ele>
        <time>2015-08-19T07:34:28Z</time>
      </trkpt>
      <trkpt lat="44.82207" lon="6.22839">
        <ele>1154.68</ele>
        <time>2015-08-19T07:34:41Z</time>
      </trkpt>
      <trkpt lat="44.82201" lon="6.22824">
        <ele>1154.68</ele>
        <time>2015-08-19T07:34:56Z</time>
      </trkpt>
      <trkpt lat="44.82193" lon="6.22808">
        <ele>1154.68</ele>
        <time>2015-08-19T07:35:10Z</time>
      </trkpt>
      <trkpt lat="44.82191" lon="6.22804">
        <ele>1155.16</ele>
        <time>2015-08-19T07:35:13Z</time>
      </trkpt>
      <trkpt lat="44.82183" lon="6.22786">
        <ele>1155.64</ele>
        <time>2015-08-19T07:35:29Z</time>
      </trkpt>
      <trkpt lat="44.8218" lon="6.2278">
        <ele>1155.64</ele>
        <time>2015-08-19T07:35:34Z</time>
      </trkpt>
      <trkpt lat="44.82179" lon="6.22779">
        <ele>1155.64</ele>
        <time>2015-08-19T07:35:35Z</time>
      </trkpt>
      <trkpt lat="44.82168" lon="6.2276">
        <ele>1155.64</ele>
        <time>2015-08-19T07:35:51Z</time>
      </trkpt>
      <trkpt lat="44.82165" lon="6.22749">
        <ele>1156.6</ele>
        <time>2015-08-19T07:36:04Z</time>
      </trkpt>
      <trkpt lat="44.82165" lon="6.2275">
        <ele>1157.08</ele>
        <time>2015-08-19T07:36:09Z</time>
      </trkpt>
      <trkpt lat="44.8216" lon="6.22741">
        <ele>1157.08</ele>
        <time>2015-08-19T07:36:17Z</time>
      </trkpt>
      <trkpt lat="44.82157" lon="6.22736">
        <ele>1157.56</ele>
        <time>2015-08-19T07:36:21Z</time>
      </trkpt>
      <trkpt lat="44.82157" lon="6.22734">
        <ele>1157.56</ele>
        <time>2015-08-19T07:36:22Z</time>
      </trkpt>
      <trkpt lat="44.82144" lon="6.22718">
        <ele>1157.56</ele>
        <time>2015-08-19T07:36:37Z</time>
      </trkpt>
      <trkpt lat="44.82136" lon="6.22703">
        <ele>1159.01</ele>
        <time>2015-08-19T07:36:52Z</time>
      </trkpt>
      <trkpt lat="44.82133" lon="6.227">
        <ele>1159.01</ele>
        <time>2015-08-19T07:36:55Z</time>
      </trkpt>
      <trkpt lat="44.82122" lon="6.22688">
        <ele>1159.97</ele>
        <time>2015-08-19T07:37:11Z</time>
      </trkpt>
      <trkpt lat="44.82114" lon="6.22677">
        <ele>1160.93</ele>
        <time>2015-08-19T07:37:26Z</time>
      </trkpt>
      <trkpt lat="44.821" lon="6.22664">
        <ele>1161.41</ele>
        <time>2015-08-19T07:37:41Z</time>
      </trkpt>
      <trkpt lat="44.82095" lon="6.22651">
        <ele>1161.41</ele>
        <time>2015-08-19T07:37:54Z</time>
      </trkpt>
      <trkpt lat="44.82076" lon="6.2264">
        <ele>1161.41</ele>
        <time>2015-08-19T07:38:07Z</time>
      </trkpt>
      <trkpt lat="44.82076" lon="6.22618">
        <ele>1162.85</ele>
        <time>2015-08-19T07:38:22Z</time>
      </trkpt>
      <trkpt lat="44.82077" lon="6.22605">
        <ele>1163.33</ele>
        <time>2015-08-19T07:38:31Z</time>
      </trkpt>
      <trkpt lat="44.82076" lon="6.22603">
        <ele>1163.33</ele>
        <time>2015-08-19T07:38:33Z</time>
      </trkpt>
      <trkpt lat="44.82077" lon="6.22585">
        <ele>1165.26</ele>
        <time>2015-08-19T07:38:43Z</time>
      </trkpt>
      <trkpt lat="44.82079" lon="6.22558">
        <ele>1166.7</ele>
        <time>2015-08-19T07:38:59Z</time>
      </trkpt>
      <trkpt lat="44.82075" lon="6.22536">
        <ele>1165.26</ele>
        <time>2015-08-19T07:39:16Z</time>
      </trkpt>
      <trkpt lat="44.82075" lon="6.22523">
        <ele>1165.26</ele>
        <time>2015-08-19T07:39:25Z</time>
      </trkpt>
      <trkpt lat="44.82077" lon="6.22504">
        <ele>1164.77</ele>
        <time>2015-08-19T07:39:38Z</time>
      </trkpt>
      <trkpt lat="44.82074" lon="6.22481">
        <ele>1165.74</ele>
        <time>2015-08-19T07:39:54Z</time>
      </trkpt>
      <trkpt lat="44.82066" lon="6.22466">
        <ele>1165.74</ele>
        <time>2015-08-19T07:40:08Z</time>
      </trkpt>
      <trkpt lat="44.8206" lon="6.22441">
        <ele>1163.81</ele>
        <time>2015-08-19T07:40:26Z</time>
      </trkpt>
      <trkpt lat="44.82057" lon="6.22431">
        <ele>1164.29</ele>
        <time>2015-08-19T07:40:32Z</time>
      </trkpt>
      <trkpt lat="44.82056" lon="6.22423">
        <ele>1164.29</ele>
        <time>2015-08-19T07:40:38Z</time>
      </trkpt>
      <trkpt lat="44.82054" lon="6.22419">
        <ele>1164.29</ele>
        <time>2015-08-19T07:40:41Z</time>
      </trkpt>
      <trkpt lat="44.82049" lon="6.22401">
        <ele>1163.81</ele>
        <time>2015-08-19T07:40:55Z</time>
      </trkpt>
      <trkpt lat="44.82041" lon="6.22385">
        <ele>1162.85</ele>
        <time>2015-08-19T07:41:10Z</time>
      </trkpt>
      <trkpt lat="44.82034" lon="6.2237">
        <ele>1161.89</ele>
        <time>2015-08-19T07:41:25Z</time>
      </trkpt>
      <trkpt lat="44.82031" lon="6.22348">
        <ele>1162.37</ele>
        <time>2015-08-19T07:41:39Z</time>
      </trkpt>
      <trkpt lat="44.82024" lon="6.22326">
        <ele>1162.37</ele>
        <time>2015-08-19T07:41:55Z</time>
      </trkpt>
      <trkpt lat="44.82025" lon="6.22324">
        <ele>1162.37</ele>
        <time>2015-08-19T07:41:57Z</time>
      </trkpt>
      <trkpt lat="44.82029" lon="6.22316">
        <ele>1162.85</ele>
        <time>2015-08-19T07:42:10Z</time>
      </trkpt>
      <trkpt lat="44.82032" lon="6.22303">
        <ele>1163.81</ele>
        <time>2015-08-19T07:42:27Z</time>
      </trkpt>
      <trkpt lat="44.8203" lon="6.22281">
        <ele>1162.85</ele>
        <time>2015-08-19T07:42:43Z</time>
      </trkpt>
      <trkpt lat="44.82032" lon="6.22285">
        <ele>1162.85</ele>
        <time>2015-08-19T07:43:03Z</time>
      </trkpt>
      <trkpt lat="44.82034" lon="6.22285">
        <ele>1162.85</ele>
        <time>2015-08-19T07:43:22Z</time>
      </trkpt>
      <trkpt lat="44.8203" lon="6.22286">
        <ele>1162.85</ele>
        <time>2015-08-19T07:43:44Z</time>
      </trkpt>
      <trkpt lat="44.82033" lon="6.22288">
        <ele>1163.33</ele>
        <time>2015-08-19T07:44:16Z</time>
      </trkpt>
      <trkpt lat="44.8203" lon="6.22287">
        <ele>1163.33</ele>
        <time>2015-08-19T07:44:38Z</time>
      </trkpt>
      <trkpt lat="44.82031" lon="6.22287">
        <ele>1163.33</ele>
        <time>2015-08-19T07:44:54Z</time>
      </trkpt>
      <trkpt lat="44.8203" lon="6.22283">
        <ele>1163.33</ele>
        <time>2015-08-19T07:45:10Z</time>
      </trkpt>
      <trkpt lat="44.82028" lon="6.22278">
        <ele>1163.81</ele>
        <time>2015-08-19T07:45:14Z</time>
      </trkpt>
      <trkpt lat="44.82024" lon="6.22263">
        <ele>1162.37</ele>
        <time>2015-08-19T07:45:28Z</time>
      </trkpt>
      <trkpt lat="44.82023" lon="6.22254">
        <ele>1161.41</ele>
        <time>2015-08-19T07:45:36Z</time>
      </trkpt>
      <trkpt lat="44.82023" lon="6.22227">
        <ele>1159.97</ele>
        <time>2015-08-19T07:45:53Z</time>
      </trkpt>
      <trkpt lat="44.82028" lon="6.22202">
        <ele>1158.05</ele>
        <time>2015-08-19T07:46:12Z</time>
      </trkpt>
      <trkpt lat="44.82027" lon="6.22198">
        <ele>1157.56</ele>
        <time>2015-08-19T07:46:17Z</time>
      </trkpt>
      <trkpt lat="44.82025" lon="6.22194">
        <ele>1157.08</ele>
        <time>2015-08-19T07:46:20Z</time>
      </trkpt>
      <trkpt lat="44.82024" lon="6.2218">
        <ele>1156.12</ele>
        <time>2015-08-19T07:46:32Z</time>
      </trkpt>
      <trkpt lat="44.8202" lon="6.22157">
        <ele>1153.24</ele>
        <time>2015-08-19T07:46:48Z</time>
      </trkpt>
      <trkpt lat="44.82016" lon="6.22133">
        <ele>1151.32</ele>
        <time>2015-08-19T07:47:05Z</time>
      </trkpt>
      <trkpt lat="44.82016" lon="6.2212">
        <ele>1151.8</ele>
        <time>2015-08-19T07:47:14Z</time>
      </trkpt>
      <trkpt lat="44.82018" lon="6.22115">
        <ele>1151.8</ele>
        <time>2015-08-19T07:47:17Z</time>
      </trkpt>
      <trkpt lat="44.82014" lon="6.22097">
        <ele>1151.32</ele>
        <time>2015-08-19T07:47:31Z</time>
      </trkpt>
      <trkpt lat="44.82008" lon="6.22078">
        <ele>1151.8</ele>
        <time>2015-08-19T07:47:45Z</time>
      </trkpt>
      <trkpt lat="44.82002" lon="6.22062">
        <ele>1150.35</ele>
        <time>2015-08-19T07:48:00Z</time>
      </trkpt>
      <trkpt lat="44.81997" lon="6.22049">
        <ele>1149.39</ele>
        <time>2015-08-19T07:48:10Z</time>
      </trkpt>
      <trkpt lat="44.81992" lon="6.22029">
        <ele>1148.43</ele>
        <time>2015-08-19T07:48:24Z</time>
      </trkpt>
      <trkpt lat="44.81992" lon="6.22008">
        <ele>1148.91</ele>
        <time>2015-08-19T07:48:39Z</time>
      </trkpt>
      <trkpt lat="44.81995" lon="6.21991">
        <ele>1148.43</ele>
        <time>2015-08-19T07:48:50Z</time>
      </trkpt>
      <trkpt lat="44.81993" lon="6.2198">
        <ele>1147.95</ele>
        <time>2015-08-19T07:49:04Z</time>
      </trkpt>
      <trkpt lat="44.81993" lon="6.21963">
        <ele>1145.07</ele>
        <time>2015-08-19T07:49:19Z</time>
      </trkpt>
      <trkpt lat="44.81993" lon="6.21951">
        <ele>1142.66</ele>
        <time>2015-08-19T07:49:32Z</time>
      </trkpt>
      <trkpt lat="44.81997" lon="6.21943">
        <ele>1140.74</ele>
        <time>2015-08-19T07:49:47Z</time>
      </trkpt>
      <trkpt lat="44.81996" lon="6.21931">
        <ele>1138.82</ele>
        <time>2015-08-19T07:50:00Z</time>
      </trkpt>
      <trkpt lat="44.81995" lon="6.21929">
        <ele>1138.82</ele>
        <time>2015-08-19T07:50:05Z</time>
      </trkpt>
      <trkpt lat="44.81985" lon="6.21913">
        <ele>1139.78</ele>
        <time>2015-08-19T07:50:22Z</time>
      </trkpt>
      <trkpt lat="44.8198" lon="6.219">
        <ele>1140.74</ele>
        <time>2015-08-19T07:50:34Z</time>
      </trkpt>
      <trkpt lat="44.81975" lon="6.21879">
        <ele>1142.18</ele>
        <time>2015-08-19T07:50:49Z</time>
      </trkpt>
      <trkpt lat="44.81973" lon="6.21852">
        <ele>1142.18</ele>
        <time>2015-08-19T07:51:06Z</time>
      </trkpt>
      <trkpt lat="44.81972" lon="6.21846">
        <ele>1143.14</ele>
        <time>2015-08-19T07:51:11Z</time>
      </trkpt>
      <trkpt lat="44.8197" lon="6.21844">
        <ele>1143.14</ele>
        <time>2015-08-19T07:51:13Z</time>
      </trkpt>
      <trkpt lat="44.81967" lon="6.21841">
        <ele>1144.11</ele>
        <time>2015-08-19T07:51:17Z</time>
      </trkpt>
      <trkpt lat="44.81972" lon="6.21827">
        <ele>1143.14</ele>
        <time>2015-08-19T07:51:33Z</time>
      </trkpt>
      <trkpt lat="44.81973" lon="6.21817">
        <ele>1142.66</ele>
        <time>2015-08-19T07:51:40Z</time>
      </trkpt>
      <trkpt lat="44.81976" lon="6.21796">
        <ele>1141.22</ele>
        <time>2015-08-19T07:51:55Z</time>
      </trkpt>
      <trkpt lat="44.81975" lon="6.21791">
        <ele>1140.74</ele>
        <time>2015-08-19T07:51:59Z</time>
      </trkpt>
      <trkpt lat="44.81971" lon="6.21767">
        <ele>1139.78</ele>
        <time>2015-08-19T07:52:14Z</time>
      </trkpt>
      <trkpt lat="44.8197" lon="6.21765">
        <ele>1139.78</ele>
        <time>2015-08-19T07:52:15Z</time>
      </trkpt>
      <trkpt lat="44.81968" lon="6.2174">
        <ele>1138.82</ele>
        <time>2015-08-19T07:52:31Z</time>
      </trkpt>
      <trkpt lat="44.81966" lon="6.21737">
        <ele>1137.86</ele>
        <time>2015-08-19T07:52:34Z</time>
      </trkpt>
      <trkpt lat="44.81965" lon="6.21731">
        <ele>1137.38</ele>
        <time>2015-08-19T07:52:38Z</time>
      </trkpt>
      <trkpt lat="44.81963" lon="6.2172">
        <ele>1135.94</ele>
        <time>2015-08-19T07:52:52Z</time>
      </trkpt>
      <trkpt lat="44.81965" lon="6.21718">
        <ele>1135.94</ele>
        <time>2015-08-19T07:53:09Z</time>
      </trkpt>
      <trkpt lat="44.81962" lon="6.21704">
        <ele>1134.97</ele>
        <time>2015-08-19T07:53:21Z</time>
      </trkpt>
      <trkpt lat="44.81962" lon="6.21687">
        <ele>1134.01</ele>
        <time>2015-08-19T07:53:32Z</time>
      </trkpt>
      <trkpt lat="44.81963" lon="6.21675">
        <ele>1134.01</ele>
        <time>2015-08-19T07:53:39Z</time>
      </trkpt>
      <trkpt lat="44.81963" lon="6.21665">
        <ele>1134.01</ele>
        <time>2015-08-19T07:53:45Z</time>
      </trkpt>
      <trkpt lat="44.81964" lon="6.21634">
        <ele>1133.53</ele>
        <time>2015-08-19T07:54:03Z</time>
      </trkpt>
      <trkpt lat="44.81961" lon="6.21612">
        <ele>1133.05</ele>
        <time>2015-08-19T07:54:17Z</time>
      </trkpt>
      <trkpt lat="44.81952" lon="6.21586">
        <ele>1132.57</ele>
        <time>2015-08-19T07:54:33Z</time>
      </trkpt>
      <trkpt lat="44.81943" lon="6.21562">
        <ele>1132.09</ele>
        <time>2015-08-19T07:54:49Z</time>
      </trkpt>
      <trkpt lat="44.81933" lon="6.21533">
        <ele>1131.61</ele>
        <time>2015-08-19T07:55:07Z</time>
      </trkpt>
      <trkpt lat="44.8192" lon="6.21511">
        <ele>1131.61</ele>
        <time>2015-08-19T07:55:23Z</time>
      </trkpt>
      <trkpt lat="44.81904" lon="6.21492">
        <ele>1131.61</ele>
        <time>2015-08-19T07:55:40Z</time>
      </trkpt>
      <trkpt lat="44.81887" lon="6.21473">
        <ele>1130.65</ele>
        <time>2015-08-19T07:55:58Z</time>
      </trkpt>
      <trkpt lat="44.81883" lon="6.21464">
        <ele>1130.65</ele>
        <time>2015-08-19T07:56:04Z</time>
      </trkpt>
      <trkpt lat="44.81884" lon="6.21449">
        <ele>1130.65</ele>
        <time>2015-08-19T07:56:12Z</time>
      </trkpt>
      <trkpt lat="44.81884" lon="6.21442">
        <ele>1130.65</ele>
        <time>2015-08-19T07:56:16Z</time>
      </trkpt>
      <trkpt lat="44.81884" lon="6.21428">
        <ele>1130.65</ele>
        <time>2015-08-19T07:56:24Z</time>
      </trkpt>
      <trkpt lat="44.81887" lon="6.21404">
        <ele>1130.65</ele>
        <time>2015-08-19T07:56:38Z</time>
      </trkpt>
      <trkpt lat="44.81887" lon="6.21374">
        <ele>1130.65</ele>
        <time>2015-08-19T07:56:55Z</time>
      </trkpt>
      <trkpt lat="44.81887" lon="6.21369">
        <ele>1130.17</ele>
        <time>2015-08-19T07:56:58Z</time>
      </trkpt>
      <trkpt lat="44.81887" lon="6.2136">
        <ele>1129.69</ele>
        <time>2015-08-19T07:57:03Z</time>
      </trkpt>
      <trkpt lat="44.81881" lon="6.21336">
        <ele>1129.69</ele>
        <time>2015-08-19T07:57:18Z</time>
      </trkpt>
      <trkpt lat="44.81876" lon="6.21322">
        <ele>1131.13</ele>
        <time>2015-08-19T07:57:28Z</time>
      </trkpt>
      <trkpt lat="44.81876" lon="6.21319">
        <ele>1131.61</ele>
        <time>2015-08-19T07:57:30Z</time>
      </trkpt>
      <trkpt lat="44.81871" lon="6.21308">
        <ele>1132.09</ele>
        <time>2015-08-19T07:57:39Z</time>
      </trkpt>
      <trkpt lat="44.81868" lon="6.21304">
        <ele>1131.61</ele>
        <time>2015-08-19T07:57:43Z</time>
      </trkpt>
      <trkpt lat="44.81878" lon="6.21286">
        <ele>1131.61</ele>
        <time>2015-08-19T07:57:57Z</time>
      </trkpt>
      <trkpt lat="44.81883" lon="6.21268">
        <ele>1129.69</ele>
        <time>2015-08-19T07:58:09Z</time>
      </trkpt>
      <trkpt lat="44.81886" lon="6.21242">
        <ele>1126.32</ele>
        <time>2015-08-19T07:58:26Z</time>
      </trkpt>
      <trkpt lat="44.81886" lon="6.21241">
        <ele>1126.32</ele>
        <time>2015-08-19T07:58:27Z</time>
      </trkpt>
      <trkpt lat="44.81893" lon="6.21221">
        <ele>1126.32</ele>
        <time>2015-08-19T07:58:44Z</time>
      </trkpt>
      <trkpt lat="44.81893" lon="6.21216">
        <ele>1126.32</ele>
        <time>2015-08-19T07:58:47Z</time>
      </trkpt>
      <trkpt lat="44.81896" lon="6.21204">
        <ele>1126.32</ele>
        <time>2015-08-19T07:58:57Z</time>
      </trkpt>
      <trkpt lat="44.81897" lon="6.21197">
        <ele>1126.32</ele>
        <time>2015-08-19T07:59:02Z</time>
      </trkpt>
      <trkpt lat="44.81897" lon="6.21194">
        <ele>1123.92</ele>
        <time>2015-08-19T07:59:04Z</time>
      </trkpt>
      <trkpt lat="44.81896" lon="6.21173">
        <ele>1122.48</ele>
        <time>2015-08-19T07:59:18Z</time>
      </trkpt>
      <trkpt lat="44.81893" lon="6.21145">
        <ele>1122.48</ele>
        <time>2015-08-19T07:59:35Z</time>
      </trkpt>
      <trkpt lat="44.81891" lon="6.21139">
        <ele>1122.96</ele>
        <time>2015-08-19T07:59:39Z</time>
      </trkpt>
      <trkpt lat="44.8189" lon="6.2112">
        <ele>1122.96</ele>
        <time>2015-08-19T07:59:50Z</time>
      </trkpt>
      <trkpt lat="44.81887" lon="6.21109">
        <ele>1122.48</ele>
        <time>2015-08-19T07:59:57Z</time>
      </trkpt>
      <trkpt lat="44.81884" lon="6.21086">
        <ele>1121.52</ele>
        <time>2015-08-19T08:00:12Z</time>
      </trkpt>
      <trkpt lat="44.81882" lon="6.21067">
        <ele>1122</ele>
        <time>2015-08-19T08:00:24Z</time>
      </trkpt>
      <trkpt lat="44.8188" lon="6.21051">
        <ele>1122.48</ele>
        <time>2015-08-19T08:00:36Z</time>
      </trkpt>
      <trkpt lat="44.81878" lon="6.21028">
        <ele>1122.48</ele>
        <time>2015-08-19T08:00:49Z</time>
      </trkpt>
      <trkpt lat="44.81881" lon="6.21002">
        <ele>1122.96</ele>
        <time>2015-08-19T08:01:05Z</time>
      </trkpt>
      <trkpt lat="44.81882" lon="6.20987">
        <ele>1122.96</ele>
        <time>2015-08-19T08:01:14Z</time>
      </trkpt>
      <trkpt lat="44.81883" lon="6.2098">
        <ele>1123.44</ele>
        <time>2015-08-19T08:01:18Z</time>
      </trkpt>
      <trkpt lat="44.81887" lon="6.20966">
        <ele>1123.44</ele>
        <time>2015-08-19T08:01:26Z</time>
      </trkpt>
      <trkpt lat="44.81888" lon="6.2096">
        <ele>1123.44</ele>
        <time>2015-08-19T08:01:30Z</time>
      </trkpt>
      <trkpt lat="44.8189" lon="6.20939">
        <ele>1122.96</ele>
        <time>2015-08-19T08:01:47Z</time>
      </trkpt>
      <trkpt lat="44.8189" lon="6.20926">
        <ele>1122.96</ele>
        <time>2015-08-19T08:02:01Z</time>
      </trkpt>
      <trkpt lat="44.81889" lon="6.20898">
        <ele>1122</ele>
        <time>2015-08-19T08:02:18Z</time>
      </trkpt>
      <trkpt lat="44.8189" lon="6.20873">
        <ele>1121.03</ele>
        <time>2015-08-19T08:02:33Z</time>
      </trkpt>
      <trkpt lat="44.8189" lon="6.20846">
        <ele>1120.55</ele>
        <time>2015-08-19T08:02:48Z</time>
      </trkpt>
      <trkpt lat="44.8189" lon="6.20819">
        <ele>1119.11</ele>
        <time>2015-08-19T08:03:04Z</time>
      </trkpt>
      <trkpt lat="44.81894" lon="6.20798">
        <ele>1116.71</ele>
        <time>2015-08-19T08:03:18Z</time>
      </trkpt>
      <trkpt lat="44.81897" lon="6.20785">
        <ele>1115.27</ele>
        <time>2015-08-19T08:03:33Z</time>
      </trkpt>
      <trkpt lat="44.81898" lon="6.20786">
        <ele>1115.75</ele>
        <time>2015-08-19T08:03:57Z</time>
      </trkpt>
      <trkpt lat="44.81898" lon="6.2078">
        <ele>1115.75</ele>
        <time>2015-08-19T08:04:14Z</time>
      </trkpt>
      <trkpt lat="44.81894" lon="6.20768">
        <ele>1114.31</ele>
        <time>2015-08-19T08:04:30Z</time>
      </trkpt>
      <trkpt lat="44.81891" lon="6.20761">
        <ele>1114.79</ele>
        <time>2015-08-19T08:04:42Z</time>
      </trkpt>
      <trkpt lat="44.81895" lon="6.20761">
        <ele>1114.79</ele>
        <time>2015-08-19T08:05:00Z</time>
      </trkpt>
      <trkpt lat="44.81898" lon="6.20762">
        <ele>1114.79</ele>
        <time>2015-08-19T08:05:21Z</time>
      </trkpt>
      <trkpt lat="44.81895" lon="6.20766">
        <ele>1115.27</ele>
        <time>2015-08-19T08:05:37Z</time>
      </trkpt>
      <trkpt lat="44.81895" lon="6.20768">
        <ele>1115.27</ele>
        <time>2015-08-19T08:05:56Z</time>
      </trkpt>
      <trkpt lat="44.81889" lon="6.20769">
        <ele>1115.27</ele>
        <time>2015-08-19T08:06:13Z</time>
      </trkpt>
      <trkpt lat="44.81885" lon="6.20752">
        <ele>1114.79</ele>
        <time>2015-08-19T08:06:28Z</time>
      </trkpt>
      <trkpt lat="44.81881" lon="6.20744">
        <ele>1113.34</ele>
        <time>2015-08-19T08:06:35Z</time>
      </trkpt>
      <trkpt lat="44.81879" lon="6.20736">
        <ele>1113.34</ele>
        <time>2015-08-19T08:06:40Z</time>
      </trkpt>
      <trkpt lat="44.81875" lon="6.20714">
        <ele>1109.98</ele>
        <time>2015-08-19T08:06:54Z</time>
      </trkpt>
      <trkpt lat="44.81875" lon="6.20714">
        <ele>1109.98</ele>
        <time>2015-08-19T08:06:55Z</time>
      </trkpt>
      <trkpt lat="44.81874" lon="6.20711">
        <ele>1112.38</ele>
        <time>2015-08-19T08:07:00Z</time>
      </trkpt>
      <trkpt lat="44.81872" lon="6.20694">
        <ele>1112.38</ele>
        <time>2015-08-19T08:07:12Z</time>
      </trkpt>
      <trkpt lat="44.81869" lon="6.20682">
        <ele>1110.94</ele>
        <time>2015-08-19T08:07:21Z</time>
      </trkpt>
      <trkpt lat="44.81867" lon="6.20653">
        <ele>1110.46</ele>
        <time>2015-08-19T08:07:36Z</time>
      </trkpt>
      <trkpt lat="44.81865" lon="6.20626">
        <ele>1109.98</ele>
        <time>2015-08-19T08:07:51Z</time>
      </trkpt>
      <trkpt lat="44.81867" lon="6.20604">
        <ele>1109.5</ele>
        <time>2015-08-19T08:08:05Z</time>
      </trkpt>
      <trkpt lat="44.81869" lon="6.20576">
        <ele>1109.5</ele>
        <time>2015-08-19T08:08:20Z</time>
      </trkpt>
      <trkpt lat="44.81873" lon="6.20548">
        <ele>1108.54</ele>
        <time>2015-08-19T08:08:35Z</time>
      </trkpt>
      <trkpt lat="44.81873" lon="6.20531">
        <ele>1108.54</ele>
        <time>2015-08-19T08:08:45Z</time>
      </trkpt>
      <trkpt lat="44.81872" lon="6.20507">
        <ele>1108.06</ele>
        <time>2015-08-19T08:09:00Z</time>
      </trkpt>
      <trkpt lat="44.81866" lon="6.20479">
        <ele>1107.58</ele>
        <time>2015-08-19T08:09:15Z</time>
      </trkpt>
      <trkpt lat="44.81856" lon="6.20451">
        <ele>1107.58</ele>
        <time>2015-08-19T08:09:31Z</time>
      </trkpt>
      <trkpt lat="44.81848" lon="6.20426">
        <ele>1108.54</ele>
        <time>2015-08-19T08:09:47Z</time>
      </trkpt>
      <trkpt lat="44.81844" lon="6.20401">
        <ele>1108.54</ele>
        <time>2015-08-19T08:10:01Z</time>
      </trkpt>
      <trkpt lat="44.81845" lon="6.20377">
        <ele>1107.1</ele>
        <time>2015-08-19T08:10:14Z</time>
      </trkpt>
      <trkpt lat="44.81847" lon="6.20364">
        <ele>1106.13</ele>
        <time>2015-08-19T08:10:21Z</time>
      </trkpt>
      <trkpt lat="44.81849" lon="6.20339">
        <ele>1105.65</ele>
        <time>2015-08-19T08:10:35Z</time>
      </trkpt>
      <trkpt lat="44.81851" lon="6.20313">
        <ele>1104.69</ele>
        <time>2015-08-19T08:10:50Z</time>
      </trkpt>
      <trkpt lat="44.81854" lon="6.20298">
        <ele>1104.21</ele>
        <time>2015-08-19T08:11:00Z</time>
      </trkpt>
      <trkpt lat="44.81855" lon="6.20281">
        <ele>1104.69</ele>
        <time>2015-08-19T08:11:07Z</time>
      </trkpt>
      <trkpt lat="44.81845" lon="6.20269">
        <ele>1105.65</ele>
        <time>2015-08-19T08:11:18Z</time>
      </trkpt>
      <trkpt lat="44.81838" lon="6.20253">
        <ele>1106.13</ele>
        <time>2015-08-19T08:11:29Z</time>
      </trkpt>
      <trkpt lat="44.81839" lon="6.20223">
        <ele>1105.65</ele>
        <time>2015-08-19T08:11:45Z</time>
      </trkpt>
      <trkpt lat="44.81829" lon="6.20204">
        <ele>1107.1</ele>
        <time>2015-08-19T08:12:01Z</time>
      </trkpt>
      <trkpt lat="44.81819" lon="6.20188">
        <ele>1108.54</ele>
        <time>2015-08-19T08:12:15Z</time>
      </trkpt>
      <trkpt lat="44.81818" lon="6.20187">
        <ele>1108.54</ele>
        <time>2015-08-19T08:12:16Z</time>
      </trkpt>
      <trkpt lat="44.81806" lon="6.20176">
        <ele>1107.58</ele>
        <time>2015-08-19T08:12:31Z</time>
      </trkpt>
      <trkpt lat="44.81804" lon="6.20172">
        <ele>1106.61</ele>
        <time>2015-08-19T08:12:36Z</time>
      </trkpt>
      <trkpt lat="44.81799" lon="6.2017">
        <ele>1106.13</ele>
        <time>2015-08-19T08:12:41Z</time>
      </trkpt>
      <trkpt lat="44.81797" lon="6.20169">
        <ele>1106.13</ele>
        <time>2015-08-19T08:12:42Z</time>
      </trkpt>
      <trkpt lat="44.81793" lon="6.20158">
        <ele>1104.21</ele>
        <time>2015-08-19T08:12:50Z</time>
      </trkpt>
      <trkpt lat="44.81793" lon="6.20153">
        <ele>1103.73</ele>
        <time>2015-08-19T08:12:53Z</time>
      </trkpt>
      <trkpt lat="44.8179" lon="6.20145">
        <ele>1103.25</ele>
        <time>2015-08-19T08:13:00Z</time>
      </trkpt>
      <trkpt lat="44.81777" lon="6.2012">
        <ele>1103.25</ele>
        <time>2015-08-19T08:13:17Z</time>
      </trkpt>
      <trkpt lat="44.81777" lon="6.20111">
        <ele>1103.25</ele>
        <time>2015-08-19T08:13:30Z</time>
      </trkpt>
      <trkpt lat="44.81775" lon="6.20108">
        <ele>1102.77</ele>
        <time>2015-08-19T08:13:33Z</time>
      </trkpt>
      <trkpt lat="44.81775" lon="6.20105">
        <ele>1102.77</ele>
        <time>2015-08-19T08:13:35Z</time>
      </trkpt>
      <trkpt lat="44.81772" lon="6.20092">
        <ele>1101.81</ele>
        <time>2015-08-19T08:13:43Z</time>
      </trkpt>
      <trkpt lat="44.8177" lon="6.20087">
        <ele>1102.29</ele>
        <time>2015-08-19T08:13:47Z</time>
      </trkpt>
      <trkpt lat="44.81761" lon="6.2007">
        <ele>1101.33</ele>
        <time>2015-08-19T08:14:01Z</time>
      </trkpt>
      <trkpt lat="44.81752" lon="6.20051">
        <ele>1100.85</ele>
        <time>2015-08-19T08:14:16Z</time>
      </trkpt>
      <trkpt lat="44.81739" lon="6.20033">
        <ele>1100.37</ele>
        <time>2015-08-19T08:14:30Z</time>
      </trkpt>
      <trkpt lat="44.81724" lon="6.20015">
        <ele>1099.89</ele>
        <time>2015-08-19T08:14:47Z</time>
      </trkpt>
      <trkpt lat="44.81721" lon="6.20005">
        <ele>1099.89</ele>
        <time>2015-08-19T08:14:55Z</time>
      </trkpt>
      <trkpt lat="44.81719" lon="6.19974">
        <ele>1098.92</ele>
        <time>2015-08-19T08:15:12Z</time>
      </trkpt>
      <trkpt lat="44.81719" lon="6.1995">
        <ele>1097.96</ele>
        <time>2015-08-19T08:15:28Z</time>
      </trkpt>
      <trkpt lat="44.81717" lon="6.19933">
        <ele>1097.96</ele>
        <time>2015-08-19T08:15:40Z</time>
      </trkpt>
      <trkpt lat="44.81714" lon="6.19918">
        <ele>1098.92</ele>
        <time>2015-08-19T08:15:53Z</time>
      </trkpt>
      <trkpt lat="44.8171" lon="6.1991">
        <ele>1099.4</ele>
        <time>2015-08-19T08:15:59Z</time>
      </trkpt>
      <trkpt lat="44.81706" lon="6.19898">
        <ele>1098.92</ele>
        <time>2015-08-19T08:16:07Z</time>
      </trkpt>
      <trkpt lat="44.81703" lon="6.1989">
        <ele>1098.92</ele>
        <time>2015-08-19T08:16:13Z</time>
      </trkpt>
      <trkpt lat="44.817" lon="6.19868">
        <ele>1097.48</ele>
        <time>2015-08-19T08:16:28Z</time>
      </trkpt>
      <trkpt lat="44.81691" lon="6.19846">
        <ele>1098.44</ele>
        <time>2015-08-19T08:16:44Z</time>
      </trkpt>
      <trkpt lat="44.81688" lon="6.19837">
        <ele>1099.4</ele>
        <time>2015-08-19T08:16:50Z</time>
      </trkpt>
      <trkpt lat="44.81679" lon="6.19821">
        <ele>1100.37</ele>
        <time>2015-08-19T08:17:03Z</time>
      </trkpt>
      <trkpt lat="44.81674" lon="6.19802">
        <ele>1101.33</ele>
        <time>2015-08-19T08:17:16Z</time>
      </trkpt>
      <trkpt lat="44.81666" lon="6.19775">
        <ele>1101.81</ele>
        <time>2015-08-19T08:17:33Z</time>
      </trkpt>
      <trkpt lat="44.81665" lon="6.19771">
        <ele>1101.81</ele>
        <time>2015-08-19T08:17:35Z</time>
      </trkpt>
      <trkpt lat="44.81661" lon="6.19752">
        <ele>1104.21</ele>
        <time>2015-08-19T08:17:50Z</time>
      </trkpt>
      <trkpt lat="44.81662" lon="6.1974">
        <ele>1105.17</ele>
        <time>2015-08-19T08:18:02Z</time>
      </trkpt>
      <trkpt lat="44.8166" lon="6.19723">
        <ele>1106.13</ele>
        <time>2015-08-19T08:18:14Z</time>
      </trkpt>
      <trkpt lat="44.81654" lon="6.19691">
        <ele>1106.13</ele>
        <time>2015-08-19T08:18:31Z</time>
      </trkpt>
      <trkpt lat="44.81653" lon="6.19668">
        <ele>1105.65</ele>
        <time>2015-08-19T08:18:47Z</time>
      </trkpt>
      <trkpt lat="44.81651" lon="6.19646">
        <ele>1105.65</ele>
        <time>2015-08-19T08:19:02Z</time>
      </trkpt>
      <trkpt lat="44.81649" lon="6.19632">
        <ele>1104.69</ele>
        <time>2015-08-19T08:19:13Z</time>
      </trkpt>
      <trkpt lat="44.81653" lon="6.1962">
        <ele>1102.29</ele>
        <time>2015-08-19T08:19:24Z</time>
      </trkpt>
      <trkpt lat="44.81649" lon="6.196">
        <ele>1100.37</ele>
        <time>2015-08-19T08:19:37Z</time>
      </trkpt>
      <trkpt lat="44.81648" lon="6.19598">
        <ele>1100.37</ele>
        <time>2015-08-19T08:19:39Z</time>
      </trkpt>
      <trkpt lat="44.8165" lon="6.19586">
        <ele>1099.4</ele>
        <time>2015-08-19T08:19:52Z</time>
      </trkpt>
      <trkpt lat="44.81651" lon="6.19584">
        <ele>1097.96</ele>
        <time>2015-08-19T08:19:57Z</time>
      </trkpt>
      <trkpt lat="44.81653" lon="6.19584">
        <ele>1098.44</ele>
        <time>2015-08-19T08:20:03Z</time>
      </trkpt>
      <trkpt lat="44.81655" lon="6.19585">
        <ele>1098.44</ele>
        <time>2015-08-19T08:20:07Z</time>
      </trkpt>
      <trkpt lat="44.81658" lon="6.19579">
        <ele>1097.96</ele>
        <time>2015-08-19T08:20:13Z</time>
      </trkpt>
      <trkpt lat="44.8166" lon="6.19561">
        <ele>1097</ele>
        <time>2015-08-19T08:20:27Z</time>
      </trkpt>
      <trkpt lat="44.8166" lon="6.19556">
        <ele>1096.52</ele>
        <time>2015-08-19T08:20:36Z</time>
      </trkpt>
      <trkpt lat="44.81662" lon="6.19561">
        <ele>1097.48</ele>
        <time>2015-08-19T08:20:58Z</time>
      </trkpt>
      <trkpt lat="44.81665" lon="6.19559">
        <ele>1097</ele>
        <time>2015-08-19T08:21:10Z</time>
      </trkpt>
      <trkpt lat="44.81666" lon="6.19557">
        <ele>1097</ele>
        <time>2015-08-19T08:21:31Z</time>
      </trkpt>
      <trkpt lat="44.81664" lon="6.19554">
        <ele>1097</ele>
        <time>2015-08-19T08:21:53Z</time>
      </trkpt>
      <trkpt lat="44.8167" lon="6.19561">
        <ele>1097</ele>
        <time>2015-08-19T08:22:08Z</time>
      </trkpt>
      <trkpt lat="44.81671" lon="6.19563">
        <ele>1097.48</ele>
        <time>2015-08-19T08:22:21Z</time>
      </trkpt>
      <trkpt lat="44.8167" lon="6.19563">
        <ele>1097.48</ele>
        <time>2015-08-19T08:22:43Z</time>
      </trkpt>
      <trkpt lat="44.81672" lon="6.19561">
        <ele>1097</ele>
        <time>2015-08-19T08:23:04Z</time>
      </trkpt>
      <trkpt lat="44.81673" lon="6.19557">
        <ele>1097.48</ele>
        <time>2015-08-19T08:23:31Z</time>
      </trkpt>
      <trkpt lat="44.81674" lon="6.19561">
        <ele>1097.96</ele>
        <time>2015-08-19T08:23:53Z</time>
      </trkpt>
      <trkpt lat="44.81676" lon="6.19557">
        <ele>1097.96</ele>
        <time>2015-08-19T08:24:21Z</time>
      </trkpt>
      <trkpt lat="44.81674" lon="6.19563">
        <ele>1097.96</ele>
        <time>2015-08-19T08:24:43Z</time>
      </trkpt>
      <trkpt lat="44.81674" lon="6.19557">
        <ele>1097.96</ele>
        <time>2015-08-19T08:25:08Z</time>
      </trkpt>
      <trkpt lat="44.81675" lon="6.19554">
        <ele>1097.96</ele>
        <time>2015-08-19T08:25:31Z</time>
      </trkpt>
      <trkpt lat="44.81674" lon="6.19559">
        <ele>1098.44</ele>
        <time>2015-08-19T08:25:48Z</time>
      </trkpt>
      <trkpt lat="44.81673" lon="6.19557">
        <ele>1098.44</ele>
        <time>2015-08-19T08:26:19Z</time>
      </trkpt>
      <trkpt lat="44.81672" lon="6.19553">
        <ele>1098.92</ele>
        <time>2015-08-19T08:26:47Z</time>
      </trkpt>
      <trkpt lat="44.81673" lon="6.19553">
        <ele>1098.92</ele>
        <time>2015-08-19T08:27:19Z</time>
      </trkpt>
      <trkpt lat="44.81673" lon="6.19557">
        <ele>1098.92</ele>
        <time>2015-08-19T08:27:49Z</time>
      </trkpt>
      <trkpt lat="44.81673" lon="6.19558">
        <ele>1099.4</ele>
        <time>2015-08-19T08:28:10Z</time>
      </trkpt>
      <trkpt lat="44.81674" lon="6.19564">
        <ele>1099.4</ele>
        <time>2015-08-19T08:28:36Z</time>
      </trkpt>
      <trkpt lat="44.81674" lon="6.19561">
        <ele>1099.89</ele>
        <time>2015-08-19T08:29:02Z</time>
      </trkpt>
      <trkpt lat="44.81674" lon="6.19564">
        <ele>1099.89</ele>
        <time>2015-08-19T08:29:28Z</time>
      </trkpt>
      <trkpt lat="44.81674" lon="6.19564">
        <ele>1099.89</ele>
        <time>2015-08-19T08:29:49Z</time>
      </trkpt>
      <trkpt lat="44.81672" lon="6.19564">
        <ele>1099.89</ele>
        <time>2015-08-19T08:30:07Z</time>
      </trkpt>
      <trkpt lat="44.81671" lon="6.19569">
        <ele>1099.89</ele>
        <time>2015-08-19T08:30:22Z</time>
      </trkpt>
      <trkpt lat="44.81672" lon="6.19569">
        <ele>1099.89</ele>
        <time>2015-08-19T08:30:41Z</time>
      </trkpt>
      <trkpt lat="44.81672" lon="6.19565">
        <ele>1099.89</ele>
        <time>2015-08-19T08:30:48Z</time>
      </trkpt>
      <trkpt lat="44.81658" lon="6.19563">
        <ele>1099.89</ele>
        <time>2015-08-19T08:31:01Z</time>
      </trkpt>
      <trkpt lat="44.81658" lon="6.19558">
        <ele>1099.89</ele>
        <time>2015-08-19T08:31:13Z</time>
      </trkpt>
      <trkpt lat="44.81648" lon="6.19547">
        <ele>1099.4</ele>
        <time>2015-08-19T08:31:24Z</time>
      </trkpt>
      <trkpt lat="44.8164" lon="6.19523">
        <ele>1099.4</ele>
        <time>2015-08-19T08:31:39Z</time>
      </trkpt>
      <trkpt lat="44.8164" lon="6.19515">
        <ele>1099.4</ele>
        <time>2015-08-19T08:31:44Z</time>
      </trkpt>
      <trkpt lat="44.81642" lon="6.19503">
        <ele>1098.44</ele>
        <time>2015-08-19T08:31:57Z</time>
      </trkpt>
      <trkpt lat="44.81648" lon="6.19496">
        <ele>1098.44</ele>
        <time>2015-08-19T08:32:08Z</time>
      </trkpt>
      <trkpt lat="44.81652" lon="6.19492">
        <ele>1097.96</ele>
        <time>2015-08-19T08:32:14Z</time>
      </trkpt>
      <trkpt lat="44.81662" lon="6.19471">
        <ele>1097.48</ele>
        <time>2015-08-19T08:32:30Z</time>
      </trkpt>
      <trkpt lat="44.81665" lon="6.19471">
        <ele>1097.48</ele>
        <time>2015-08-19T08:32:33Z</time>
      </trkpt>
      <trkpt lat="44.81669" lon="6.19467">
        <ele>1097</ele>
        <time>2015-08-19T08:32:37Z</time>
      </trkpt>
      <trkpt lat="44.81684" lon="6.19446">
        <ele>1096.52</ele>
        <time>2015-08-19T08:32:53Z</time>
      </trkpt>
      <trkpt lat="44.81684" lon="6.19444">
        <ele>1096.04</ele>
        <time>2015-08-19T08:32:54Z</time>
      </trkpt>
      <trkpt lat="44.81686" lon="6.19437">
        <ele>1096.52</ele>
        <time>2015-08-19T08:32:58Z</time>
      </trkpt>
      <trkpt lat="44.81693" lon="6.19427">
        <ele>1096.04</ele>
        <time>2015-08-19T08:33:08Z</time>
      </trkpt>
      <trkpt lat="44.8171" lon="6.1941">
        <ele>1095.56</ele>
        <time>2015-08-19T08:33:22Z</time>
      </trkpt>
      <trkpt lat="44.81722" lon="6.194">
        <ele>1095.08</ele>
        <time>2015-08-19T08:33:30Z</time>
      </trkpt>
      <trkpt lat="44.81722" lon="6.19386">
        <ele>1094.6</ele>
        <time>2015-08-19T08:33:38Z</time>
      </trkpt>
      <trkpt lat="44.81737" lon="6.19366">
        <ele>1094.6</ele>
        <time>2015-08-19T08:33:54Z</time>
      </trkpt>
      <trkpt lat="44.81746" lon="6.19356">
        <ele>1094.12</ele>
        <time>2015-08-19T08:34:10Z</time>
      </trkpt>
      <trkpt lat="44.81746" lon="6.19355">
        <ele>1094.12</ele>
        <time>2015-08-19T08:34:31Z</time>
      </trkpt>
      <trkpt lat="44.81749" lon="6.19355">
        <ele>1094.12</ele>
        <time>2015-08-19T08:34:50Z</time>
      </trkpt>
      <trkpt lat="44.8175" lon="6.19356">
        <ele>1094.6</ele>
        <time>2015-08-19T08:35:07Z</time>
      </trkpt>
      <trkpt lat="44.81751" lon="6.19356">
        <ele>1094.12</ele>
        <time>2015-08-19T08:35:13Z</time>
      </trkpt>
      <trkpt lat="44.81754" lon="6.19339">
        <ele>1094.12</ele>
        <time>2015-08-19T08:35:23Z</time>
      </trkpt>
      <trkpt lat="44.81754" lon="6.19335">
        <ele>1094.12</ele>
        <time>2015-08-19T08:35:25Z</time>
      </trkpt>
      <trkpt lat="44.81759" lon="6.1931">
        <ele>1094.6</ele>
        <time>2015-08-19T08:35:40Z</time>
      </trkpt>
      <trkpt lat="44.8176" lon="6.19304">
        <ele>1094.6</ele>
        <time>2015-08-19T08:35:44Z</time>
      </trkpt>
      <trkpt lat="44.81757" lon="6.19273">
        <ele>1094.12</ele>
        <time>2015-08-19T08:36:01Z</time>
      </trkpt>
      <trkpt lat="44.81756" lon="6.19243">
        <ele>1093.64</ele>
        <time>2015-08-19T08:36:18Z</time>
      </trkpt>
      <trkpt lat="44.81758" lon="6.19209">
        <ele>1092.68</ele>
        <time>2015-08-19T08:36:36Z</time>
      </trkpt>
      <trkpt lat="44.81763" lon="6.19183">
        <ele>1092.2</ele>
        <time>2015-08-19T08:36:51Z</time>
      </trkpt>
      <trkpt lat="44.81763" lon="6.19181">
        <ele>1092.2</ele>
        <time>2015-08-19T08:36:52Z</time>
      </trkpt>
      <trkpt lat="44.81763" lon="6.19174">
        <ele>1092.2</ele>
        <time>2015-08-19T08:36:56Z</time>
      </trkpt>
      <trkpt lat="44.8177" lon="6.19136">
        <ele>1091.71</ele>
        <time>2015-08-19T08:37:14Z</time>
      </trkpt>
      <trkpt lat="44.81778" lon="6.19102">
        <ele>1090.75</ele>
        <time>2015-08-19T08:37:33Z</time>
      </trkpt>
      <trkpt lat="44.81786" lon="6.19069">
        <ele>1089.31</ele>
        <time>2015-08-19T08:37:52Z</time>
      </trkpt>
      <trkpt lat="44.81789" lon="6.19044">
        <ele>1088.83</ele>
        <time>2015-08-19T08:38:06Z</time>
      </trkpt>
      <trkpt lat="44.81793" lon="6.19016">
        <ele>1087.87</ele>
        <time>2015-08-19T08:38:22Z</time>
      </trkpt>
      <trkpt lat="44.81796" lon="6.19011">
        <ele>1087.39</ele>
        <time>2015-08-19T08:38:26Z</time>
      </trkpt>
      <trkpt lat="44.81798" lon="6.19">
        <ele>1087.39</ele>
        <time>2015-08-19T08:38:32Z</time>
      </trkpt>
      <trkpt lat="44.81814" lon="6.18975">
        <ele>1086.43</ele>
        <time>2015-08-19T08:38:49Z</time>
      </trkpt>
      <trkpt lat="44.8183" lon="6.18954">
        <ele>1085.47</ele>
        <time>2015-08-19T08:39:05Z</time>
      </trkpt>
      <trkpt lat="44.81851" lon="6.18943">
        <ele>1084.99</ele>
        <time>2015-08-19T08:39:20Z</time>
      </trkpt>
      <trkpt lat="44.81867" lon="6.18935">
        <ele>1084.99</ele>
        <time>2015-08-19T08:39:34Z</time>
      </trkpt>
      <trkpt lat="44.81867" lon="6.18935">
        <ele>1084.99</ele>
        <time>2015-08-19T08:39:35Z</time>
      </trkpt>
      <trkpt lat="44.81874" lon="6.18936">
        <ele>1084.5</ele>
        <time>2015-08-19T08:39:41Z</time>
      </trkpt>
      <trkpt lat="44.81895" lon="6.18917">
        <ele>1084.5</ele>
        <time>2015-08-19T08:39:59Z</time>
      </trkpt>
      <trkpt lat="44.81905" lon="6.18894">
        <ele>1084.5</ele>
        <time>2015-08-19T08:40:15Z</time>
      </trkpt>
      <trkpt lat="44.81908" lon="6.18885">
        <ele>1083.54</ele>
        <time>2015-08-19T08:40:21Z</time>
      </trkpt>
      <trkpt lat="44.81909" lon="6.18876">
        <ele>1083.54</ele>
        <time>2015-08-19T08:40:36Z</time>
      </trkpt>
      <trkpt lat="44.81913" lon="6.18862">
        <ele>1083.06</ele>
        <time>2015-08-19T08:40:51Z</time>
      </trkpt>
      <trkpt lat="44.81924" lon="6.18835">
        <ele>1082.58</ele>
        <time>2015-08-19T08:41:06Z</time>
      </trkpt>
      <trkpt lat="44.8193" lon="6.18824">
        <ele>1083.06</ele>
        <time>2015-08-19T08:41:21Z</time>
      </trkpt>
      <trkpt lat="44.81929" lon="6.1882">
        <ele>1082.58</ele>
        <time>2015-08-19T08:41:35Z</time>
      </trkpt>
      <trkpt lat="44.81927" lon="6.18821">
        <ele>1082.1</ele>
        <time>2015-08-19T08:42:03Z</time>
      </trkpt>
      <trkpt lat="44.81933" lon="6.18805">
        <ele>1082.58</ele>
        <time>2015-08-19T08:42:21Z</time>
      </trkpt>
      <trkpt lat="44.81939" lon="6.1878">
        <ele>1082.1</ele>
        <time>2015-08-19T08:42:36Z</time>
      </trkpt>
      <trkpt lat="44.81943" lon="6.1876">
        <ele>1081.62</ele>
        <time>2015-08-19T08:42:48Z</time>
      </trkpt>
      <trkpt lat="44.81947" lon="6.18755">
        <ele>1081.62</ele>
        <time>2015-08-19T08:42:52Z</time>
      </trkpt>
      <trkpt lat="44.81961" lon="6.18751">
        <ele>1082.58</ele>
        <time>2015-08-19T08:43:03Z</time>
      </trkpt>
      <trkpt lat="44.81967" lon="6.18748">
        <ele>1081.62</ele>
        <time>2015-08-19T08:43:13Z</time>
      </trkpt>
      <trkpt lat="44.81963" lon="6.18718">
        <ele>1080.18</ele>
        <time>2015-08-19T08:43:30Z</time>
      </trkpt>
      <trkpt lat="44.81956" lon="6.18691">
        <ele>1080.18</ele>
        <time>2015-08-19T08:43:46Z</time>
      </trkpt>
      <trkpt lat="44.81953" lon="6.18657">
        <ele>1078.74</ele>
        <time>2015-08-19T08:44:04Z</time>
      </trkpt>
      <trkpt lat="44.8195" lon="6.18639">
        <ele>1079.22</ele>
        <time>2015-08-19T08:44:14Z</time>
      </trkpt>
      <trkpt lat="44.81949" lon="6.18606">
        <ele>1078.26</ele>
        <time>2015-08-19T08:44:32Z</time>
      </trkpt>
      <trkpt lat="44.81947" lon="6.1858">
        <ele>1078.26</ele>
        <time>2015-08-19T08:44:47Z</time>
      </trkpt>
      <trkpt lat="44.81947" lon="6.18572">
        <ele>1078.26</ele>
        <time>2015-08-19T08:44:51Z</time>
      </trkpt>
      <trkpt lat="44.81948" lon="6.1854">
        <ele>1077.78</ele>
        <time>2015-08-19T08:45:08Z</time>
      </trkpt>
      <trkpt lat="44.8195" lon="6.18507">
        <ele>1076.81</ele>
        <time>2015-08-19T08:45:24Z</time>
      </trkpt>
      <trkpt lat="44.8195" lon="6.18478">
        <ele>1076.81</ele>
        <time>2015-08-19T08:45:40Z</time>
      </trkpt>
      <trkpt lat="44.81952" lon="6.18462">
        <ele>1076.81</ele>
        <time>2015-08-19T08:45:49Z</time>
      </trkpt>
      <trkpt lat="44.81954" lon="6.18454">
        <ele>1076.33</ele>
        <time>2015-08-19T08:45:53Z</time>
      </trkpt>
      <trkpt lat="44.81964" lon="6.18422">
        <ele>1076.81</ele>
        <time>2015-08-19T08:46:11Z</time>
      </trkpt>
      <trkpt lat="44.81974" lon="6.18388">
        <ele>1075.85</ele>
        <time>2015-08-19T08:46:30Z</time>
      </trkpt>
      <trkpt lat="44.81978" lon="6.18362">
        <ele>1075.37</ele>
        <time>2015-08-19T08:46:45Z</time>
      </trkpt>
      <trkpt lat="44.81982" lon="6.18332">
        <ele>1075.37</ele>
        <time>2015-08-19T08:47:02Z</time>
      </trkpt>
      <trkpt lat="44.81994" lon="6.18297">
        <ele>1074.89</ele>
        <time>2015-08-19T08:47:21Z</time>
      </trkpt>
      <trkpt lat="44.82" lon="6.1827">
        <ele>1073.93</ele>
        <time>2015-08-19T08:47:37Z</time>
      </trkpt>
      <trkpt lat="44.82003" lon="6.18243">
        <ele>1073.93</ele>
        <time>2015-08-19T08:47:53Z</time>
      </trkpt>
      <trkpt lat="44.82007" lon="6.18214">
        <ele>1072.97</ele>
        <time>2015-08-19T08:48:10Z</time>
      </trkpt>
      <trkpt lat="44.82003" lon="6.18185">
        <ele>1072.01</ele>
        <time>2015-08-19T08:48:27Z</time>
      </trkpt>
      <trkpt lat="44.82001" lon="6.18161">
        <ele>1072.49</ele>
        <time>2015-08-19T08:48:43Z</time>
      </trkpt>
      <trkpt lat="44.82" lon="6.18152">
        <ele>1072.01</ele>
        <time>2015-08-19T08:48:48Z</time>
      </trkpt>
      <trkpt lat="44.81999" lon="6.18121">
        <ele>1071.53</ele>
        <time>2015-08-19T08:49:05Z</time>
      </trkpt>
      <trkpt lat="44.82001" lon="6.18096">
        <ele>1071.05</ele>
        <time>2015-08-19T08:49:19Z</time>
      </trkpt>
      <trkpt lat="44.82002" lon="6.18073">
        <ele>1071.05</ele>
        <time>2015-08-19T08:49:31Z</time>
      </trkpt>
      <trkpt lat="44.82013" lon="6.18042">
        <ele>1071.05</ele>
        <time>2015-08-19T08:49:48Z</time>
      </trkpt>
      <trkpt lat="44.82024" lon="6.18015">
        <ele>1070.08</ele>
        <time>2015-08-19T08:50:04Z</time>
      </trkpt>
      <trkpt lat="44.82029" lon="6.17986">
        <ele>1070.08</ele>
        <time>2015-08-19T08:50:20Z</time>
      </trkpt>
      <trkpt lat="44.82032" lon="6.17985">
        <ele>1071.05</ele>
        <time>2015-08-19T08:50:34Z</time>
      </trkpt>
      <trkpt lat="44.82034" lon="6.17988">
        <ele>1071.05</ele>
        <time>2015-08-19T08:50:46Z</time>
      </trkpt>
      <trkpt lat="44.82033" lon="6.17984">
        <ele>1071.05</ele>
        <time>2015-08-19T08:51:19Z</time>
      </trkpt>
      <trkpt lat="44.82034" lon="6.1798">
        <ele>1071.05</ele>
        <time>2015-08-19T08:51:27Z</time>
      </trkpt>
      <trkpt lat="44.82037" lon="6.17969">
        <ele>1070.57</ele>
        <time>2015-08-19T08:51:35Z</time>
      </trkpt>
      <trkpt lat="44.82046" lon="6.17944">
        <ele>1070.57</ele>
        <time>2015-08-19T08:51:52Z</time>
      </trkpt>
      <trkpt lat="44.82052" lon="6.17918">
        <ele>1070.57</ele>
        <time>2015-08-19T08:52:08Z</time>
      </trkpt>
      <trkpt lat="44.82049" lon="6.17892">
        <ele>1071.05</ele>
        <time>2015-08-19T08:52:23Z</time>
      </trkpt>
      <trkpt lat="44.82048" lon="6.17868">
        <ele>1071.05</ele>
        <time>2015-08-19T08:52:37Z</time>
      </trkpt>
      <trkpt lat="44.82047" lon="6.17847">
        <ele>1070.57</ele>
        <time>2015-08-19T08:52:50Z</time>
      </trkpt>
      <trkpt lat="44.82038" lon="6.17819">
        <ele>1069.6</ele>
        <time>2015-08-19T08:53:07Z</time>
      </trkpt>
      <trkpt lat="44.82032" lon="6.17797">
        <ele>1068.16</ele>
        <time>2015-08-19T08:53:20Z</time>
      </trkpt>
      <trkpt lat="44.82024" lon="6.17768">
        <ele>1067.68</ele>
        <time>2015-08-19T08:53:37Z</time>
      </trkpt>
      <trkpt lat="44.82025" lon="6.17764">
        <ele>1067.2</ele>
        <time>2015-08-19T08:53:39Z</time>
      </trkpt>
      <trkpt lat="44.82027" lon="6.17761">
        <ele>1067.2</ele>
        <time>2015-08-19T08:53:41Z</time>
      </trkpt>
      <trkpt lat="44.82031" lon="6.17744">
        <ele>1067.68</ele>
        <time>2015-08-19T08:53:52Z</time>
      </trkpt>
      <trkpt lat="44.82033" lon="6.1774">
        <ele>1067.2</ele>
        <time>2015-08-19T08:53:54Z</time>
      </trkpt>
      <trkpt lat="44.82036" lon="6.17729">
        <ele>1067.2</ele>
        <time>2015-08-19T08:54:00Z</time>
      </trkpt>
      <trkpt lat="44.82044" lon="6.17704">
        <ele>1066.72</ele>
        <time>2015-08-19T08:54:17Z</time>
      </trkpt>
      <trkpt lat="44.82047" lon="6.17692">
        <ele>1066.24</ele>
        <time>2015-08-19T08:54:25Z</time>
      </trkpt>
      <trkpt lat="44.82053" lon="6.17677">
        <ele>1066.24</ele>
        <time>2015-08-19T08:54:32Z</time>
      </trkpt>
      <trkpt lat="44.82058" lon="6.17664">
        <ele>1066.72</ele>
        <time>2015-08-19T08:54:41Z</time>
      </trkpt>
      <trkpt lat="44.8206" lon="6.1766">
        <ele>1066.72</ele>
        <time>2015-08-19T08:54:44Z</time>
      </trkpt>
      <trkpt lat="44.82059" lon="6.17626">
        <ele>1066.24</ele>
        <time>2015-08-19T08:55:01Z</time>
      </trkpt>
      <trkpt lat="44.82064" lon="6.17602">
        <ele>1065.28</ele>
        <time>2015-08-19T08:55:16Z</time>
      </trkpt>
      <trkpt lat="44.82072" lon="6.17579">
        <ele>1065.28</ele>
        <time>2015-08-19T08:55:31Z</time>
      </trkpt>
      <trkpt lat="44.82071" lon="6.17559">
        <ele>1065.28</ele>
        <time>2015-08-19T08:55:43Z</time>
      </trkpt>
      <trkpt lat="44.82072" lon="6.17534">
        <ele>1064.8</ele>
        <time>2015-08-19T08:55:58Z</time>
      </trkpt>
      <trkpt lat="44.82075" lon="6.17509">
        <ele>1064.8</ele>
        <time>2015-08-19T08:56:12Z</time>
      </trkpt>
      <trkpt lat="44.82075" lon="6.17485">
        <ele>1064.32</ele>
        <time>2015-08-19T08:56:27Z</time>
      </trkpt>
      <trkpt lat="44.8207" lon="6.17463">
        <ele>1063.36</ele>
        <time>2015-08-19T08:56:40Z</time>
      </trkpt>
      <trkpt lat="44.82067" lon="6.17454">
        <ele>1062.87</ele>
        <time>2015-08-19T08:56:47Z</time>
      </trkpt>
      <trkpt lat="44.82069" lon="6.17428">
        <ele>1062.39</ele>
        <time>2015-08-19T08:57:02Z</time>
      </trkpt>
      <trkpt lat="44.82076" lon="6.17406">
        <ele>1061.91</ele>
        <time>2015-08-19T08:57:15Z</time>
      </trkpt>
      <trkpt lat="44.82088" lon="6.17379">
        <ele>1061.91</ele>
        <time>2015-08-19T08:57:33Z</time>
      </trkpt>
      <trkpt lat="44.82098" lon="6.17359">
        <ele>1061.91</ele>
        <time>2015-08-19T08:57:47Z</time>
      </trkpt>
      <trkpt lat="44.821" lon="6.17348">
        <ele>1061.43</ele>
        <time>2015-08-19T08:57:55Z</time>
      </trkpt>
      <trkpt lat="44.82101" lon="6.17344">
        <ele>1061.43</ele>
        <time>2015-08-19T08:57:57Z</time>
      </trkpt>
      <trkpt lat="44.82113" lon="6.17316">
        <ele>1061.91</ele>
        <time>2015-08-19T08:58:15Z</time>
      </trkpt>
      <trkpt lat="44.82109" lon="6.17303">
        <ele>1063.36</ele>
        <time>2015-08-19T08:58:31Z</time>
      </trkpt>
      <trkpt lat="44.82097" lon="6.173">
        <ele>1062.87</ele>
        <time>2015-08-19T08:58:41Z</time>
      </trkpt>
      <trkpt lat="44.82095" lon="6.17288">
        <ele>1062.39</ele>
        <time>2015-08-19T08:58:48Z</time>
      </trkpt>
      <trkpt lat="44.82101" lon="6.17262">
        <ele>1061.43</ele>
        <time>2015-08-19T08:59:02Z</time>
      </trkpt>
      <trkpt lat="44.82107" lon="6.17232">
        <ele>1061.91</ele>
        <time>2015-08-19T08:59:20Z</time>
      </trkpt>
      <trkpt lat="44.82109" lon="6.17199">
        <ele>1061.43</ele>
        <time>2015-08-19T08:59:36Z</time>
      </trkpt>
      <trkpt lat="44.82111" lon="6.17169">
        <ele>1061.91</ele>
        <time>2015-08-19T08:59:52Z</time>
      </trkpt>
      <trkpt lat="44.82116" lon="6.17141">
        <ele>1061.43</ele>
        <time>2015-08-19T09:00:07Z</time>
      </trkpt>
      <trkpt lat="44.82122" lon="6.17113">
        <ele>1060.95</ele>
        <time>2015-08-19T09:00:23Z</time>
      </trkpt>
      <trkpt lat="44.82131" lon="6.17084">
        <ele>1060.47</ele>
        <time>2015-08-19T09:00:40Z</time>
      </trkpt>
      <trkpt lat="44.82143" lon="6.17058">
        <ele>1060.95</ele>
        <time>2015-08-19T09:00:57Z</time>
      </trkpt>
      <trkpt lat="44.82145" lon="6.17054">
        <ele>1060.95</ele>
        <time>2015-08-19T09:00:59Z</time>
      </trkpt>
      <trkpt lat="44.82158" lon="6.17032">
        <ele>1060.95</ele>
        <time>2015-08-19T09:01:15Z</time>
      </trkpt>
      <trkpt lat="44.82169" lon="6.17011">
        <ele>1060.95</ele>
        <time>2015-08-19T09:01:30Z</time>
      </trkpt>
      <trkpt lat="44.8218" lon="6.16988">
        <ele>1060.47</ele>
        <time>2015-08-19T09:01:47Z</time>
      </trkpt>
      <trkpt lat="44.8219" lon="6.16971">
        <ele>1059.99</ele>
        <time>2015-08-19T09:02:01Z</time>
      </trkpt>
      <trkpt lat="44.82191" lon="6.16965">
        <ele>1059.99</ele>
        <time>2015-08-19T09:02:04Z</time>
      </trkpt>
      <trkpt lat="44.82198" lon="6.16942">
        <ele>1059.51</ele>
        <time>2015-08-19T09:02:18Z</time>
      </trkpt>
      <trkpt lat="44.82206" lon="6.1692">
        <ele>1058.55</ele>
        <time>2015-08-19T09:02:33Z</time>
      </trkpt>
      <trkpt lat="44.82213" lon="6.1689">
        <ele>1058.55</ele>
        <time>2015-08-19T09:02:49Z</time>
      </trkpt>
      <trkpt lat="44.82218" lon="6.16863">
        <ele>1058.07</ele>
        <time>2015-08-19T09:03:05Z</time>
      </trkpt>
      <trkpt lat="44.8222" lon="6.16838">
        <ele>1057.59</ele>
        <time>2015-08-19T09:03:20Z</time>
      </trkpt>
      <trkpt lat="44.82223" lon="6.16817">
        <ele>1057.59</ele>
        <time>2015-08-19T09:03:33Z</time>
      </trkpt>
      <trkpt lat="44.82229" lon="6.16788">
        <ele>1056.63</ele>
        <time>2015-08-19T09:03:49Z</time>
      </trkpt>
      <trkpt lat="44.82231" lon="6.16759">
        <ele>1056.15</ele>
        <time>2015-08-19T09:04:04Z</time>
      </trkpt>
      <trkpt lat="44.82229" lon="6.16729">
        <ele>1055.67</ele>
        <time>2015-08-19T09:04:19Z</time>
      </trkpt>
      <trkpt lat="44.82223" lon="6.16697">
        <ele>1055.67</ele>
        <time>2015-08-19T09:04:34Z</time>
      </trkpt>
      <trkpt lat="44.82218" lon="6.16671">
        <ele>1054.7</ele>
        <time>2015-08-19T09:04:51Z</time>
      </trkpt>
      <trkpt lat="44.82212" lon="6.16648">
        <ele>1053.74</ele>
        <time>2015-08-19T09:05:07Z</time>
      </trkpt>
      <trkpt lat="44.82206" lon="6.16624">
        <ele>1053.26</ele>
        <time>2015-08-19T09:05:19Z</time>
      </trkpt>
      <trkpt lat="44.82202" lon="6.16609">
        <ele>1052.78</ele>
        <time>2015-08-19T09:05:27Z</time>
      </trkpt>
      <trkpt lat="44.82201" lon="6.16597">
        <ele>1052.78</ele>
        <time>2015-08-19T09:05:34Z</time>
      </trkpt>
      <trkpt lat="44.82199" lon="6.1659">
        <ele>1052.3</ele>
        <time>2015-08-19T09:05:38Z</time>
      </trkpt>
      <trkpt lat="44.82196" lon="6.16555">
        <ele>1051.34</ele>
        <time>2015-08-19T09:05:57Z</time>
      </trkpt>
      <trkpt lat="44.82193" lon="6.16524">
        <ele>1051.34</ele>
        <time>2015-08-19T09:06:13Z</time>
      </trkpt>
      <trkpt lat="44.82188" lon="6.16491">
        <ele>1050.38</ele>
        <time>2015-08-19T09:06:31Z</time>
      </trkpt>
      <trkpt lat="44.82187" lon="6.16484">
        <ele>1049.9</ele>
        <time>2015-08-19T09:06:35Z</time>
      </trkpt>
      <trkpt lat="44.82181" lon="6.16456">
        <ele>1049.9</ele>
        <time>2015-08-19T09:06:50Z</time>
      </trkpt>
      <trkpt lat="44.82177" lon="6.16445">
        <ele>1049.9</ele>
        <time>2015-08-19T09:06:58Z</time>
      </trkpt>
      <trkpt lat="44.82176" lon="6.16443">
        <ele>1049.9</ele>
        <time>2015-08-19T09:07:00Z</time>
      </trkpt>
      <trkpt lat="44.8217" lon="6.16423">
        <ele>1049.42</ele>
        <time>2015-08-19T09:07:15Z</time>
      </trkpt>
      <trkpt lat="44.82159" lon="6.16395">
        <ele>1049.42</ele>
        <time>2015-08-19T09:07:32Z</time>
      </trkpt>
      <trkpt lat="44.82153" lon="6.16373">
        <ele>1048.94</ele>
        <time>2015-08-19T09:07:45Z</time>
      </trkpt>
      <trkpt lat="44.82149" lon="6.16354">
        <ele>1048.94</ele>
        <time>2015-08-19T09:07:59Z</time>
      </trkpt>
      <trkpt lat="44.82142" lon="6.16329">
        <ele>1048.45</ele>
        <time>2015-08-19T09:08:16Z</time>
      </trkpt>
      <trkpt lat="44.82135" lon="6.16301">
        <ele>1047.49</ele>
        <time>2015-08-19T09:08:33Z</time>
      </trkpt>
      <trkpt lat="44.82127" lon="6.16276">
        <ele>1045.57</ele>
        <time>2015-08-19T09:08:50Z</time>
      </trkpt>
      <trkpt lat="44.82126" lon="6.16275">
        <ele>1045.57</ele>
        <time>2015-08-19T09:08:51Z</time>
      </trkpt>
      <trkpt lat="44.82122" lon="6.16259">
        <ele>1047.01</ele>
        <time>2015-08-19T09:09:04Z</time>
      </trkpt>
      <trkpt lat="44.8212" lon="6.16257">
        <ele>1047.49</ele>
        <time>2015-08-19T09:09:07Z</time>
      </trkpt>
      <trkpt lat="44.82119" lon="6.16239">
        <ele>1047.97</ele>
        <time>2015-08-19T09:09:21Z</time>
      </trkpt>
      <trkpt lat="44.82113" lon="6.16244">
        <ele>1045.57</ele>
        <time>2015-08-19T09:09:37Z</time>
      </trkpt>
      <trkpt lat="44.82111" lon="6.16245">
        <ele>1045.57</ele>
        <time>2015-08-19T09:09:40Z</time>
      </trkpt>
      <trkpt lat="44.82107" lon="6.16243">
        <ele>1047.49</ele>
        <time>2015-08-19T09:09:43Z</time>
      </trkpt>
      <trkpt lat="44.82106" lon="6.16242">
        <ele>1047.49</ele>
        <time>2015-08-19T09:09:44Z</time>
      </trkpt>
      <trkpt lat="44.82106" lon="6.16227">
        <ele>1046.53</ele>
        <time>2015-08-19T09:09:58Z</time>
      </trkpt>
      <trkpt lat="44.82105" lon="6.16217">
        <ele>1046.53</ele>
        <time>2015-08-19T09:10:13Z</time>
      </trkpt>
      <trkpt lat="44.82111" lon="6.16207">
        <ele>1046.53</ele>
        <time>2015-08-19T09:10:28Z</time>
      </trkpt>
      <trkpt lat="44.82112" lon="6.16204">
        <ele>1047.97</ele>
        <time>2015-08-19T09:10:30Z</time>
      </trkpt>
      <trkpt lat="44.82113" lon="6.16202">
        <ele>1047.97</ele>
        <time>2015-08-19T09:10:32Z</time>
      </trkpt>
      <trkpt lat="44.82118" lon="6.16182">
        <ele>1049.42</ele>
        <time>2015-08-19T09:10:46Z</time>
      </trkpt>
      <trkpt lat="44.82118" lon="6.16166">
        <ele>1049.42</ele>
        <time>2015-08-19T09:10:56Z</time>
      </trkpt>
      <trkpt lat="44.82117" lon="6.16151">
        <ele>1048.94</ele>
        <time>2015-08-19T09:11:05Z</time>
      </trkpt>
      <trkpt lat="44.82116" lon="6.16145">
        <ele>1048.45</ele>
        <time>2015-08-19T09:11:08Z</time>
      </trkpt>
      <trkpt lat="44.82113" lon="6.16119">
        <ele>1047.01</ele>
        <time>2015-08-19T09:11:24Z</time>
      </trkpt>
      <trkpt lat="44.82111" lon="6.16097">
        <ele>1045.57</ele>
        <time>2015-08-19T09:11:36Z</time>
      </trkpt>
      <trkpt lat="44.82112" lon="6.16074">
        <ele>1043.17</ele>
        <time>2015-08-19T09:11:51Z</time>
      </trkpt>
      <trkpt lat="44.82111" lon="6.1605">
        <ele>1041.73</ele>
        <time>2015-08-19T09:12:05Z</time>
      </trkpt>
      <trkpt lat="44.82104" lon="6.16022">
        <ele>1040.76</ele>
        <time>2015-08-19T09:12:21Z</time>
      </trkpt>
      <trkpt lat="44.82104" lon="6.16009">
        <ele>1040.28</ele>
        <time>2015-08-19T09:12:28Z</time>
      </trkpt>
      <trkpt lat="44.82102" lon="6.15981">
        <ele>1039.32</ele>
        <time>2015-08-19T09:12:42Z</time>
      </trkpt>
      <trkpt lat="44.82103" lon="6.15959">
        <ele>1038.84</ele>
        <time>2015-08-19T09:12:56Z</time>
      </trkpt>
      <trkpt lat="44.82107" lon="6.15938">
        <ele>1038.36</ele>
        <time>2015-08-19T09:13:10Z</time>
      </trkpt>
      <trkpt lat="44.82109" lon="6.15923">
        <ele>1037.4</ele>
        <time>2015-08-19T09:13:22Z</time>
      </trkpt>
      <trkpt lat="44.82111" lon="6.15909">
        <ele>1036.92</ele>
        <time>2015-08-19T09:13:32Z</time>
      </trkpt>
      <trkpt lat="44.82112" lon="6.15907">
        <ele>1036.92</ele>
        <time>2015-08-19T09:13:34Z</time>
      </trkpt>
      <trkpt lat="44.82116" lon="6.15869">
        <ele>1035.96</ele>
        <time>2015-08-19T09:13:51Z</time>
      </trkpt>
      <trkpt lat="44.82119" lon="6.15841">
        <ele>1035.48</ele>
        <time>2015-08-19T09:14:06Z</time>
      </trkpt>
      <trkpt lat="44.82123" lon="6.15821">
        <ele>1035.48</ele>
        <time>2015-08-19T09:14:18Z</time>
      </trkpt>
      <trkpt lat="44.82124" lon="6.15818">
        <ele>1035.48</ele>
        <time>2015-08-19T09:14:20Z</time>
      </trkpt>
      <trkpt lat="44.82129" lon="6.15789">
        <ele>1035</ele>
        <time>2015-08-19T09:14:36Z</time>
      </trkpt>
      <trkpt lat="44.82133" lon="6.15753">
        <ele>1034.52</ele>
        <time>2015-08-19T09:14:49Z</time>
      </trkpt>
      <trkpt lat="44.82138" lon="6.15731">
        <ele>1034.04</ele>
        <time>2015-08-19T09:15:02Z</time>
      </trkpt>
      <trkpt lat="44.82139" lon="6.15715">
        <ele>1033.55</ele>
        <time>2015-08-19T09:15:13Z</time>
      </trkpt>
      <trkpt lat="44.82146" lon="6.1568">
        <ele>1033.07</ele>
        <time>2015-08-19T09:15:32Z</time>
      </trkpt>
      <trkpt lat="44.82161" lon="6.15654">
        <ele>1032.59</ele>
        <time>2015-08-19T09:15:47Z</time>
      </trkpt>
      <trkpt lat="44.82182" lon="6.15635">
        <ele>1031.15</ele>
        <time>2015-08-19T09:16:05Z</time>
      </trkpt>
      <trkpt lat="44.82199" lon="6.15618">
        <ele>1030.67</ele>
        <time>2015-08-19T09:16:21Z</time>
      </trkpt>
      <trkpt lat="44.82217" lon="6.15601">
        <ele>1029.23</ele>
        <time>2015-08-19T09:16:38Z</time>
      </trkpt>
      <trkpt lat="44.82233" lon="6.15587">
        <ele>1028.75</ele>
        <time>2015-08-19T09:16:54Z</time>
      </trkpt>
      <trkpt lat="44.82247" lon="6.15564">
        <ele>1028.27</ele>
        <time>2015-08-19T09:17:10Z</time>
      </trkpt>
      <trkpt lat="44.82262" lon="6.15541">
        <ele>1027.79</ele>
        <time>2015-08-19T09:17:26Z</time>
      </trkpt>
      <trkpt lat="44.82276" lon="6.15519">
        <ele>1027.31</ele>
        <time>2015-08-19T09:17:41Z</time>
      </trkpt>
      <trkpt lat="44.82286" lon="6.15496">
        <ele>1026.83</ele>
        <time>2015-08-19T09:17:57Z</time>
      </trkpt>
      <trkpt lat="44.82289" lon="6.15475">
        <ele>1025.86</ele>
        <time>2015-08-19T09:18:10Z</time>
      </trkpt>
      <trkpt lat="44.82294" lon="6.15452">
        <ele>1024.42</ele>
        <time>2015-08-19T09:18:24Z</time>
      </trkpt>
      <trkpt lat="44.82295" lon="6.15422">
        <ele>1024.42</ele>
        <time>2015-08-19T09:18:41Z</time>
      </trkpt>
      <trkpt lat="44.82293" lon="6.15403">
        <ele>1023.94</ele>
        <time>2015-08-19T09:18:51Z</time>
      </trkpt>
      <trkpt lat="44.82285" lon="6.15368">
        <ele>1022.98</ele>
        <time>2015-08-19T09:19:07Z</time>
      </trkpt>
      <trkpt lat="44.82287" lon="6.1534">
        <ele>1022.02</ele>
        <time>2015-08-19T09:19:22Z</time>
      </trkpt>
      <trkpt lat="44.82283" lon="6.15326">
        <ele>1021.54</ele>
        <time>2015-08-19T09:19:29Z</time>
      </trkpt>
      <trkpt lat="44.82279" lon="6.15296">
        <ele>1021.06</ele>
        <time>2015-08-19T09:19:44Z</time>
      </trkpt>
      <trkpt lat="44.82278" lon="6.15286">
        <ele>1021.54</ele>
        <time>2015-08-19T09:19:49Z</time>
      </trkpt>
      <trkpt lat="44.82282" lon="6.15274">
        <ele>1021.06</ele>
        <time>2015-08-19T09:19:57Z</time>
      </trkpt>
      <trkpt lat="44.82298" lon="6.15257">
        <ele>1020.58</ele>
        <time>2015-08-19T09:20:11Z</time>
      </trkpt>
      <trkpt lat="44.82313" lon="6.15241">
        <ele>1019.13</ele>
        <time>2015-08-19T09:20:24Z</time>
      </trkpt>
      <trkpt lat="44.82322" lon="6.15222">
        <ele>1020.1</ele>
        <time>2015-08-19T09:20:38Z</time>
      </trkpt>
      <trkpt lat="44.82325" lon="6.15203">
        <ele>1019.13</ele>
        <time>2015-08-19T09:20:50Z</time>
      </trkpt>
      <trkpt lat="44.82327" lon="6.15186">
        <ele>1019.13</ele>
        <time>2015-08-19T09:21:00Z</time>
      </trkpt>
      <trkpt lat="44.8233" lon="6.15161">
        <ele>1018.65</ele>
        <time>2015-08-19T09:21:15Z</time>
      </trkpt>
      <trkpt lat="44.82329" lon="6.15155">
        <ele>1018.65</ele>
        <time>2015-08-19T09:21:18Z</time>
      </trkpt>
      <trkpt lat="44.82327" lon="6.1513">
        <ele>1018.17</ele>
        <time>2015-08-19T09:21:31Z</time>
      </trkpt>
      <trkpt lat="44.82332" lon="6.15115">
        <ele>1017.21</ele>
        <time>2015-08-19T09:21:42Z</time>
      </trkpt>
      <trkpt lat="44.82338" lon="6.15096">
        <ele>1016.73</ele>
        <time>2015-08-19T09:21:55Z</time>
      </trkpt>
      <trkpt lat="44.82339" lon="6.15077">
        <ele>1016.73</ele>
        <time>2015-08-19T09:22:07Z</time>
      </trkpt>
      <trkpt lat="44.82339" lon="6.15058">
        <ele>1016.25</ele>
        <time>2015-08-19T09:22:18Z</time>
      </trkpt>
      <trkpt lat="44.82337" lon="6.15046">
        <ele>1015.29</ele>
        <time>2015-08-19T09:22:24Z</time>
      </trkpt>
      <trkpt lat="44.82345" lon="6.15028">
        <ele>1015.29</ele>
        <time>2015-08-19T09:22:40Z</time>
      </trkpt>
      <trkpt lat="44.82354" lon="6.15024">
        <ele>1015.29</ele>
        <time>2015-08-19T09:22:45Z</time>
      </trkpt>
      <trkpt lat="44.82372" lon="6.15016">
        <ele>1014.81</ele>
        <time>2015-08-19T09:22:57Z</time>
      </trkpt>
      <trkpt lat="44.82381" lon="6.15006">
        <ele>1014.33</ele>
        <time>2015-08-19T09:23:09Z</time>
      </trkpt>
      <trkpt lat="44.82402" lon="6.15006">
        <ele>1013.85</ele>
        <time>2015-08-19T09:23:22Z</time>
      </trkpt>
      <trkpt lat="44.82409" lon="6.15006">
        <ele>1015.29</ele>
        <time>2015-08-19T09:23:26Z</time>
      </trkpt>
      <trkpt lat="44.82419" lon="6.15002">
        <ele>1015.29</ele>
        <time>2015-08-19T09:23:32Z</time>
      </trkpt>
      <trkpt lat="44.82422" lon="6.14987">
        <ele>1014.33</ele>
        <time>2015-08-19T09:23:42Z</time>
      </trkpt>
      <trkpt lat="44.82421" lon="6.14972">
        <ele>1015.29</ele>
        <time>2015-08-19T09:23:53Z</time>
      </trkpt>
      <trkpt lat="44.82423" lon="6.14956">
        <ele>1014.33</ele>
        <time>2015-08-19T09:24:06Z</time>
      </trkpt>
      <trkpt lat="44.82423" lon="6.14941">
        <ele>1014.33</ele>
        <time>2015-08-19T09:24:21Z</time>
      </trkpt>
      <trkpt lat="44.82424" lon="6.14937">
        <ele>1013.85</ele>
        <time>2015-08-19T09:24:24Z</time>
      </trkpt>
      <trkpt lat="44.8244" lon="6.14918">
        <ele>1013.85</ele>
        <time>2015-08-19T09:24:40Z</time>
      </trkpt>
      <trkpt lat="44.82455" lon="6.14906">
        <ele>1015.77</ele>
        <time>2015-08-19T09:24:55Z</time>
      </trkpt>
      <trkpt lat="44.82463" lon="6.14897">
        <ele>1015.77</ele>
        <time>2015-08-19T09:25:04Z</time>
      </trkpt>
      <trkpt lat="44.82465" lon="6.1487">
        <ele>1015.29</ele>
        <time>2015-08-19T09:25:20Z</time>
      </trkpt>
      <trkpt lat="44.82463" lon="6.14851">
        <ele>1013.37</ele>
        <time>2015-08-19T09:25:31Z</time>
      </trkpt>
      <trkpt lat="44.82464" lon="6.14819">
        <ele>1013.85</ele>
        <time>2015-08-19T09:25:50Z</time>
      </trkpt>
      <trkpt lat="44.82463" lon="6.14788">
        <ele>1013.85</ele>
        <time>2015-08-19T09:26:07Z</time>
      </trkpt>
      <trkpt lat="44.82465" lon="6.14761">
        <ele>1013.85</ele>
        <time>2015-08-19T09:26:23Z</time>
      </trkpt>
      <trkpt lat="44.82469" lon="6.1473">
        <ele>1013.85</ele>
        <time>2015-08-19T09:26:41Z</time>
      </trkpt>
      <trkpt lat="44.82476" lon="6.14709">
        <ele>1014.33</ele>
        <time>2015-08-19T09:26:56Z</time>
      </trkpt>
      <trkpt lat="44.82482" lon="6.14692">
        <ele>1013.85</ele>
        <time>2015-08-19T09:27:09Z</time>
      </trkpt>
      <trkpt lat="44.82484" lon="6.14661">
        <ele>1015.77</ele>
        <time>2015-08-19T09:27:28Z</time>
      </trkpt>
      <trkpt lat="44.82478" lon="6.14626">
        <ele>1016.25</ele>
        <time>2015-08-19T09:27:45Z</time>
      </trkpt>
      <trkpt lat="44.82479" lon="6.14622">
        <ele>1015.77</ele>
        <time>2015-08-19T09:27:47Z</time>
      </trkpt>
      <trkpt lat="44.82486" lon="6.14605">
        <ele>1016.25</ele>
        <time>2015-08-19T09:27:58Z</time>
      </trkpt>
      <trkpt lat="44.82487" lon="6.14599">
        <ele>1016.25</ele>
        <time>2015-08-19T09:28:02Z</time>
      </trkpt>
      <trkpt lat="44.82489" lon="6.14593">
        <ele>1016.73</ele>
        <time>2015-08-19T09:28:06Z</time>
      </trkpt>
      <trkpt lat="44.8249" lon="6.14587">
        <ele>1016.25</ele>
        <time>2015-08-19T09:28:10Z</time>
      </trkpt>
      <trkpt lat="44.82489" lon="6.14567">
        <ele>1017.21</ele>
        <time>2015-08-19T09:28:22Z</time>
      </trkpt>
      <trkpt lat="44.82493" lon="6.14557">
        <ele>1017.69</ele>
        <time>2015-08-19T09:28:29Z</time>
      </trkpt>
      <trkpt lat="44.82492" lon="6.14528">
        <ele>1019.13</ele>
        <time>2015-08-19T09:28:47Z</time>
      </trkpt>
      <trkpt lat="44.82494" lon="6.14515">
        <ele>1018.17</ele>
        <time>2015-08-19T09:28:56Z</time>
      </trkpt>
      <trkpt lat="44.82495" lon="6.14508">
        <ele>1018.65</ele>
        <time>2015-08-19T09:29:01Z</time>
      </trkpt>
      <trkpt lat="44.82503" lon="6.14492">
        <ele>1019.62</ele>
        <time>2015-08-19T09:29:14Z</time>
      </trkpt>
      <trkpt lat="44.8251" lon="6.14479">
        <ele>1020.58</ele>
        <time>2015-08-19T09:29:30Z</time>
      </trkpt>
      <trkpt lat="44.82516" lon="6.14467">
        <ele>1021.54</ele>
        <time>2015-08-19T09:29:45Z</time>
      </trkpt>
      <trkpt lat="44.8252" lon="6.14463">
        <ele>1021.54</ele>
        <time>2015-08-19T09:29:52Z</time>
      </trkpt>
      <trkpt lat="44.8253" lon="6.14455">
        <ele>1020.58</ele>
        <time>2015-08-19T09:30:05Z</time>
      </trkpt>
      <trkpt lat="44.82537" lon="6.14457">
        <ele>1021.06</ele>
        <time>2015-08-19T09:30:12Z</time>
      </trkpt>
      <trkpt lat="44.8255" lon="6.14453">
        <ele>1022.5</ele>
        <time>2015-08-19T09:30:25Z</time>
      </trkpt>
      <trkpt lat="44.82554" lon="6.14449">
        <ele>1023.46</ele>
        <time>2015-08-19T09:30:31Z</time>
      </trkpt>
      <trkpt lat="44.82558" lon="6.1444">
        <ele>1023.46</ele>
        <time>2015-08-19T09:30:44Z</time>
      </trkpt>
      <trkpt lat="44.82561" lon="6.14418">
        <ele>1025.38</ele>
        <time>2015-08-19T09:31:00Z</time>
      </trkpt>
      <trkpt lat="44.82565" lon="6.14416">
        <ele>1025.86</ele>
        <time>2015-08-19T09:31:02Z</time>
      </trkpt>
      <trkpt lat="44.8257" lon="6.14418">
        <ele>1025.86</ele>
        <time>2015-08-19T09:31:04Z</time>
      </trkpt>
      <trkpt lat="44.82582" lon="6.14426">
        <ele>1026.34</ele>
        <time>2015-08-19T09:31:10Z</time>
      </trkpt>
      <trkpt lat="44.82594" lon="6.14435">
        <ele>1026.34</ele>
        <time>2015-08-19T09:31:19Z</time>
      </trkpt>
      <trkpt lat="44.82598" lon="6.14437">
        <ele>1026.34</ele>
        <time>2015-08-19T09:31:22Z</time>
      </trkpt>
      <trkpt lat="44.82602" lon="6.1444">
        <ele>1027.79</ele>
        <time>2015-08-19T09:31:26Z</time>
      </trkpt>
      <trkpt lat="44.82612" lon="6.14447">
        <ele>1028.27</ele>
        <time>2015-08-19T09:31:37Z</time>
      </trkpt>
      <trkpt lat="44.82623" lon="6.1445">
        <ele>1029.71</ele>
        <time>2015-08-19T09:31:49Z</time>
      </trkpt>
      <trkpt lat="44.82625" lon="6.14454">
        <ele>1029.71</ele>
        <time>2015-08-19T09:31:55Z</time>
      </trkpt>
      <trkpt lat="44.82631" lon="6.14466">
        <ele>1029.71</ele>
        <time>2015-08-19T09:32:12Z</time>
      </trkpt>
      <trkpt lat="44.82631" lon="6.14468">
        <ele>1030.19</ele>
        <time>2015-08-19T09:32:39Z</time>
      </trkpt>
      <trkpt lat="44.82633" lon="6.14472">
        <ele>1030.19</ele>
        <time>2015-08-19T09:33:03Z</time>
      </trkpt>
      <trkpt lat="44.82644" lon="6.14481">
        <ele>1030.67</ele>
        <time>2015-08-19T09:33:26Z</time>
      </trkpt>
      <trkpt lat="44.82649" lon="6.14473">
        <ele>1031.15</ele>
        <time>2015-08-19T09:33:40Z</time>
      </trkpt>
      <trkpt lat="44.82653" lon="6.14479">
        <ele>1031.15</ele>
        <time>2015-08-19T09:34:08Z</time>
      </trkpt>
      <trkpt lat="44.82648" lon="6.14477">
        <ele>1032.11</ele>
        <time>2015-08-19T09:34:30Z</time>
      </trkpt>
      <trkpt lat="44.82657" lon="6.14475">
        <ele>1032.59</ele>
        <time>2015-08-19T09:34:49Z</time>
      </trkpt>
      <trkpt lat="44.82666" lon="6.14471">
        <ele>1032.59</ele>
        <time>2015-08-19T09:35:10Z</time>
      </trkpt>
      <trkpt lat="44.82683" lon="6.14475">
        <ele>1033.55</ele>
        <time>2015-08-19T09:35:38Z</time>
      </trkpt>
      <trkpt lat="44.82685" lon="6.14475">
        <ele>1033.55</ele>
        <time>2015-08-19T09:35:54Z</time>
      </trkpt>
      <trkpt lat="44.82672" lon="6.14487">
        <ele>1041.25</ele>
        <time>2015-08-19T09:44:36Z</time>
      </trkpt>
      <trkpt lat="44.82655" lon="6.14503">
        <ele>1041.25</ele>
        <time>2015-08-19T09:44:49Z</time>
      </trkpt>
      <trkpt lat="44.82632" lon="6.14517">
        <ele>1043.17</ele>
        <time>2015-08-19T09:45:02Z</time>
      </trkpt>
      <trkpt lat="44.8261" lon="6.14531">
        <ele>1045.57</ele>
        <time>2015-08-19T09:45:13Z</time>
      </trkpt>
      <trkpt lat="44.82595" lon="6.14541">
        <ele>1047.97</ele>
        <time>2015-08-19T09:45:24Z</time>
      </trkpt>
      <trkpt lat="44.82595" lon="6.14542">
        <ele>1047.97</ele>
        <time>2015-08-19T09:45:25Z</time>
      </trkpt>
      <trkpt lat="44.82586" lon="6.14551">
        <ele>1049.9</ele>
        <time>2015-08-19T09:45:36Z</time>
      </trkpt>
      <trkpt lat="44.82563" lon="6.14559">
        <ele>1052.3</ele>
        <time>2015-08-19T09:45:51Z</time>
      </trkpt>
      <trkpt lat="44.82564" lon="6.14559">
        <ele>1051.34</ele>
        <time>2015-08-19T09:46:04Z</time>
      </trkpt>
      <trkpt lat="44.82577" lon="6.14558">
        <ele>1049.9</ele>
        <time>2015-08-19T09:46:09Z</time>
      </trkpt>
      <trkpt lat="44.82587" lon="6.14555">
        <ele>1052.78</ele>
        <time>2015-08-19T09:46:16Z</time>
      </trkpt>
      <trkpt lat="44.82614" lon="6.14551">
        <ele>1055.18</ele>
        <time>2015-08-19T09:46:30Z</time>
      </trkpt>
      <trkpt lat="44.82629" lon="6.14544">
        <ele>1056.63</ele>
        <time>2015-08-19T09:46:43Z</time>
      </trkpt>
      <trkpt lat="44.82631" lon="6.14545">
        <ele>1057.11</ele>
        <time>2015-08-19T09:46:45Z</time>
      </trkpt>
      <trkpt lat="44.8264" lon="6.14552">
        <ele>1059.99</ele>
        <time>2015-08-19T09:46:57Z</time>
      </trkpt>
      <trkpt lat="44.82641" lon="6.14554">
        <ele>1059.99</ele>
        <time>2015-08-19T09:46:59Z</time>
      </trkpt>
      <trkpt lat="44.82642" lon="6.14555">
        <ele>1060.47</ele>
        <time>2015-08-19T09:47:00Z</time>
      </trkpt>
      <trkpt lat="44.82659" lon="6.14571">
        <ele>1062.87</ele>
        <time>2015-08-19T09:47:13Z</time>
      </trkpt>
      <trkpt lat="44.82674" lon="6.14587">
        <ele>1064.8</ele>
        <time>2015-08-19T09:47:25Z</time>
      </trkpt>
      <trkpt lat="44.82673" lon="6.1459">
        <ele>1065.76</ele>
        <time>2015-08-19T09:47:28Z</time>
      </trkpt>
      <trkpt lat="44.82672" lon="6.14592">
        <ele>1065.76</ele>
        <time>2015-08-19T09:47:30Z</time>
      </trkpt>
      <trkpt lat="44.82665" lon="6.14606">
        <ele>1067.2</ele>
        <time>2015-08-19T09:47:43Z</time>
      </trkpt>
      <trkpt lat="44.82664" lon="6.14606">
        <ele>1067.2</ele>
        <time>2015-08-19T09:48:00Z</time>
      </trkpt>
      <trkpt lat="44.82665" lon="6.14609">
        <ele>1067.2</ele>
        <time>2015-08-19T09:48:19Z</time>
      </trkpt>
      <trkpt lat="44.82677" lon="6.14613">
        <ele>1067.2</ele>
        <time>2015-08-19T09:48:40Z</time>
      </trkpt>
      <trkpt lat="44.82679" lon="6.14613">
        <ele>1067.2</ele>
        <time>2015-08-19T09:48:49Z</time>
      </trkpt>
      <trkpt lat="44.82685" lon="6.14618">
        <ele>1068.16</ele>
        <time>2015-08-19T09:48:55Z</time>
      </trkpt>
      <trkpt lat="44.82686" lon="6.1462">
        <ele>1068.16</ele>
        <time>2015-08-19T09:48:58Z</time>
      </trkpt>
      <trkpt lat="44.82691" lon="6.14623">
        <ele>1068.64</ele>
        <time>2015-08-19T09:49:03Z</time>
      </trkpt>
      <trkpt lat="44.82699" lon="6.14624">
        <ele>1069.6</ele>
        <time>2015-08-19T09:49:08Z</time>
      </trkpt>
      <trkpt lat="44.82711" lon="6.14625">
        <ele>1071.53</ele>
        <time>2015-08-19T09:49:19Z</time>
      </trkpt>
      <trkpt lat="44.82722" lon="6.14617">
        <ele>1073.45</ele>
        <time>2015-08-19T09:49:36Z</time>
      </trkpt>
      <trkpt lat="44.82721" lon="6.14611">
        <ele>1074.41</ele>
        <time>2015-08-19T09:49:49Z</time>
      </trkpt>
      <trkpt lat="44.8272" lon="6.14606">
        <ele>1074.89</ele>
        <time>2015-08-19T09:50:11Z</time>
      </trkpt>
      <trkpt lat="44.82727" lon="6.14598">
        <ele>1076.81</ele>
        <time>2015-08-19T09:50:25Z</time>
      </trkpt>
      <trkpt lat="44.82735" lon="6.14592">
        <ele>1079.7</ele>
        <time>2015-08-19T09:50:39Z</time>
      </trkpt>
      <trkpt lat="44.82738" lon="6.14598">
        <ele>1080.18</ele>
        <time>2015-08-19T09:50:45Z</time>
      </trkpt>
      <trkpt lat="44.82739" lon="6.14599">
        <ele>1080.18</ele>
        <time>2015-08-19T09:50:46Z</time>
      </trkpt>
      <trkpt lat="44.82744" lon="6.14611">
        <ele>1082.58</ele>
        <time>2015-08-19T09:50:59Z</time>
      </trkpt>
      <trkpt lat="44.82744" lon="6.14624">
        <ele>1084.02</ele>
        <time>2015-08-19T09:51:12Z</time>
      </trkpt>
      <trkpt lat="44.82747" lon="6.14633">
        <ele>1086.43</ele>
        <time>2015-08-19T09:51:26Z</time>
      </trkpt>
      <trkpt lat="44.82745" lon="6.14648">
        <ele>1089.31</ele>
        <time>2015-08-19T09:51:41Z</time>
      </trkpt>
      <trkpt lat="44.82745" lon="6.14653">
        <ele>1089.79</ele>
        <time>2015-08-19T09:51:44Z</time>
      </trkpt>
      <trkpt lat="44.82743" lon="6.14668">
        <ele>1090.75</ele>
        <time>2015-08-19T09:51:56Z</time>
      </trkpt>
      <trkpt lat="44.82741" lon="6.14682">
        <ele>1092.68</ele>
        <time>2015-08-19T09:52:10Z</time>
      </trkpt>
      <trkpt lat="44.8274" lon="6.14697">
        <ele>1095.56</ele>
        <time>2015-08-19T09:52:26Z</time>
      </trkpt>
      <trkpt lat="44.82744" lon="6.147">
        <ele>1097.96</ele>
        <time>2015-08-19T09:52:42Z</time>
      </trkpt>
      <trkpt lat="44.82746" lon="6.14697">
        <ele>1098.92</ele>
        <time>2015-08-19T09:52:45Z</time>
      </trkpt>
      <trkpt lat="44.82753" lon="6.14685">
        <ele>1100.85</ele>
        <time>2015-08-19T09:53:00Z</time>
      </trkpt>
      <trkpt lat="44.82754" lon="6.14679">
        <ele>1102.77</ele>
        <time>2015-08-19T09:53:13Z</time>
      </trkpt>
      <trkpt lat="44.82759" lon="6.14666">
        <ele>1105.17</ele>
        <time>2015-08-19T09:53:29Z</time>
      </trkpt>
      <trkpt lat="44.82763" lon="6.14653">
        <ele>1107.1</ele>
        <time>2015-08-19T09:53:43Z</time>
      </trkpt>
      <trkpt lat="44.82769" lon="6.14643">
        <ele>1109.02</ele>
        <time>2015-08-19T09:53:55Z</time>
      </trkpt>
      <trkpt lat="44.82775" lon="6.14628">
        <ele>1111.42</ele>
        <time>2015-08-19T09:54:11Z</time>
      </trkpt>
      <trkpt lat="44.82781" lon="6.14619">
        <ele>1113.82</ele>
        <time>2015-08-19T09:54:26Z</time>
      </trkpt>
      <trkpt lat="44.82787" lon="6.14603">
        <ele>1115.75</ele>
        <time>2015-08-19T09:54:42Z</time>
      </trkpt>
      <trkpt lat="44.82793" lon="6.14588">
        <ele>1118.63</ele>
        <time>2015-08-19T09:54:59Z</time>
      </trkpt>
      <trkpt lat="44.82802" lon="6.14576">
        <ele>1121.03</ele>
        <time>2015-08-19T09:55:17Z</time>
      </trkpt>
      <trkpt lat="44.8281" lon="6.14565">
        <ele>1123.92</ele>
        <time>2015-08-19T09:55:35Z</time>
      </trkpt>
      <trkpt lat="44.82819" lon="6.14557">
        <ele>1126.8</ele>
        <time>2015-08-19T09:55:54Z</time>
      </trkpt>
      <trkpt lat="44.82826" lon="6.14546">
        <ele>1129.69</ele>
        <time>2015-08-19T09:56:11Z</time>
      </trkpt>
      <trkpt lat="44.82834" lon="6.14533">
        <ele>1131.61</ele>
        <time>2015-08-19T09:56:28Z</time>
      </trkpt>
      <trkpt lat="44.8284" lon="6.14521">
        <ele>1134.01</ele>
        <time>2015-08-19T09:56:44Z</time>
      </trkpt>
      <trkpt lat="44.82847" lon="6.14512">
        <ele>1136.42</ele>
        <time>2015-08-19T09:57:00Z</time>
      </trkpt>
      <trkpt lat="44.82855" lon="6.14505">
        <ele>1138.82</ele>
        <time>2015-08-19T09:57:15Z</time>
      </trkpt>
      <trkpt lat="44.82862" lon="6.14497">
        <ele>1141.7</ele>
        <time>2015-08-19T09:57:30Z</time>
      </trkpt>
      <trkpt lat="44.82868" lon="6.14485">
        <ele>1144.11</ele>
        <time>2015-08-19T09:57:47Z</time>
      </trkpt>
      <trkpt lat="44.82875" lon="6.14474">
        <ele>1146.03</ele>
        <time>2015-08-19T09:58:02Z</time>
      </trkpt>
      <trkpt lat="44.82881" lon="6.1446">
        <ele>1148.91</ele>
        <time>2015-08-19T09:58:17Z</time>
      </trkpt>
      <trkpt lat="44.82887" lon="6.14451">
        <ele>1150.84</ele>
        <time>2015-08-19T09:58:31Z</time>
      </trkpt>
      <trkpt lat="44.82895" lon="6.14436">
        <ele>1152.28</ele>
        <time>2015-08-19T09:58:46Z</time>
      </trkpt>
      <trkpt lat="44.82901" lon="6.14428">
        <ele>1153.72</ele>
        <time>2015-08-19T09:59:01Z</time>
      </trkpt>
      <trkpt lat="44.82902" lon="6.14431">
        <ele>1154.2</ele>
        <time>2015-08-19T09:59:19Z</time>
      </trkpt>
      <trkpt lat="44.82901" lon="6.14431">
        <ele>1154.2</ele>
        <time>2015-08-19T09:59:42Z</time>
      </trkpt>
      <trkpt lat="44.82902" lon="6.14433">
        <ele>1154.2</ele>
        <time>2015-08-19T10:00:04Z</time>
      </trkpt>
      <trkpt lat="44.82908" lon="6.14422">
        <ele>1155.64</ele>
        <time>2015-08-19T10:00:21Z</time>
      </trkpt>
      <trkpt lat="44.82917" lon="6.14409">
        <ele>1158.53</ele>
        <time>2015-08-19T10:00:38Z</time>
      </trkpt>
      <trkpt lat="44.8292" lon="6.14397">
        <ele>1159.97</ele>
        <time>2015-08-19T10:00:51Z</time>
      </trkpt>
      <trkpt lat="44.82919" lon="6.1438">
        <ele>1162.37</ele>
        <time>2015-08-19T10:01:06Z</time>
      </trkpt>
      <trkpt lat="44.82924" lon="6.14362">
        <ele>1164.77</ele>
        <time>2015-08-19T10:01:22Z</time>
      </trkpt>
      <trkpt lat="44.82935" lon="6.14352">
        <ele>1166.22</ele>
        <time>2015-08-19T10:01:37Z</time>
      </trkpt>
      <trkpt lat="44.82942" lon="6.14353">
        <ele>1167.18</ele>
        <time>2015-08-19T10:01:46Z</time>
      </trkpt>
      <trkpt lat="44.82943" lon="6.14354">
        <ele>1167.18</ele>
        <time>2015-08-19T10:01:47Z</time>
      </trkpt>
      <trkpt lat="44.82955" lon="6.14357">
        <ele>1169.1</ele>
        <time>2015-08-19T10:02:01Z</time>
      </trkpt>
      <trkpt lat="44.82964" lon="6.14354">
        <ele>1171.02</ele>
        <time>2015-08-19T10:02:14Z</time>
      </trkpt>
      <trkpt lat="44.82974" lon="6.14343">
        <ele>1173.43</ele>
        <time>2015-08-19T10:02:29Z</time>
      </trkpt>
      <trkpt lat="44.82977" lon="6.1434">
        <ele>1173.43</ele>
        <time>2015-08-19T10:02:32Z</time>
      </trkpt>
      <trkpt lat="44.82982" lon="6.14336">
        <ele>1174.39</ele>
        <time>2015-08-19T10:02:39Z</time>
      </trkpt>
      <trkpt lat="44.82983" lon="6.14336">
        <ele>1174.39</ele>
        <time>2015-08-19T10:02:40Z</time>
      </trkpt>
      <trkpt lat="44.82987" lon="6.14336">
        <ele>1174.87</ele>
        <time>2015-08-19T10:02:44Z</time>
      </trkpt>
      <trkpt lat="44.82988" lon="6.14336">
        <ele>1174.87</ele>
        <time>2015-08-19T10:02:45Z</time>
      </trkpt>
      <trkpt lat="44.82999" lon="6.14333">
        <ele>1177.27</ele>
        <time>2015-08-19T10:02:59Z</time>
      </trkpt>
      <trkpt lat="44.83012" lon="6.14338">
        <ele>1178.23</ele>
        <time>2015-08-19T10:03:14Z</time>
      </trkpt>
      <trkpt lat="44.83014" lon="6.14341">
        <ele>1178.71</ele>
        <time>2015-08-19T10:03:17Z</time>
      </trkpt>
      <trkpt lat="44.83017" lon="6.14342">
        <ele>1178.71</ele>
        <time>2015-08-19T10:03:19Z</time>
      </trkpt>
      <trkpt lat="44.8303" lon="6.14343">
        <ele>1179.67</ele>
        <time>2015-08-19T10:03:32Z</time>
      </trkpt>
      <trkpt lat="44.83035" lon="6.14336">
        <ele>1180.16</ele>
        <time>2015-08-19T10:03:39Z</time>
      </trkpt>
      <trkpt lat="44.83036" lon="6.14336">
        <ele>1180.16</ele>
        <time>2015-08-19T10:03:40Z</time>
      </trkpt>
      <trkpt lat="44.83053" lon="6.14332">
        <ele>1181.6</ele>
        <time>2015-08-19T10:03:56Z</time>
      </trkpt>
      <trkpt lat="44.83054" lon="6.14331">
        <ele>1181.6</ele>
        <time>2015-08-19T10:03:58Z</time>
      </trkpt>
      <trkpt lat="44.83055" lon="6.14329">
        <ele>1181.6</ele>
        <time>2015-08-19T10:03:59Z</time>
      </trkpt>
      <trkpt lat="44.83056" lon="6.14328">
        <ele>1181.6</ele>
        <time>2015-08-19T10:04:00Z</time>
      </trkpt>
      <trkpt lat="44.83066" lon="6.14319">
        <ele>1182.56</ele>
        <time>2015-08-19T10:04:13Z</time>
      </trkpt>
      <trkpt lat="44.83075" lon="6.14315">
        <ele>1184.96</ele>
        <time>2015-08-19T10:04:27Z</time>
      </trkpt>
      <trkpt lat="44.83084" lon="6.14309">
        <ele>1187.37</ele>
        <time>2015-08-19T10:04:41Z</time>
      </trkpt>
      <trkpt lat="44.83097" lon="6.14301">
        <ele>1188.81</ele>
        <time>2015-08-19T10:04:57Z</time>
      </trkpt>
      <trkpt lat="44.83109" lon="6.14297">
        <ele>1191.21</ele>
        <time>2015-08-19T10:05:12Z</time>
      </trkpt>
      <trkpt lat="44.83115" lon="6.14294">
        <ele>1191.69</ele>
        <time>2015-08-19T10:05:21Z</time>
      </trkpt>
      <trkpt lat="44.83123" lon="6.14285">
        <ele>1194.09</ele>
        <time>2015-08-19T10:05:35Z</time>
      </trkpt>
      <trkpt lat="44.83132" lon="6.14275">
        <ele>1196.98</ele>
        <time>2015-08-19T10:05:50Z</time>
      </trkpt>
      <trkpt lat="44.8314" lon="6.14272">
        <ele>1199.38</ele>
        <time>2015-08-19T10:06:05Z</time>
      </trkpt>
      <trkpt lat="44.83147" lon="6.14264">
        <ele>1202.75</ele>
        <time>2015-08-19T10:06:21Z</time>
      </trkpt>
      <trkpt lat="44.83154" lon="6.14259">
        <ele>1205.63</ele>
        <time>2015-08-19T10:06:36Z</time>
      </trkpt>
      <trkpt lat="44.83164" lon="6.14253">
        <ele>1208.03</ele>
        <time>2015-08-19T10:06:53Z</time>
      </trkpt>
      <trkpt lat="44.83164" lon="6.14241">
        <ele>1209</ele>
        <time>2015-08-19T10:07:04Z</time>
      </trkpt>
      <trkpt lat="44.83166" lon="6.14238">
        <ele>1209.48</ele>
        <time>2015-08-19T10:07:07Z</time>
      </trkpt>
      <trkpt lat="44.83179" lon="6.14227">
        <ele>1211.4</ele>
        <time>2015-08-19T10:07:23Z</time>
      </trkpt>
      <trkpt lat="44.8319" lon="6.14219">
        <ele>1211.88</ele>
        <time>2015-08-19T10:07:36Z</time>
      </trkpt>
      <trkpt lat="44.83203" lon="6.14217">
        <ele>1212.36</ele>
        <time>2015-08-19T10:07:50Z</time>
      </trkpt>
      <trkpt lat="44.83208" lon="6.14217">
        <ele>1212.84</ele>
        <time>2015-08-19T10:08:03Z</time>
      </trkpt>
      <trkpt lat="44.83216" lon="6.14216">
        <ele>1214.76</ele>
        <time>2015-08-19T10:08:17Z</time>
      </trkpt>
      <trkpt lat="44.83224" lon="6.14211">
        <ele>1216.21</ele>
        <time>2015-08-19T10:08:30Z</time>
      </trkpt>
      <trkpt lat="44.83232" lon="6.14206">
        <ele>1216.69</ele>
        <time>2015-08-19T10:08:44Z</time>
      </trkpt>
      <trkpt lat="44.83237" lon="6.14189">
        <ele>1216.21</ele>
        <time>2015-08-19T10:09:01Z</time>
      </trkpt>
      <trkpt lat="44.83236" lon="6.14181">
        <ele>1216.21</ele>
        <time>2015-08-19T10:09:06Z</time>
      </trkpt>
      <trkpt lat="44.83236" lon="6.1418">
        <ele>1216.21</ele>
        <time>2015-08-19T10:09:07Z</time>
      </trkpt>
      <trkpt lat="44.83236" lon="6.1417">
        <ele>1217.17</ele>
        <time>2015-08-19T10:09:24Z</time>
      </trkpt>
      <trkpt lat="44.83237" lon="6.14159">
        <ele>1219.57</ele>
        <time>2015-08-19T10:09:38Z</time>
      </trkpt>
      <trkpt lat="44.83238" lon="6.14157">
        <ele>1221.01</ele>
        <time>2015-08-19T10:09:54Z</time>
      </trkpt>
      <trkpt lat="44.83238" lon="6.14156">
        <ele>1221.01</ele>
        <time>2015-08-19T10:10:17Z</time>
      </trkpt>
      <trkpt lat="44.83241" lon="6.14148">
        <ele>1223.9</ele>
        <time>2015-08-19T10:10:27Z</time>
      </trkpt>
      <trkpt lat="44.83251" lon="6.14144">
        <ele>1226.3</ele>
        <time>2015-08-19T10:10:41Z</time>
      </trkpt>
      <trkpt lat="44.83262" lon="6.14142">
        <ele>1229.18</ele>
        <time>2015-08-19T10:10:56Z</time>
      </trkpt>
      <trkpt lat="44.83258" lon="6.14152">
        <ele>1231.11</ele>
        <time>2015-08-19T10:11:09Z</time>
      </trkpt>
      <trkpt lat="44.83264" lon="6.14152">
        <ele>1233.03</ele>
        <time>2015-08-19T10:11:21Z</time>
      </trkpt>
      <trkpt lat="44.83265" lon="6.14154">
        <ele>1233.03</ele>
        <time>2015-08-19T10:11:34Z</time>
      </trkpt>
      <trkpt lat="44.83267" lon="6.14151">
        <ele>1233.51</ele>
        <time>2015-08-19T10:11:59Z</time>
      </trkpt>
      <trkpt lat="44.83274" lon="6.14146">
        <ele>1236.39</ele>
        <time>2015-08-19T10:12:13Z</time>
      </trkpt>
      <trkpt lat="44.8327" lon="6.14158">
        <ele>1239.76</ele>
        <time>2015-08-19T10:12:27Z</time>
      </trkpt>
      <trkpt lat="44.83273" lon="6.14155">
        <ele>1241.68</ele>
        <time>2015-08-19T10:12:41Z</time>
      </trkpt>
      <trkpt lat="44.83285" lon="6.14149">
        <ele>1242.64</ele>
        <time>2015-08-19T10:12:56Z</time>
      </trkpt>
      <trkpt lat="44.83289" lon="6.14153">
        <ele>1245.53</ele>
        <time>2015-08-19T10:13:08Z</time>
      </trkpt>
      <trkpt lat="44.83281" lon="6.14159">
        <ele>1246.97</ele>
        <time>2015-08-19T10:13:24Z</time>
      </trkpt>
      <trkpt lat="44.83286" lon="6.14158">
        <ele>1249.85</ele>
        <time>2015-08-19T10:13:38Z</time>
      </trkpt>
      <trkpt lat="44.83294" lon="6.14155">
        <ele>1251.77</ele>
        <time>2015-08-19T10:13:53Z</time>
      </trkpt>
      <trkpt lat="44.83297" lon="6.14142">
        <ele>1253.7</ele>
        <time>2015-08-19T10:14:07Z</time>
      </trkpt>
      <trkpt lat="44.83306" lon="6.14137">
        <ele>1254.18</ele>
        <time>2015-08-19T10:14:21Z</time>
      </trkpt>
      <trkpt lat="44.83314" lon="6.14123">
        <ele>1252.74</ele>
        <time>2015-08-19T10:14:36Z</time>
      </trkpt>
      <trkpt lat="44.83319" lon="6.14116">
        <ele>1253.22</ele>
        <time>2015-08-19T10:14:49Z</time>
      </trkpt>
      <trkpt lat="44.83322" lon="6.14112">
        <ele>1253.22</ele>
        <time>2015-08-19T10:14:53Z</time>
      </trkpt>
      <trkpt lat="44.83323" lon="6.14111">
        <ele>1252.74</ele>
        <time>2015-08-19T10:14:54Z</time>
      </trkpt>
      <trkpt lat="44.83332" lon="6.14102">
        <ele>1253.22</ele>
        <time>2015-08-19T10:15:07Z</time>
      </trkpt>
      <trkpt lat="44.83342" lon="6.14095">
        <ele>1254.66</ele>
        <time>2015-08-19T10:15:21Z</time>
      </trkpt>
      <trkpt lat="44.83352" lon="6.14092">
        <ele>1256.58</ele>
        <time>2015-08-19T10:15:35Z</time>
      </trkpt>
      <trkpt lat="44.8336" lon="6.14086">
        <ele>1259.46</ele>
        <time>2015-08-19T10:15:50Z</time>
      </trkpt>
      <trkpt lat="44.8337" lon="6.14081">
        <ele>1262.35</ele>
        <time>2015-08-19T10:16:05Z</time>
      </trkpt>
      <trkpt lat="44.83378" lon="6.14079">
        <ele>1264.75</ele>
        <time>2015-08-19T10:16:19Z</time>
      </trkpt>
      <trkpt lat="44.83385" lon="6.14077">
        <ele>1267.16</ele>
        <time>2015-08-19T10:16:33Z</time>
      </trkpt>
      <trkpt lat="44.83392" lon="6.14079">
        <ele>1270.04</ele>
        <time>2015-08-19T10:16:47Z</time>
      </trkpt>
      <trkpt lat="44.83394" lon="6.14079">
        <ele>1271.48</ele>
        <time>2015-08-19T10:17:00Z</time>
      </trkpt>
      <trkpt lat="44.83395" lon="6.1408">
        <ele>1271.48</ele>
        <time>2015-08-19T10:17:18Z</time>
      </trkpt>
      <trkpt lat="44.834" lon="6.14072">
        <ele>1272.44</ele>
        <time>2015-08-19T10:17:39Z</time>
      </trkpt>
      <trkpt lat="44.8341" lon="6.14062">
        <ele>1274.36</ele>
        <time>2015-08-19T10:17:53Z</time>
      </trkpt>
      <trkpt lat="44.83419" lon="6.14051">
        <ele>1276.77</ele>
        <time>2015-08-19T10:18:08Z</time>
      </trkpt>
      <trkpt lat="44.83426" lon="6.14049">
        <ele>1279.17</ele>
        <time>2015-08-19T10:18:23Z</time>
      </trkpt>
      <trkpt lat="44.83424" lon="6.14059">
        <ele>1280.61</ele>
        <time>2015-08-19T10:18:31Z</time>
      </trkpt>
      <trkpt lat="44.83426" lon="6.14066">
        <ele>1283.5</ele>
        <time>2015-08-19T10:18:45Z</time>
      </trkpt>
      <trkpt lat="44.83432" lon="6.14057">
        <ele>1286.38</ele>
        <time>2015-08-19T10:19:02Z</time>
      </trkpt>
      <trkpt lat="44.8343" lon="6.14068">
        <ele>1288.3</ele>
        <time>2015-08-19T10:19:16Z</time>
      </trkpt>
      <trkpt lat="44.83428" lon="6.14084">
        <ele>1291.19</ele>
        <time>2015-08-19T10:19:33Z</time>
      </trkpt>
      <trkpt lat="44.8342" lon="6.14093">
        <ele>1294.55</ele>
        <time>2015-08-19T10:19:52Z</time>
      </trkpt>
      <trkpt lat="44.83419" lon="6.14102">
        <ele>1295.99</ele>
        <time>2015-08-19T10:20:07Z</time>
      </trkpt>
      <trkpt lat="44.83425" lon="6.14094">
        <ele>1298.4</ele>
        <time>2015-08-19T10:20:22Z</time>
      </trkpt>
      <trkpt lat="44.83435" lon="6.14087">
        <ele>1300.8</ele>
        <time>2015-08-19T10:20:39Z</time>
      </trkpt>
      <trkpt lat="44.83441" lon="6.14088">
        <ele>1302.72</ele>
        <time>2015-08-19T10:20:53Z</time>
      </trkpt>
      <trkpt lat="44.83435" lon="6.141">
        <ele>1305.61</ele>
        <time>2015-08-19T10:21:08Z</time>
      </trkpt>
      <trkpt lat="44.83428" lon="6.14114">
        <ele>1308.01</ele>
        <time>2015-08-19T10:21:26Z</time>
      </trkpt>
      <trkpt lat="44.83422" lon="6.14124">
        <ele>1310.9</ele>
        <time>2015-08-19T10:21:43Z</time>
      </trkpt>
      <trkpt lat="44.83419" lon="6.14129">
        <ele>1313.3</ele>
        <time>2015-08-19T10:21:58Z</time>
      </trkpt>
      <trkpt lat="44.83427" lon="6.1412">
        <ele>1315.22</ele>
        <time>2015-08-19T10:22:14Z</time>
      </trkpt>
      <trkpt lat="44.83438" lon="6.14105">
        <ele>1316.66</ele>
        <time>2015-08-19T10:22:30Z</time>
      </trkpt>
      <trkpt lat="44.83451" lon="6.14098">
        <ele>1318.1</ele>
        <time>2015-08-19T10:22:46Z</time>
      </trkpt>
      <trkpt lat="44.83461" lon="6.14099">
        <ele>1320.51</ele>
        <time>2015-08-19T10:23:01Z</time>
      </trkpt>
      <trkpt lat="44.83467" lon="6.14087">
        <ele>1321.95</ele>
        <time>2015-08-19T10:23:14Z</time>
      </trkpt>
      <trkpt lat="44.83468" lon="6.14086">
        <ele>1321.95</ele>
        <time>2015-08-19T10:23:15Z</time>
      </trkpt>
      <trkpt lat="44.83478" lon="6.14076">
        <ele>1322.43</ele>
        <time>2015-08-19T10:23:30Z</time>
      </trkpt>
      <trkpt lat="44.83479" lon="6.14062">
        <ele>1325.31</ele>
        <time>2015-08-19T10:23:44Z</time>
      </trkpt>
      <trkpt lat="44.83488" lon="6.14052">
        <ele>1327.24</ele>
        <time>2015-08-19T10:23:59Z</time>
      </trkpt>
      <trkpt lat="44.83487" lon="6.14065">
        <ele>1329.16</ele>
        <time>2015-08-19T10:24:13Z</time>
      </trkpt>
      <trkpt lat="44.83489" lon="6.14073">
        <ele>1332.52</ele>
        <time>2015-08-19T10:24:26Z</time>
      </trkpt>
      <trkpt lat="44.8349" lon="6.14085">
        <ele>1334.93</ele>
        <time>2015-08-19T10:24:41Z</time>
      </trkpt>
      <trkpt lat="44.83496" lon="6.14072">
        <ele>1337.33</ele>
        <time>2015-08-19T10:24:55Z</time>
      </trkpt>
      <trkpt lat="44.83504" lon="6.14064">
        <ele>1340.22</ele>
        <time>2015-08-19T10:25:12Z</time>
      </trkpt>
      <trkpt lat="44.83511" lon="6.14063">
        <ele>1342.14</ele>
        <time>2015-08-19T10:25:25Z</time>
      </trkpt>
      <trkpt lat="44.83512" lon="6.14052">
        <ele>1345.02</ele>
        <time>2015-08-19T10:25:40Z</time>
      </trkpt>
      <trkpt lat="44.83516" lon="6.1404">
        <ele>1348.39</ele>
        <time>2015-08-19T10:25:59Z</time>
      </trkpt>
      <trkpt lat="44.83519" lon="6.14048">
        <ele>1350.31</ele>
        <time>2015-08-19T10:26:13Z</time>
      </trkpt>
      <trkpt lat="44.8352" lon="6.14063">
        <ele>1353.19</ele>
        <time>2015-08-19T10:26:30Z</time>
      </trkpt>
      <trkpt lat="44.83522" lon="6.14059">
        <ele>1356.56</ele>
        <time>2015-08-19T10:26:45Z</time>
      </trkpt>
      <trkpt lat="44.83529" lon="6.14042">
        <ele>1358.48</ele>
        <time>2015-08-19T10:27:03Z</time>
      </trkpt>
      <trkpt lat="44.83538" lon="6.14033">
        <ele>1359.92</ele>
        <time>2015-08-19T10:27:18Z</time>
      </trkpt>
      <trkpt lat="44.83548" lon="6.14025">
        <ele>1362.33</ele>
        <time>2015-08-19T10:27:34Z</time>
      </trkpt>
      <trkpt lat="44.83557" lon="6.14015">
        <ele>1364.25</ele>
        <time>2015-08-19T10:27:49Z</time>
      </trkpt>
      <trkpt lat="44.83566" lon="6.14006">
        <ele>1366.17</ele>
        <time>2015-08-19T10:28:03Z</time>
      </trkpt>
      <trkpt lat="44.83573" lon="6.13995">
        <ele>1369.05</ele>
        <time>2015-08-19T10:28:19Z</time>
      </trkpt>
      <trkpt lat="44.83586" lon="6.13989">
        <ele>1371.46</ele>
        <time>2015-08-19T10:28:36Z</time>
      </trkpt>
      <trkpt lat="44.83594" lon="6.13981">
        <ele>1372.9</ele>
        <time>2015-08-19T10:28:51Z</time>
      </trkpt>
      <trkpt lat="44.83597" lon="6.13985">
        <ele>1375.3</ele>
        <time>2015-08-19T10:29:05Z</time>
      </trkpt>
      <trkpt lat="44.83593" lon="6.14001">
        <ele>1377.23</ele>
        <time>2015-08-19T10:29:18Z</time>
      </trkpt>
      <trkpt lat="44.83586" lon="6.14015">
        <ele>1378.67</ele>
        <time>2015-08-19T10:29:32Z</time>
      </trkpt>
      <trkpt lat="44.83584" lon="6.14032">
        <ele>1380.59</ele>
        <time>2015-08-19T10:29:48Z</time>
      </trkpt>
      <trkpt lat="44.83578" lon="6.1405">
        <ele>1382.99</ele>
        <time>2015-08-19T10:30:05Z</time>
      </trkpt>
      <trkpt lat="44.83574" lon="6.14062">
        <ele>1384.44</ele>
        <time>2015-08-19T10:30:19Z</time>
      </trkpt>
      <trkpt lat="44.83568" lon="6.14077">
        <ele>1386.36</ele>
        <time>2015-08-19T10:30:34Z</time>
      </trkpt>
      <trkpt lat="44.83566" lon="6.14089">
        <ele>1387.8</ele>
        <time>2015-08-19T10:30:47Z</time>
      </trkpt>
      <trkpt lat="44.83562" lon="6.14103">
        <ele>1389.72</ele>
        <time>2015-08-19T10:31:01Z</time>
      </trkpt>
      <trkpt lat="44.83554" lon="6.14116">
        <ele>1391.65</ele>
        <time>2015-08-19T10:31:16Z</time>
      </trkpt>
      <trkpt lat="44.83547" lon="6.14128">
        <ele>1394.53</ele>
        <time>2015-08-19T10:31:30Z</time>
      </trkpt>
      <trkpt lat="44.83546" lon="6.14146">
        <ele>1395.97</ele>
        <time>2015-08-19T10:31:45Z</time>
      </trkpt>
      <trkpt lat="44.83536" lon="6.14158">
        <ele>1397.41</ele>
        <time>2015-08-19T10:32:01Z</time>
      </trkpt>
      <trkpt lat="44.83528" lon="6.14171">
        <ele>1399.82</ele>
        <time>2015-08-19T10:32:17Z</time>
      </trkpt>
      <trkpt lat="44.83521" lon="6.14183">
        <ele>1400.78</ele>
        <time>2015-08-19T10:32:32Z</time>
      </trkpt>
      <trkpt lat="44.83521" lon="6.1418">
        <ele>1400.3</ele>
        <time>2015-08-19T10:32:50Z</time>
      </trkpt>
      <trkpt lat="44.8352" lon="6.14178">
        <ele>1400.3</ele>
        <time>2015-08-19T10:33:09Z</time>
      </trkpt>
      <trkpt lat="44.83519" lon="6.14183">
        <ele>1401.26</ele>
        <time>2015-08-19T10:33:29Z</time>
      </trkpt>
      <trkpt lat="44.83516" lon="6.14186">
        <ele>1401.74</ele>
        <time>2015-08-19T10:33:46Z</time>
      </trkpt>
      <trkpt lat="44.83508" lon="6.14192">
        <ele>1402.7</ele>
        <time>2015-08-19T10:34:06Z</time>
      </trkpt>
      <trkpt lat="44.83498" lon="6.14206">
        <ele>1404.62</ele>
        <time>2015-08-19T10:34:22Z</time>
      </trkpt>
      <trkpt lat="44.83491" lon="6.14224">
        <ele>1407.03</ele>
        <time>2015-08-19T10:34:38Z</time>
      </trkpt>
      <trkpt lat="44.83485" lon="6.14239">
        <ele>1408.47</ele>
        <time>2015-08-19T10:34:53Z</time>
      </trkpt>
      <trkpt lat="44.83483" lon="6.14252">
        <ele>1409.91</ele>
        <time>2015-08-19T10:35:06Z</time>
      </trkpt>
      <trkpt lat="44.83474" lon="6.14266">
        <ele>1411.83</ele>
        <time>2015-08-19T10:35:21Z</time>
      </trkpt>
      <trkpt lat="44.83468" lon="6.14276">
        <ele>1414.72</ele>
        <time>2015-08-19T10:35:35Z</time>
      </trkpt>
      <trkpt lat="44.83472" lon="6.14274">
        <ele>1415.68</ele>
        <time>2015-08-19T10:35:42Z</time>
      </trkpt>
      <trkpt lat="44.8348" lon="6.1427">
        <ele>1418.56</ele>
        <time>2015-08-19T10:35:57Z</time>
      </trkpt>
      <trkpt lat="44.83478" lon="6.14267">
        <ele>1419.04</ele>
        <time>2015-08-19T10:36:14Z</time>
      </trkpt>
      <trkpt lat="44.83479" lon="6.14268">
        <ele>1418.56</ele>
        <time>2015-08-19T10:36:37Z</time>
      </trkpt>
      <trkpt lat="44.83478" lon="6.14268">
        <ele>1418.56</ele>
        <time>2015-08-19T10:37:00Z</time>
      </trkpt>
      <trkpt lat="44.83477" lon="6.14266">
        <ele>1418.56</ele>
        <time>2015-08-19T10:37:27Z</time>
      </trkpt>
      <trkpt lat="44.8348" lon="6.14268">
        <ele>1417.6</ele>
        <time>2015-08-19T10:37:48Z</time>
      </trkpt>
      <trkpt lat="44.8348" lon="6.14268">
        <ele>1418.56</ele>
        <time>2015-08-19T10:38:09Z</time>
      </trkpt>
      <trkpt lat="44.8348" lon="6.14266">
        <ele>1419.04</ele>
        <time>2015-08-19T10:38:38Z</time>
      </trkpt>
      <trkpt lat="44.8348" lon="6.14267">
        <ele>1419.04</ele>
        <time>2015-08-19T10:39:02Z</time>
      </trkpt>
      <trkpt lat="44.83485" lon="6.14267">
        <ele>1420</ele>
        <time>2015-08-19T10:39:25Z</time>
      </trkpt>
      <trkpt lat="44.83491" lon="6.1426">
        <ele>1422.89</ele>
        <time>2015-08-19T10:39:39Z</time>
      </trkpt>
      <trkpt lat="44.83501" lon="6.14251">
        <ele>1425.77</ele>
        <time>2015-08-19T10:39:55Z</time>
      </trkpt>
      <trkpt lat="44.83507" lon="6.14244">
        <ele>1428.18</ele>
        <time>2015-08-19T10:40:09Z</time>
      </trkpt>
      <trkpt lat="44.83516" lon="6.14238">
        <ele>1431.06</ele>
        <time>2015-08-19T10:40:23Z</time>
      </trkpt>
      <trkpt lat="44.83523" lon="6.14234">
        <ele>1433.46</ele>
        <time>2015-08-19T10:40:38Z</time>
      </trkpt>
      <trkpt lat="44.83533" lon="6.1423">
        <ele>1436.83</ele>
        <time>2015-08-19T10:40:53Z</time>
      </trkpt>
      <trkpt lat="44.83542" lon="6.14227">
        <ele>1438.75</ele>
        <time>2015-08-19T10:41:08Z</time>
      </trkpt>
      <trkpt lat="44.83538" lon="6.14239">
        <ele>1440.19</ele>
        <time>2015-08-19T10:41:19Z</time>
      </trkpt>
      <trkpt lat="44.83532" lon="6.14253">
        <ele>1443.08</ele>
        <time>2015-08-19T10:41:37Z</time>
      </trkpt>
      <trkpt lat="44.83528" lon="6.14265">
        <ele>1445</ele>
        <time>2015-08-19T10:41:53Z</time>
      </trkpt>
      <trkpt lat="44.83526" lon="6.14276">
        <ele>1446.92</ele>
        <time>2015-08-19T10:42:06Z</time>
      </trkpt>
      <trkpt lat="44.83523" lon="6.14279">
        <ele>1449.32</ele>
        <time>2015-08-19T10:42:22Z</time>
      </trkpt>
      <trkpt lat="44.83529" lon="6.14272">
        <ele>1452.21</ele>
        <time>2015-08-19T10:42:39Z</time>
      </trkpt>
      <trkpt lat="44.83537" lon="6.14267">
        <ele>1453.65</ele>
        <time>2015-08-19T10:42:53Z</time>
      </trkpt>
      <trkpt lat="44.83546" lon="6.14259">
        <ele>1456.05</ele>
        <time>2015-08-19T10:43:08Z</time>
      </trkpt>
      <trkpt lat="44.83556" lon="6.14255">
        <ele>1458.94</ele>
        <time>2015-08-19T10:43:23Z</time>
      </trkpt>
      <trkpt lat="44.83566" lon="6.14256">
        <ele>1461.82</ele>
        <time>2015-08-19T10:43:39Z</time>
      </trkpt>
      <trkpt lat="44.83562" lon="6.14262">
        <ele>1462.78</ele>
        <time>2015-08-19T10:43:50Z</time>
      </trkpt>
      <trkpt lat="44.83554" lon="6.14274">
        <ele>1464.23</ele>
        <time>2015-08-19T10:44:05Z</time>
      </trkpt>
      <trkpt lat="44.83547" lon="6.14287">
        <ele>1466.15</ele>
        <time>2015-08-19T10:44:20Z</time>
      </trkpt>
      <trkpt lat="44.8355" lon="6.14285">
        <ele>1467.59</ele>
        <time>2015-08-19T10:44:33Z</time>
      </trkpt>
      <trkpt lat="44.83558" lon="6.1428">
        <ele>1470.47</ele>
        <time>2015-08-19T10:44:48Z</time>
      </trkpt>
      <trkpt lat="44.83568" lon="6.14276">
        <ele>1472.88</ele>
        <time>2015-08-19T10:45:03Z</time>
      </trkpt>
      <trkpt lat="44.83578" lon="6.14277">
        <ele>1475.28</ele>
        <time>2015-08-19T10:45:18Z</time>
      </trkpt>
      <trkpt lat="44.83586" lon="6.1428">
        <ele>1477.68</ele>
        <time>2015-08-19T10:45:32Z</time>
      </trkpt>
      <trkpt lat="44.83591" lon="6.14264">
        <ele>1479.13</ele>
        <time>2015-08-19T10:45:48Z</time>
      </trkpt>
      <trkpt lat="44.83593" lon="6.14255">
        <ele>1480.09</ele>
        <time>2015-08-19T10:45:55Z</time>
      </trkpt>
      <trkpt lat="44.83597" lon="6.14249">
        <ele>1480.57</ele>
        <time>2015-08-19T10:46:01Z</time>
      </trkpt>
      <trkpt lat="44.83602" lon="6.14248">
        <ele>1482.49</ele>
        <time>2015-08-19T10:46:15Z</time>
      </trkpt>
      <trkpt lat="44.83603" lon="6.14247">
        <ele>1481.53</ele>
        <time>2015-08-19T10:46:37Z</time>
      </trkpt>
      <trkpt lat="44.83608" lon="6.14246">
        <ele>1482.49</ele>
        <time>2015-08-19T10:47:00Z</time>
      </trkpt>
      <trkpt lat="44.83613" lon="6.14247">
        <ele>1483.93</ele>
        <time>2015-08-19T10:47:16Z</time>
      </trkpt>
      <trkpt lat="44.83622" lon="6.14244">
        <ele>1486.82</ele>
        <time>2015-08-19T10:47:32Z</time>
      </trkpt>
      <trkpt lat="44.83631" lon="6.14245">
        <ele>1489.22</ele>
        <time>2015-08-19T10:47:45Z</time>
      </trkpt>
      <trkpt lat="44.83638" lon="6.14238">
        <ele>1491.14</ele>
        <time>2015-08-19T10:48:00Z</time>
      </trkpt>
      <trkpt lat="44.8364" lon="6.14237">
        <ele>1492.1</ele>
        <time>2015-08-19T10:48:05Z</time>
      </trkpt>
      <trkpt lat="44.83649" lon="6.14234">
        <ele>1494.51</ele>
        <time>2015-08-19T10:48:20Z</time>
      </trkpt>
      <trkpt lat="44.83654" lon="6.14232">
        <ele>1495.95</ele>
        <time>2015-08-19T10:48:35Z</time>
      </trkpt>
      <trkpt lat="44.83663" lon="6.14228">
        <ele>1497.87</ele>
        <time>2015-08-19T10:48:51Z</time>
      </trkpt>
      <trkpt lat="44.83668" lon="6.14226">
        <ele>1500.27</ele>
        <time>2015-08-19T10:49:02Z</time>
      </trkpt>
      <trkpt lat="44.83679" lon="6.14222">
        <ele>1502.68</ele>
        <time>2015-08-19T10:49:17Z</time>
      </trkpt>
      <trkpt lat="44.83689" lon="6.14217">
        <ele>1504.6</ele>
        <time>2015-08-19T10:49:32Z</time>
      </trkpt>
      <trkpt lat="44.83699" lon="6.1421">
        <ele>1507.48</ele>
        <time>2015-08-19T10:49:50Z</time>
      </trkpt>
      <trkpt lat="44.83702" lon="6.14214">
        <ele>1508.93</ele>
        <time>2015-08-19T10:50:03Z</time>
      </trkpt>
      <trkpt lat="44.83693" lon="6.14228">
        <ele>1509.41</ele>
        <time>2015-08-19T10:50:19Z</time>
      </trkpt>
      <trkpt lat="44.83689" lon="6.14231">
        <ele>1511.33</ele>
        <time>2015-08-19T10:50:26Z</time>
      </trkpt>
      <trkpt lat="44.83682" lon="6.14241">
        <ele>1512.77</ele>
        <time>2015-08-19T10:50:40Z</time>
      </trkpt>
      <trkpt lat="44.83674" lon="6.14256">
        <ele>1515.66</ele>
        <time>2015-08-19T10:51:00Z</time>
      </trkpt>
      <trkpt lat="44.83673" lon="6.14259">
        <ele>1516.14</ele>
        <time>2015-08-19T10:51:15Z</time>
      </trkpt>
      <trkpt lat="44.8367" lon="6.14258">
        <ele>1516.62</ele>
        <time>2015-08-19T10:51:30Z</time>
      </trkpt>
      <trkpt lat="44.83677" lon="6.14253">
        <ele>1517.1</ele>
        <time>2015-08-19T10:51:52Z</time>
      </trkpt>
      <trkpt lat="44.83687" lon="6.14244">
        <ele>1519.02</ele>
        <time>2015-08-19T10:52:06Z</time>
      </trkpt>
      <trkpt lat="44.83699" lon="6.14237">
        <ele>1521.42</ele>
        <time>2015-08-19T10:52:21Z</time>
      </trkpt>
      <trkpt lat="44.83707" lon="6.14233">
        <ele>1523.35</ele>
        <time>2015-08-19T10:52:36Z</time>
      </trkpt>
      <trkpt lat="44.83717" lon="6.14231">
        <ele>1525.75</ele>
        <time>2015-08-19T10:52:51Z</time>
      </trkpt>
      <trkpt lat="44.83725" lon="6.14228">
        <ele>1527.67</ele>
        <time>2015-08-19T10:53:05Z</time>
      </trkpt>
      <trkpt lat="44.83734" lon="6.14219">
        <ele>1530.08</ele>
        <time>2015-08-19T10:53:21Z</time>
      </trkpt>
      <trkpt lat="44.83742" lon="6.14211">
        <ele>1532.48</ele>
        <time>2015-08-19T10:53:36Z</time>
      </trkpt>
      <trkpt lat="44.83751" lon="6.14201">
        <ele>1534.88</ele>
        <time>2015-08-19T10:53:50Z</time>
      </trkpt>
      <trkpt lat="44.8376" lon="6.14194">
        <ele>1537.29</ele>
        <time>2015-08-19T10:54:04Z</time>
      </trkpt>
      <trkpt lat="44.83766" lon="6.14192">
        <ele>1538.73</ele>
        <time>2015-08-19T10:54:18Z</time>
      </trkpt>
      <trkpt lat="44.83772" lon="6.1419">
        <ele>1540.65</ele>
        <time>2015-08-19T10:54:32Z</time>
      </trkpt>
      <trkpt lat="44.8378" lon="6.14183">
        <ele>1542.09</ele>
        <time>2015-08-19T10:54:47Z</time>
      </trkpt>
      <trkpt lat="44.83788" lon="6.1418">
        <ele>1544.98</ele>
        <time>2015-08-19T10:55:02Z</time>
      </trkpt>
      <trkpt lat="44.83795" lon="6.14182">
        <ele>1546.9</ele>
        <time>2015-08-19T10:55:15Z</time>
      </trkpt>
      <trkpt lat="44.83789" lon="6.14195">
        <ele>1549.3</ele>
        <time>2015-08-19T10:55:31Z</time>
      </trkpt>
      <trkpt lat="44.83783" lon="6.14207">
        <ele>1551.22</ele>
        <time>2015-08-19T10:55:45Z</time>
      </trkpt>
      <trkpt lat="44.83777" lon="6.14219">
        <ele>1553.15</ele>
        <time>2015-08-19T10:56:00Z</time>
      </trkpt>
      <trkpt lat="44.83772" lon="6.14232">
        <ele>1555.55</ele>
        <time>2015-08-19T10:56:14Z</time>
      </trkpt>
      <trkpt lat="44.83766" lon="6.14247">
        <ele>1556.99</ele>
        <time>2015-08-19T10:56:28Z</time>
      </trkpt>
      <trkpt lat="44.83757" lon="6.14258">
        <ele>1559.4</ele>
        <time>2015-08-19T10:56:44Z</time>
      </trkpt>
      <trkpt lat="44.83758" lon="6.14261">
        <ele>1561.32</ele>
        <time>2015-08-19T10:57:00Z</time>
      </trkpt>
      <trkpt lat="44.83768" lon="6.14254">
        <ele>1563.72</ele>
        <time>2015-08-19T10:57:17Z</time>
      </trkpt>
      <trkpt lat="44.83776" lon="6.14249">
        <ele>1566.12</ele>
        <time>2015-08-19T10:57:31Z</time>
      </trkpt>
      <trkpt lat="44.83782" lon="6.14242">
        <ele>1567.57</ele>
        <time>2015-08-19T10:57:42Z</time>
      </trkpt>
      <trkpt lat="44.83793" lon="6.14231">
        <ele>1569.49</ele>
        <time>2015-08-19T10:57:58Z</time>
      </trkpt>
      <trkpt lat="44.83807" lon="6.14225">
        <ele>1571.41</ele>
        <time>2015-08-19T10:58:16Z</time>
      </trkpt>
      <trkpt lat="44.83814" lon="6.1422">
        <ele>1573.33</ele>
        <time>2015-08-19T10:58:30Z</time>
      </trkpt>
      <trkpt lat="44.83823" lon="6.14218">
        <ele>1575.74</ele>
        <time>2015-08-19T10:58:46Z</time>
      </trkpt>
      <trkpt lat="44.83831" lon="6.14212">
        <ele>1577.66</ele>
        <time>2015-08-19T10:59:01Z</time>
      </trkpt>
      <trkpt lat="44.83841" lon="6.14206">
        <ele>1580.06</ele>
        <time>2015-08-19T10:59:17Z</time>
      </trkpt>
      <trkpt lat="44.8385" lon="6.14209">
        <ele>1582.47</ele>
        <time>2015-08-19T10:59:32Z</time>
      </trkpt>
      <trkpt lat="44.83857" lon="6.14209">
        <ele>1584.87</ele>
        <time>2015-08-19T10:59:47Z</time>
      </trkpt>
      <trkpt lat="44.83866" lon="6.14198">
        <ele>1586.79</ele>
        <time>2015-08-19T11:00:03Z</time>
      </trkpt>
      <trkpt lat="44.83878" lon="6.14193">
        <ele>1589.2</ele>
        <time>2015-08-19T11:00:20Z</time>
      </trkpt>
      <trkpt lat="44.83887" lon="6.14192">
        <ele>1590.64</ele>
        <time>2015-08-19T11:00:33Z</time>
      </trkpt>
      <trkpt lat="44.83897" lon="6.14191">
        <ele>1592.08</ele>
        <time>2015-08-19T11:00:47Z</time>
      </trkpt>
      <trkpt lat="44.83908" lon="6.14188">
        <ele>1594.48</ele>
        <time>2015-08-19T11:01:03Z</time>
      </trkpt>
      <trkpt lat="44.83909" lon="6.14187">
        <ele>1594.96</ele>
        <time>2015-08-19T11:01:05Z</time>
      </trkpt>
      <trkpt lat="44.83919" lon="6.14183">
        <ele>1596.89</ele>
        <time>2015-08-19T11:01:19Z</time>
      </trkpt>
      <trkpt lat="44.83929" lon="6.14178">
        <ele>1599.29</ele>
        <time>2015-08-19T11:01:35Z</time>
      </trkpt>
      <trkpt lat="44.83939" lon="6.14174">
        <ele>1601.69</ele>
        <time>2015-08-19T11:01:51Z</time>
      </trkpt>
      <trkpt lat="44.83949" lon="6.14169">
        <ele>1604.1</ele>
        <time>2015-08-19T11:02:07Z</time>
      </trkpt>
      <trkpt lat="44.83958" lon="6.14165">
        <ele>1606.02</ele>
        <time>2015-08-19T11:02:20Z</time>
      </trkpt>
      <trkpt lat="44.83968" lon="6.14163">
        <ele>1608.42</ele>
        <time>2015-08-19T11:02:35Z</time>
      </trkpt>
      <trkpt lat="44.83977" lon="6.14159">
        <ele>1610.35</ele>
        <time>2015-08-19T11:02:50Z</time>
      </trkpt>
      <trkpt lat="44.8398" lon="6.14163">
        <ele>1610.83</ele>
        <time>2015-08-19T11:03:06Z</time>
      </trkpt>
      <trkpt lat="44.83981" lon="6.14163">
        <ele>1610.83</ele>
        <time>2015-08-19T11:03:22Z</time>
      </trkpt>
      <trkpt lat="44.83982" lon="6.14163">
        <ele>1611.31</ele>
        <time>2015-08-19T11:03:45Z</time>
      </trkpt>
      <trkpt lat="44.83982" lon="6.14164">
        <ele>1611.79</ele>
        <time>2015-08-19T11:04:07Z</time>
      </trkpt>
      <trkpt lat="44.83979" lon="6.1416">
        <ele>1612.75</ele>
        <time>2015-08-19T11:04:22Z</time>
      </trkpt>
      <trkpt lat="44.83982" lon="6.14158">
        <ele>1613.71</ele>
        <time>2015-08-19T11:04:37Z</time>
      </trkpt>
      <trkpt lat="44.83989" lon="6.14162">
        <ele>1613.71</ele>
        <time>2015-08-19T11:04:56Z</time>
      </trkpt>
      <trkpt lat="44.83985" lon="6.14167">
        <ele>1613.71</ele>
        <time>2015-08-19T11:05:22Z</time>
      </trkpt>
      <trkpt lat="44.83987" lon="6.14162">
        <ele>1613.23</ele>
        <time>2015-08-19T11:05:53Z</time>
      </trkpt>
      <trkpt lat="44.83986" lon="6.14163">
        <ele>1614.19</ele>
        <time>2015-08-19T11:06:19Z</time>
      </trkpt>
      <trkpt lat="44.83986" lon="6.14163">
        <ele>1611.31</ele>
        <time>2015-08-19T11:06:36Z</time>
      </trkpt>
      <trkpt lat="44.83986" lon="6.14164">
        <ele>1614.67</ele>
        <time>2015-08-19T11:06:41Z</time>
      </trkpt>
      <trkpt lat="44.83983" lon="6.14161">
        <ele>1613.71</ele>
        <time>2015-08-19T11:07:02Z</time>
      </trkpt>
      <trkpt lat="44.83979" lon="6.14158">
        <ele>1613.71</ele>
        <time>2015-08-19T11:07:23Z</time>
      </trkpt>
      <trkpt lat="44.83978" lon="6.14156">
        <ele>1613.71</ele>
        <time>2015-08-19T11:07:54Z</time>
      </trkpt>
      <trkpt lat="44.83982" lon="6.14155">
        <ele>1614.19</ele>
        <time>2015-08-19T11:08:20Z</time>
      </trkpt>
      <trkpt lat="44.8398" lon="6.14158">
        <ele>1614.19</ele>
        <time>2015-08-19T11:08:50Z</time>
      </trkpt>
      <trkpt lat="44.8398" lon="6.14167">
        <ele>1614.19</ele>
        <time>2015-08-19T11:09:25Z</time>
      </trkpt>
      <trkpt lat="44.83979" lon="6.14166">
        <ele>1614.67</ele>
        <time>2015-08-19T11:09:58Z</time>
      </trkpt>
      <trkpt lat="44.83981" lon="6.14166">
        <ele>1614.67</ele>
        <time>2015-08-19T11:10:35Z</time>
      </trkpt>
      <trkpt lat="44.83981" lon="6.14167">
        <ele>1615.15</ele>
        <time>2015-08-19T11:11:11Z</time>
      </trkpt>
      <trkpt lat="44.83988" lon="6.14162">
        <ele>1615.15</ele>
        <time>2015-08-19T11:11:48Z</time>
      </trkpt>
      <trkpt lat="44.83984" lon="6.14164">
        <ele>1615.15</ele>
        <time>2015-08-19T11:12:26Z</time>
      </trkpt>
      <trkpt lat="44.83977" lon="6.14161">
        <ele>1615.63</ele>
        <time>2015-08-19T11:13:02Z</time>
      </trkpt>
      <trkpt lat="44.83975" lon="6.14157">
        <ele>1615.63</ele>
        <time>2015-08-19T11:13:43Z</time>
      </trkpt>
      <trkpt lat="44.83977" lon="6.14153">
        <ele>1616.11</ele>
        <time>2015-08-19T11:14:17Z</time>
      </trkpt>
      <trkpt lat="44.83973" lon="6.14147">
        <ele>1617.07</ele>
        <time>2015-08-19T11:14:50Z</time>
      </trkpt>
      <trkpt lat="44.83976" lon="6.14147">
        <ele>1617.07</ele>
        <time>2015-08-19T11:15:25Z</time>
      </trkpt>
      <trkpt lat="44.83976" lon="6.14146">
        <ele>1617.56</ele>
        <time>2015-08-19T11:16:00Z</time>
      </trkpt>
      <trkpt lat="44.83976" lon="6.14144">
        <ele>1617.56</ele>
        <time>2015-08-19T11:16:35Z</time>
      </trkpt>
      <trkpt lat="44.83976" lon="6.14143">
        <ele>1618.04</ele>
        <time>2015-08-19T11:17:08Z</time>
      </trkpt>
      <trkpt lat="44.83979" lon="6.14148">
        <ele>1618.04</ele>
        <time>2015-08-19T11:17:37Z</time>
      </trkpt>
      <trkpt lat="44.83982" lon="6.14148">
        <ele>1618.04</ele>
        <time>2015-08-19T11:18:12Z</time>
      </trkpt>
      <trkpt lat="44.83983" lon="6.14146">
        <ele>1618.52</ele>
        <time>2015-08-19T11:18:34Z</time>
      </trkpt>
      <trkpt lat="44.83982" lon="6.1415">
        <ele>1618.04</ele>
        <time>2015-08-19T11:19:00Z</time>
      </trkpt>
      <trkpt lat="44.8398" lon="6.14149">
        <ele>1619</ele>
        <time>2015-08-19T11:19:28Z</time>
      </trkpt>
      <trkpt lat="44.83976" lon="6.14161">
        <ele>1619.96</ele>
        <time>2015-08-19T11:19:49Z</time>
      </trkpt>
      <trkpt lat="44.83974" lon="6.14162">
        <ele>1619.96</ele>
        <time>2015-08-19T11:20:11Z</time>
      </trkpt>
      <trkpt lat="44.83978" lon="6.14157">
        <ele>1619.96</ele>
        <time>2015-08-19T11:20:31Z</time>
      </trkpt>
      <trkpt lat="44.83976" lon="6.14158">
        <ele>1619.48</ele>
        <time>2015-08-19T11:20:58Z</time>
      </trkpt>
      <trkpt lat="44.8398" lon="6.1416">
        <ele>1615.15</ele>
        <time>2015-08-19T11:21:07Z</time>
      </trkpt>
      <trkpt lat="44.83981" lon="6.1416">
        <ele>1619.96</ele>
        <time>2015-08-19T11:21:08Z</time>
      </trkpt>
      <trkpt lat="44.83974" lon="6.1417">
        <ele>1620.92</ele>
        <time>2015-08-19T11:21:23Z</time>
      </trkpt>
      <trkpt lat="44.83964" lon="6.14179">
        <ele>1622.36</ele>
        <time>2015-08-19T11:21:39Z</time>
      </trkpt>
      <trkpt lat="44.83959" lon="6.14183">
        <ele>1622.84</ele>
        <time>2015-08-19T11:21:57Z</time>
      </trkpt>
      <trkpt lat="44.83951" lon="6.14201">
        <ele>1625.73</ele>
        <time>2015-08-19T11:22:16Z</time>
      </trkpt>
      <trkpt lat="44.83945" lon="6.14217">
        <ele>1627.65</ele>
        <time>2015-08-19T11:22:31Z</time>
      </trkpt>
      <trkpt lat="44.83938" lon="6.14229">
        <ele>1629.09</ele>
        <time>2015-08-19T11:22:45Z</time>
      </trkpt>
      <trkpt lat="44.83932" lon="6.14239">
        <ele>1631.01</ele>
        <time>2015-08-19T11:23:00Z</time>
      </trkpt>
      <trkpt lat="44.83922" lon="6.14246">
        <ele>1632.46</ele>
        <time>2015-08-19T11:23:15Z</time>
      </trkpt>
      <trkpt lat="44.83913" lon="6.14256">
        <ele>1634.86</ele>
        <time>2015-08-19T11:23:30Z</time>
      </trkpt>
      <trkpt lat="44.83908" lon="6.14262">
        <ele>1636.3</ele>
        <time>2015-08-19T11:23:45Z</time>
      </trkpt>
      <trkpt lat="44.83898" lon="6.14269">
        <ele>1638.22</ele>
        <time>2015-08-19T11:24:00Z</time>
      </trkpt>
      <trkpt lat="44.83899" lon="6.14265">
        <ele>1640.63</ele>
        <time>2015-08-19T11:24:15Z</time>
      </trkpt>
      <trkpt lat="44.83907" lon="6.14259">
        <ele>1643.03</ele>
        <time>2015-08-19T11:24:29Z</time>
      </trkpt>
      <trkpt lat="44.83916" lon="6.14253">
        <ele>1645.43</ele>
        <time>2015-08-19T11:24:44Z</time>
      </trkpt>
      <trkpt lat="44.83924" lon="6.14253">
        <ele>1646.88</ele>
        <time>2015-08-19T11:24:59Z</time>
      </trkpt>
      <trkpt lat="44.83934" lon="6.14253">
        <ele>1649.28</ele>
        <time>2015-08-19T11:25:14Z</time>
      </trkpt>
      <trkpt lat="44.83944" lon="6.14257">
        <ele>1651.2</ele>
        <time>2015-08-19T11:25:30Z</time>
      </trkpt>
      <trkpt lat="44.83953" lon="6.14252">
        <ele>1653.6</ele>
        <time>2015-08-19T11:25:44Z</time>
      </trkpt>
      <trkpt lat="44.83961" lon="6.14246">
        <ele>1655.53</ele>
        <time>2015-08-19T11:25:59Z</time>
      </trkpt>
      <trkpt lat="44.83971" lon="6.14245">
        <ele>1658.41</ele>
        <time>2015-08-19T11:26:16Z</time>
      </trkpt>
      <trkpt lat="44.83975" lon="6.14253">
        <ele>1660.33</ele>
        <time>2015-08-19T11:26:31Z</time>
      </trkpt>
      <trkpt lat="44.83972" lon="6.14268">
        <ele>1663.22</ele>
        <time>2015-08-19T11:26:50Z</time>
      </trkpt>
      <trkpt lat="44.83958" lon="6.14284">
        <ele>1665.62</ele>
        <time>2015-08-19T11:27:10Z</time>
      </trkpt>
      <trkpt lat="44.83963" lon="6.14277">
        <ele>1667.54</ele>
        <time>2015-08-19T11:27:24Z</time>
      </trkpt>
      <trkpt lat="44.8397" lon="6.1427">
        <ele>1668.99</ele>
        <time>2015-08-19T11:27:38Z</time>
      </trkpt>
      <trkpt lat="44.83977" lon="6.14267">
        <ele>1671.87</ele>
        <time>2015-08-19T11:27:53Z</time>
      </trkpt>
      <trkpt lat="44.83976" lon="6.14279">
        <ele>1674.75</ele>
        <time>2015-08-19T11:28:10Z</time>
      </trkpt>
      <trkpt lat="44.83977" lon="6.14294">
        <ele>1677.16</ele>
        <time>2015-08-19T11:28:28Z</time>
      </trkpt>
      <trkpt lat="44.83986" lon="6.14294">
        <ele>1680.04</ele>
        <time>2015-08-19T11:28:45Z</time>
      </trkpt>
      <trkpt lat="44.83996" lon="6.14297">
        <ele>1682.44</ele>
        <time>2015-08-19T11:29:00Z</time>
      </trkpt>
      <trkpt lat="44.84005" lon="6.14298">
        <ele>1684.37</ele>
        <time>2015-08-19T11:29:14Z</time>
      </trkpt>
      <trkpt lat="44.84013" lon="6.143">
        <ele>1686.29</ele>
        <time>2015-08-19T11:29:29Z</time>
      </trkpt>
      <trkpt lat="44.84021" lon="6.14302">
        <ele>1687.25</ele>
        <time>2015-08-19T11:29:40Z</time>
      </trkpt>
      <trkpt lat="44.8403" lon="6.14302">
        <ele>1689.17</ele>
        <time>2015-08-19T11:29:55Z</time>
      </trkpt>
      <trkpt lat="44.84038" lon="6.14288">
        <ele>1691.58</ele>
        <time>2015-08-19T11:30:11Z</time>
      </trkpt>
      <trkpt lat="44.84044" lon="6.14272">
        <ele>1693.98</ele>
        <time>2015-08-19T11:30:25Z</time>
      </trkpt>
      <trkpt lat="44.84056" lon="6.14268">
        <ele>1695.9</ele>
        <time>2015-08-19T11:30:40Z</time>
      </trkpt>
      <trkpt lat="44.84066" lon="6.14265">
        <ele>1698.31</ele>
        <time>2015-08-19T11:30:56Z</time>
      </trkpt>
      <trkpt lat="44.84074" lon="6.14259">
        <ele>1699.75</ele>
        <time>2015-08-19T11:31:12Z</time>
      </trkpt>
      <trkpt lat="44.84069" lon="6.14273">
        <ele>1701.67</ele>
        <time>2015-08-19T11:31:25Z</time>
      </trkpt>
      <trkpt lat="44.8406" lon="6.14282">
        <ele>1703.11</ele>
        <time>2015-08-19T11:31:40Z</time>
      </trkpt>
      <trkpt lat="44.8406" lon="6.14288">
        <ele>1705.04</ele>
        <time>2015-08-19T11:31:55Z</time>
      </trkpt>
      <trkpt lat="44.84071" lon="6.14283">
        <ele>1707.44</ele>
        <time>2015-08-19T11:32:12Z</time>
      </trkpt>
      <trkpt lat="44.84078" lon="6.14284">
        <ele>1709.84</ele>
        <time>2015-08-19T11:32:25Z</time>
      </trkpt>
      <trkpt lat="44.84084" lon="6.14284">
        <ele>1711.76</ele>
        <time>2015-08-19T11:32:38Z</time>
      </trkpt>
      <trkpt lat="44.84081" lon="6.14297">
        <ele>1714.65</ele>
        <time>2015-08-19T11:32:59Z</time>
      </trkpt>
      <trkpt lat="44.84077" lon="6.14302">
        <ele>1716.57</ele>
        <time>2015-08-19T11:33:14Z</time>
      </trkpt>
      <trkpt lat="44.84076" lon="6.14311">
        <ele>1718.97</ele>
        <time>2015-08-19T11:33:34Z</time>
      </trkpt>
      <trkpt lat="44.84075" lon="6.14311">
        <ele>1718.97</ele>
        <time>2015-08-19T11:34:00Z</time>
      </trkpt>
      <trkpt lat="44.84078" lon="6.14305">
        <ele>1720.9</ele>
        <time>2015-08-19T11:34:15Z</time>
      </trkpt>
      <trkpt lat="44.84086" lon="6.14303">
        <ele>1723.78</ele>
        <time>2015-08-19T11:34:29Z</time>
      </trkpt>
      <trkpt lat="44.84087" lon="6.14306">
        <ele>1725.7</ele>
        <time>2015-08-19T11:34:42Z</time>
      </trkpt>
      <trkpt lat="44.84082" lon="6.14315">
        <ele>1728.11</ele>
        <time>2015-08-19T11:34:57Z</time>
      </trkpt>
      <trkpt lat="44.84073" lon="6.14326">
        <ele>1730.51</ele>
        <time>2015-08-19T11:35:14Z</time>
      </trkpt>
      <trkpt lat="44.8407" lon="6.14342">
        <ele>1732.43</ele>
        <time>2015-08-19T11:35:31Z</time>
      </trkpt>
      <trkpt lat="44.84071" lon="6.14331">
        <ele>1733.88</ele>
        <time>2015-08-19T11:35:43Z</time>
      </trkpt>
      <trkpt lat="44.8408" lon="6.14327">
        <ele>1735.8</ele>
        <time>2015-08-19T11:35:55Z</time>
      </trkpt>
      <trkpt lat="44.8409" lon="6.14322">
        <ele>1737.24</ele>
        <time>2015-08-19T11:36:09Z</time>
      </trkpt>
      <trkpt lat="44.84095" lon="6.14319">
        <ele>1738.2</ele>
        <time>2015-08-19T11:36:16Z</time>
      </trkpt>
      <trkpt lat="44.84098" lon="6.14319">
        <ele>1739.16</ele>
        <time>2015-08-19T11:36:31Z</time>
      </trkpt>
      <trkpt lat="44.84102" lon="6.14321">
        <ele>1739.64</ele>
        <time>2015-08-19T11:36:53Z</time>
      </trkpt>
      <trkpt lat="44.84108" lon="6.14328">
        <ele>1742.05</ele>
        <time>2015-08-19T11:37:05Z</time>
      </trkpt>
      <trkpt lat="44.84112" lon="6.14328">
        <ele>1743.01</ele>
        <time>2015-08-19T11:37:22Z</time>
      </trkpt>
      <trkpt lat="44.84116" lon="6.14331">
        <ele>1745.41</ele>
        <time>2015-08-19T11:37:34Z</time>
      </trkpt>
      <trkpt lat="44.84121" lon="6.14343">
        <ele>1748.29</ele>
        <time>2015-08-19T11:37:50Z</time>
      </trkpt>
      <trkpt lat="44.84121" lon="6.14349">
        <ele>1750.22</ele>
        <time>2015-08-19T11:38:03Z</time>
      </trkpt>
      <trkpt lat="44.84125" lon="6.14356">
        <ele>1753.1</ele>
        <time>2015-08-19T11:38:17Z</time>
      </trkpt>
      <trkpt lat="44.8413" lon="6.14359">
        <ele>1754.06</ele>
        <time>2015-08-19T11:38:20Z</time>
      </trkpt>
      <trkpt lat="44.84142" lon="6.14362">
        <ele>1754.54</ele>
        <time>2015-08-19T11:38:36Z</time>
      </trkpt>
      <trkpt lat="44.84153" lon="6.14363">
        <ele>1755.5</ele>
        <time>2015-08-19T11:38:51Z</time>
      </trkpt>
      <trkpt lat="44.84155" lon="6.14357">
        <ele>1755.02</ele>
        <time>2015-08-19T11:38:56Z</time>
      </trkpt>
      <trkpt lat="44.84164" lon="6.1434">
        <ele>1755.5</ele>
        <time>2015-08-19T11:39:11Z</time>
      </trkpt>
      <trkpt lat="44.84171" lon="6.14329">
        <ele>1756.95</ele>
        <time>2015-08-19T11:39:23Z</time>
      </trkpt>
      <trkpt lat="44.8418" lon="6.14315">
        <ele>1758.87</ele>
        <time>2015-08-19T11:39:39Z</time>
      </trkpt>
      <trkpt lat="44.8419" lon="6.14308">
        <ele>1761.27</ele>
        <time>2015-08-19T11:39:53Z</time>
      </trkpt>
      <trkpt lat="44.84195" lon="6.14306">
        <ele>1763.68</ele>
        <time>2015-08-19T11:40:07Z</time>
      </trkpt>
      <trkpt lat="44.84199" lon="6.14293">
        <ele>1765.6</ele>
        <time>2015-08-19T11:40:22Z</time>
      </trkpt>
      <trkpt lat="44.84199" lon="6.14292">
        <ele>1765.6</ele>
        <time>2015-08-19T11:40:23Z</time>
      </trkpt>
      <trkpt lat="44.84211" lon="6.14281">
        <ele>1768</ele>
        <time>2015-08-19T11:40:39Z</time>
      </trkpt>
      <trkpt lat="44.84209" lon="6.14293">
        <ele>1769.92</ele>
        <time>2015-08-19T11:40:53Z</time>
      </trkpt>
      <trkpt lat="44.84213" lon="6.14294">
        <ele>1771.85</ele>
        <time>2015-08-19T11:41:06Z</time>
      </trkpt>
      <trkpt lat="44.8422" lon="6.14294">
        <ele>1774.73</ele>
        <time>2015-08-19T11:41:22Z</time>
      </trkpt>
      <trkpt lat="44.84226" lon="6.14295">
        <ele>1777.61</ele>
        <time>2015-08-19T11:41:37Z</time>
      </trkpt>
      <trkpt lat="44.84228" lon="6.14296">
        <ele>1778.1</ele>
        <time>2015-08-19T11:42:00Z</time>
      </trkpt>
      <trkpt lat="44.84227" lon="6.14296">
        <ele>1777.61</ele>
        <time>2015-08-19T11:42:33Z</time>
      </trkpt>
      <trkpt lat="44.84232" lon="6.14297">
        <ele>1780.02</ele>
        <time>2015-08-19T11:42:54Z</time>
      </trkpt>
      <trkpt lat="44.84241" lon="6.14296">
        <ele>1782.42</ele>
        <time>2015-08-19T11:43:11Z</time>
      </trkpt>
      <trkpt lat="44.84236" lon="6.14305">
        <ele>1784.34</ele>
        <time>2015-08-19T11:43:23Z</time>
      </trkpt>
      <trkpt lat="44.84225" lon="6.14314">
        <ele>1786.27</ele>
        <time>2015-08-19T11:43:39Z</time>
      </trkpt>
      <trkpt lat="44.84219" lon="6.14326">
        <ele>1787.71</ele>
        <time>2015-08-19T11:43:55Z</time>
      </trkpt>
      <trkpt lat="44.8422" lon="6.14331">
        <ele>1790.59</ele>
        <time>2015-08-19T11:44:12Z</time>
      </trkpt>
      <trkpt lat="44.84224" lon="6.14325">
        <ele>1792.52</ele>
        <time>2015-08-19T11:44:24Z</time>
      </trkpt>
      <trkpt lat="44.8423" lon="6.14323">
        <ele>1794.92</ele>
        <time>2015-08-19T11:44:39Z</time>
      </trkpt>
      <trkpt lat="44.84231" lon="6.14335">
        <ele>1796.84</ele>
        <time>2015-08-19T11:44:55Z</time>
      </trkpt>
      <trkpt lat="44.84234" lon="6.14332">
        <ele>1799.24</ele>
        <time>2015-08-19T11:45:08Z</time>
      </trkpt>
      <trkpt lat="44.8424" lon="6.14332">
        <ele>1801.17</ele>
        <time>2015-08-19T11:45:22Z</time>
      </trkpt>
      <trkpt lat="44.84248" lon="6.14333">
        <ele>1803.09</ele>
        <time>2015-08-19T11:45:36Z</time>
      </trkpt>
      <trkpt lat="44.8425" lon="6.14339">
        <ele>1805.01</ele>
        <time>2015-08-19T11:45:49Z</time>
      </trkpt>
      <trkpt lat="44.84242" lon="6.14345">
        <ele>1806.45</ele>
        <time>2015-08-19T11:46:03Z</time>
      </trkpt>
      <trkpt lat="44.84238" lon="6.14358">
        <ele>1808.38</ele>
        <time>2015-08-19T11:46:17Z</time>
      </trkpt>
      <trkpt lat="44.84234" lon="6.14368">
        <ele>1810.78</ele>
        <time>2015-08-19T11:46:34Z</time>
      </trkpt>
      <trkpt lat="44.8424" lon="6.14362">
        <ele>1812.7</ele>
        <time>2015-08-19T11:46:50Z</time>
      </trkpt>
      <trkpt lat="44.84248" lon="6.14356">
        <ele>1815.11</ele>
        <time>2015-08-19T11:47:06Z</time>
      </trkpt>
      <trkpt lat="44.84257" lon="6.14356">
        <ele>1816.55</ele>
        <time>2015-08-19T11:47:21Z</time>
      </trkpt>
      <trkpt lat="44.84265" lon="6.14356">
        <ele>1818.95</ele>
        <time>2015-08-19T11:47:36Z</time>
      </trkpt>
      <trkpt lat="44.84269" lon="6.14353">
        <ele>1819.43</ele>
        <time>2015-08-19T11:47:49Z</time>
      </trkpt>
      <trkpt lat="44.8427" lon="6.14358">
        <ele>1819.91</ele>
        <time>2015-08-19T11:48:07Z</time>
      </trkpt>
      <trkpt lat="44.8427" lon="6.14356">
        <ele>1819.91</ele>
        <time>2015-08-19T11:48:35Z</time>
      </trkpt>
      <trkpt lat="44.84268" lon="6.14353">
        <ele>1819.91</ele>
        <time>2015-08-19T11:48:58Z</time>
      </trkpt>
      <trkpt lat="44.84269" lon="6.14355">
        <ele>1819.91</ele>
        <time>2015-08-19T11:49:22Z</time>
      </trkpt>
      <trkpt lat="44.84269" lon="6.14354">
        <ele>1820.39</ele>
        <time>2015-08-19T11:49:41Z</time>
      </trkpt>
      <trkpt lat="44.84268" lon="6.14355">
        <ele>1820.39</ele>
        <time>2015-08-19T11:50:15Z</time>
      </trkpt>
      <trkpt lat="44.84269" lon="6.14353">
        <ele>1820.39</ele>
        <time>2015-08-19T11:50:34Z</time>
      </trkpt>
      <trkpt lat="44.84271" lon="6.14354">
        <ele>1820.39</ele>
        <time>2015-08-19T11:50:47Z</time>
      </trkpt>
      <trkpt lat="44.84281" lon="6.14354">
        <ele>1822.32</ele>
        <time>2015-08-19T11:51:01Z</time>
      </trkpt>
      <trkpt lat="44.84289" lon="6.1435">
        <ele>1823.76</ele>
        <time>2015-08-19T11:51:14Z</time>
      </trkpt>
      <trkpt lat="44.84299" lon="6.14347">
        <ele>1826.16</ele>
        <time>2015-08-19T11:51:30Z</time>
      </trkpt>
      <trkpt lat="44.84298" lon="6.14357">
        <ele>1828.08</ele>
        <time>2015-08-19T11:51:43Z</time>
      </trkpt>
      <trkpt lat="44.8429" lon="6.1437">
        <ele>1830.49</ele>
        <time>2015-08-19T11:52:02Z</time>
      </trkpt>
      <trkpt lat="44.84281" lon="6.14381">
        <ele>1833.37</ele>
        <time>2015-08-19T11:52:21Z</time>
      </trkpt>
      <trkpt lat="44.84272" lon="6.14388">
        <ele>1835.77</ele>
        <time>2015-08-19T11:52:38Z</time>
      </trkpt>
      <trkpt lat="44.84265" lon="6.14395">
        <ele>1838.18</ele>
        <time>2015-08-19T11:52:53Z</time>
      </trkpt>
      <trkpt lat="44.84257" lon="6.14407">
        <ele>1840.58</ele>
        <time>2015-08-19T11:53:10Z</time>
      </trkpt>
      <trkpt lat="44.84249" lon="6.14417">
        <ele>1842.5</ele>
        <time>2015-08-19T11:53:28Z</time>
      </trkpt>
      <trkpt lat="44.8424" lon="6.1443">
        <ele>1843.95</ele>
        <time>2015-08-19T11:53:45Z</time>
      </trkpt>
      <trkpt lat="44.84234" lon="6.14445">
        <ele>1845.87</ele>
        <time>2015-08-19T11:54:04Z</time>
      </trkpt>
      <trkpt lat="44.84226" lon="6.14457">
        <ele>1847.79</ele>
        <time>2015-08-19T11:54:21Z</time>
      </trkpt>
      <trkpt lat="44.84217" lon="6.14461">
        <ele>1849.23</ele>
        <time>2015-08-19T11:54:36Z</time>
      </trkpt>
      <trkpt lat="44.84217" lon="6.14469">
        <ele>1851.16</ele>
        <time>2015-08-19T11:54:52Z</time>
      </trkpt>
      <trkpt lat="44.84226" lon="6.14471">
        <ele>1853.56</ele>
        <time>2015-08-19T11:55:07Z</time>
      </trkpt>
      <trkpt lat="44.84236" lon="6.14473">
        <ele>1855.48</ele>
        <time>2015-08-19T11:55:22Z</time>
      </trkpt>
      <trkpt lat="44.84243" lon="6.14474">
        <ele>1856.92</ele>
        <time>2015-08-19T11:55:33Z</time>
      </trkpt>
      <trkpt lat="44.84249" lon="6.1447">
        <ele>1859.33</ele>
        <time>2015-08-19T11:55:48Z</time>
      </trkpt>
      <trkpt lat="44.84254" lon="6.14468">
        <ele>1860.77</ele>
        <time>2015-08-19T11:56:02Z</time>
      </trkpt>
      <trkpt lat="44.84263" lon="6.14466">
        <ele>1862.69</ele>
        <time>2015-08-19T11:56:19Z</time>
      </trkpt>
      <trkpt lat="44.84271" lon="6.14462">
        <ele>1864.61</ele>
        <time>2015-08-19T11:56:34Z</time>
      </trkpt>
      <trkpt lat="44.84279" lon="6.14464">
        <ele>1865.58</ele>
        <time>2015-08-19T11:56:46Z</time>
      </trkpt>
      <trkpt lat="44.84286" lon="6.14463">
        <ele>1867.02</ele>
        <time>2015-08-19T11:57:00Z</time>
      </trkpt>
      <trkpt lat="44.84292" lon="6.14451">
        <ele>1867.98</ele>
        <time>2015-08-19T11:57:14Z</time>
      </trkpt>
      <trkpt lat="44.84299" lon="6.14445">
        <ele>1869.9</ele>
        <time>2015-08-19T11:57:27Z</time>
      </trkpt>
      <trkpt lat="44.84303" lon="6.14436">
        <ele>1871.34</ele>
        <time>2015-08-19T11:57:40Z</time>
      </trkpt>
      <trkpt lat="44.84312" lon="6.14432">
        <ele>1873.27</ele>
        <time>2015-08-19T11:57:56Z</time>
      </trkpt>
      <trkpt lat="44.84323" lon="6.1443">
        <ele>1875.19</ele>
        <time>2015-08-19T11:58:13Z</time>
      </trkpt>
      <trkpt lat="44.84332" lon="6.14424">
        <ele>1877.11</ele>
        <time>2015-08-19T11:58:29Z</time>
      </trkpt>
      <trkpt lat="44.84338" lon="6.14414">
        <ele>1878.55</ele>
        <time>2015-08-19T11:58:43Z</time>
      </trkpt>
      <trkpt lat="44.84349" lon="6.14413">
        <ele>1880.96</ele>
        <time>2015-08-19T11:58:58Z</time>
      </trkpt>
      <trkpt lat="44.8436" lon="6.14415">
        <ele>1882.88</ele>
        <time>2015-08-19T11:59:14Z</time>
      </trkpt>
      <trkpt lat="44.84369" lon="6.14423">
        <ele>1884.8</ele>
        <time>2015-08-19T11:59:30Z</time>
      </trkpt>
      <trkpt lat="44.84371" lon="6.14424">
        <ele>1885.76</ele>
        <time>2015-08-19T11:59:42Z</time>
      </trkpt>
      <trkpt lat="44.84372" lon="6.14423">
        <ele>1886.24</ele>
        <time>2015-08-19T12:00:03Z</time>
      </trkpt>
      <trkpt lat="44.84369" lon="6.14421">
        <ele>1886.24</ele>
        <time>2015-08-19T12:00:22Z</time>
      </trkpt>
      <trkpt lat="44.8437" lon="6.14425">
        <ele>1886.24</ele>
        <time>2015-08-19T12:00:47Z</time>
      </trkpt>
      <trkpt lat="44.84371" lon="6.14426">
        <ele>1886.24</ele>
        <time>2015-08-19T12:01:04Z</time>
      </trkpt>
      <trkpt lat="44.8438" lon="6.14431">
        <ele>1887.69</ele>
        <time>2015-08-19T12:01:17Z</time>
      </trkpt>
      <trkpt lat="44.84386" lon="6.14427">
        <ele>1889.61</ele>
        <time>2015-08-19T12:01:30Z</time>
      </trkpt>
      <trkpt lat="44.8439" lon="6.14429">
        <ele>1889.61</ele>
        <time>2015-08-19T12:01:53Z</time>
      </trkpt>
      <trkpt lat="44.84399" lon="6.14424">
        <ele>1891.05</ele>
        <time>2015-08-19T12:02:07Z</time>
      </trkpt>
      <trkpt lat="44.84408" lon="6.1443">
        <ele>1892.97</ele>
        <time>2015-08-19T12:02:22Z</time>
      </trkpt>
      <trkpt lat="44.84411" lon="6.14431">
        <ele>1893.93</ele>
        <time>2015-08-19T12:02:36Z</time>
      </trkpt>
      <trkpt lat="44.84418" lon="6.14435">
        <ele>1895.86</ele>
        <time>2015-08-19T12:02:53Z</time>
      </trkpt>
      <trkpt lat="44.84427" lon="6.14441">
        <ele>1897.78</ele>
        <time>2015-08-19T12:03:07Z</time>
      </trkpt>
      <trkpt lat="44.84436" lon="6.14448">
        <ele>1899.7</ele>
        <time>2015-08-19T12:03:22Z</time>
      </trkpt>
      <trkpt lat="44.84444" lon="6.14456">
        <ele>1901.63</ele>
        <time>2015-08-19T12:03:35Z</time>
      </trkpt>
      <trkpt lat="44.84451" lon="6.14462">
        <ele>1903.55</ele>
        <time>2015-08-19T12:03:48Z</time>
      </trkpt>
      <trkpt lat="44.84458" lon="6.14468">
        <ele>1904.99</ele>
        <time>2015-08-19T12:04:02Z</time>
      </trkpt>
      <trkpt lat="44.84465" lon="6.14471">
        <ele>1906.91</ele>
        <time>2015-08-19T12:04:15Z</time>
      </trkpt>
      <trkpt lat="44.84471" lon="6.14478">
        <ele>1908.83</ele>
        <time>2015-08-19T12:04:28Z</time>
      </trkpt>
      <trkpt lat="44.84479" lon="6.14483">
        <ele>1911.24</ele>
        <time>2015-08-19T12:04:43Z</time>
      </trkpt>
      <trkpt lat="44.84472" lon="6.14488">
        <ele>1913.16</ele>
        <time>2015-08-19T12:04:58Z</time>
      </trkpt>
      <trkpt lat="44.84481" lon="6.1449">
        <ele>1915.56</ele>
        <time>2015-08-19T12:05:12Z</time>
      </trkpt>
      <trkpt lat="44.8449" lon="6.14495">
        <ele>1917.01</ele>
        <time>2015-08-19T12:05:26Z</time>
      </trkpt>
      <trkpt lat="44.84498" lon="6.14502">
        <ele>1919.41</ele>
        <time>2015-08-19T12:05:42Z</time>
      </trkpt>
      <trkpt lat="44.84507" lon="6.1451">
        <ele>1920.85</ele>
        <time>2015-08-19T12:05:54Z</time>
      </trkpt>
      <trkpt lat="44.84511" lon="6.14518">
        <ele>1922.77</ele>
        <time>2015-08-19T12:06:09Z</time>
      </trkpt>
      <trkpt lat="44.84501" lon="6.14516">
        <ele>1925.66</ele>
        <time>2015-08-19T12:06:24Z</time>
      </trkpt>
      <trkpt lat="44.84488" lon="6.14515">
        <ele>1927.1</ele>
        <time>2015-08-19T12:06:42Z</time>
      </trkpt>
      <trkpt lat="44.84495" lon="6.14519">
        <ele>1929.02</ele>
        <time>2015-08-19T12:06:55Z</time>
      </trkpt>
      <trkpt lat="44.84504" lon="6.14529">
        <ele>1931.43</ele>
        <time>2015-08-19T12:07:11Z</time>
      </trkpt>
      <trkpt lat="44.84509" lon="6.1454">
        <ele>1932.87</ele>
        <time>2015-08-19T12:07:26Z</time>
      </trkpt>
      <trkpt lat="44.84505" lon="6.1454">
        <ele>1933.83</ele>
        <time>2015-08-19T12:07:45Z</time>
      </trkpt>
      <trkpt lat="44.84502" lon="6.14539">
        <ele>1933.83</ele>
        <time>2015-08-19T12:08:13Z</time>
      </trkpt>
      <trkpt lat="44.8449" lon="6.14535">
        <ele>1936.23</ele>
        <time>2015-08-19T12:08:28Z</time>
      </trkpt>
      <trkpt lat="44.84489" lon="6.14535">
        <ele>1936.23</ele>
        <time>2015-08-19T12:08:29Z</time>
      </trkpt>
      <trkpt lat="44.84486" lon="6.14537">
        <ele>1936.71</ele>
        <time>2015-08-19T12:08:32Z</time>
      </trkpt>
      <trkpt lat="44.84485" lon="6.14542">
        <ele>1937.19</ele>
        <time>2015-08-19T12:08:36Z</time>
      </trkpt>
      <trkpt lat="44.84482" lon="6.14567">
        <ele>1938.64</ele>
        <time>2015-08-19T12:08:51Z</time>
      </trkpt>
      <trkpt lat="44.84472" lon="6.14584">
        <ele>1941.52</ele>
        <time>2015-08-19T12:09:07Z</time>
      </trkpt>
      <trkpt lat="44.84464" lon="6.14593">
        <ele>1943.44</ele>
        <time>2015-08-19T12:09:21Z</time>
      </trkpt>
      <trkpt lat="44.84462" lon="6.14596">
        <ele>1945.36</ele>
        <time>2015-08-19T12:09:36Z</time>
      </trkpt>
      <trkpt lat="44.84465" lon="6.14597">
        <ele>1945.85</ele>
        <time>2015-08-19T12:09:50Z</time>
      </trkpt>
      <trkpt lat="44.84471" lon="6.14602">
        <ele>1947.29</ele>
        <time>2015-08-19T12:10:05Z</time>
      </trkpt>
      <trkpt lat="44.8448" lon="6.14603">
        <ele>1949.21</ele>
        <time>2015-08-19T12:10:20Z</time>
      </trkpt>
      <trkpt lat="44.84486" lon="6.14606">
        <ele>1950.17</ele>
        <time>2015-08-19T12:10:33Z</time>
      </trkpt>
      <trkpt lat="44.84488" lon="6.14607">
        <ele>1951.61</ele>
        <time>2015-08-19T12:10:47Z</time>
      </trkpt>
      <trkpt lat="44.84492" lon="6.14613">
        <ele>1952.57</ele>
        <time>2015-08-19T12:11:00Z</time>
      </trkpt>
      <trkpt lat="44.84482" lon="6.14618">
        <ele>1954.98</ele>
        <time>2015-08-19T12:11:16Z</time>
      </trkpt>
      <trkpt lat="44.84482" lon="6.14622">
        <ele>1956.9</ele>
        <time>2015-08-19T12:11:33Z</time>
      </trkpt>
      <trkpt lat="44.84488" lon="6.14626">
        <ele>1958.34</ele>
        <time>2015-08-19T12:11:46Z</time>
      </trkpt>
      <trkpt lat="44.84495" lon="6.14636">
        <ele>1959.78</ele>
        <time>2015-08-19T12:12:01Z</time>
      </trkpt>
      <trkpt lat="44.84495" lon="6.14649">
        <ele>1961.23</ele>
        <time>2015-08-19T12:12:15Z</time>
      </trkpt>
      <trkpt lat="44.84491" lon="6.14653">
        <ele>1963.15</ele>
        <time>2015-08-19T12:12:31Z</time>
      </trkpt>
      <trkpt lat="44.84483" lon="6.1465">
        <ele>1965.07</ele>
        <time>2015-08-19T12:12:46Z</time>
      </trkpt>
      <trkpt lat="44.84475" lon="6.14651">
        <ele>1965.07</ele>
        <time>2015-08-19T12:12:59Z</time>
      </trkpt>
      <trkpt lat="44.8447" lon="6.14652">
        <ele>1965.07</ele>
        <time>2015-08-19T12:13:12Z</time>
      </trkpt>
      <trkpt lat="44.84471" lon="6.14651">
        <ele>1965.55</ele>
        <time>2015-08-19T12:13:26Z</time>
      </trkpt>
      <trkpt lat="44.8447" lon="6.14645">
        <ele>1965.55</ele>
        <time>2015-08-19T12:13:54Z</time>
      </trkpt>
      <trkpt lat="44.84473" lon="6.14646">
        <ele>1965.07</ele>
        <time>2015-08-19T12:14:08Z</time>
      </trkpt>
      <trkpt lat="44.84474" lon="6.14645">
        <ele>1966.03</ele>
        <time>2015-08-19T12:14:27Z</time>
      </trkpt>
    </trkseg>
  </trk>
</gpx>